<?xml version='1.0' encoding='UTF-8'?>
<gpx version="1.1" creator="https://www.komoot.de" xmlns="http://www.topografix.com/GPX/1/1" xmlns:xsi="http://www.w3.org/2001/XMLSchema-instance" xsi:schemaLocation="http://www.topografix.com/GPX/1/1 http://www.topografix.com/GPX/1/1/gpx.xsd">
  <metadata>
    <name>68_1100SulzerbergBinzgen</name>
    <author>
      <link href="https://www.komoot.de">
        <text>komoot</text>
        <type>text/html</type>
      </link>
    </author>
  </metadata>
  <trk>
    <name>68_1100SulzerbergBinzgen</name>
    <trkseg>
      <trkpt lat="47.541282" lon="7.870897">
        <ele>340.814436</ele>
        <time>2021-11-19T21:42:53.352Z</time>
      </trkpt>
      <trkpt lat="47.541410" lon="7.870791">
        <ele>340.814436</ele>
        <time>2021-11-19T21:42:55.542Z</time>
      </trkpt>
      <trkpt lat="47.541576" lon="7.870664">
        <ele>340.814436</ele>
        <time>2021-11-19T21:42:59.685Z</time>
      </trkpt>
      <trkpt lat="47.541796" lon="7.871042">
        <ele>340.814436</ele>
        <time>2021-11-19T21:43:06.787Z</time>
      </trkpt>
      <trkpt lat="47.541953" lon="7.871286">
        <ele>340.814436</ele>
        <time>2021-11-19T21:43:11.609Z</time>
      </trkpt>
      <trkpt lat="47.542039" lon="7.871556">
        <ele>341.539838</ele>
        <time>2021-11-19T21:43:15.986Z</time>
      </trkpt>
      <trkpt lat="47.542067" lon="7.871664">
        <ele>341.822881</ele>
        <time>2021-11-19T21:43:17.649Z</time>
      </trkpt>
      <trkpt lat="47.542091" lon="7.871721">
        <ele>341.987237</ele>
        <time>2021-11-19T21:43:18.256Z</time>
      </trkpt>
      <trkpt lat="47.542218" lon="7.871866">
        <ele>342.568359</ele>
        <time>2021-11-19T21:43:23.364Z</time>
      </trkpt>
      <trkpt lat="47.542394" lon="7.872341">
        <ele>343.894010</ele>
        <time>2021-11-19T21:43:33.417Z</time>
      </trkpt>
      <trkpt lat="47.542436" lon="7.872494">
        <ele>344.298094</ele>
        <time>2021-11-19T21:43:36.808Z</time>
      </trkpt>
      <trkpt lat="47.542537" lon="7.872430">
        <ele>344.696225</ele>
        <time>2021-11-19T21:43:38.920Z</time>
      </trkpt>
      <trkpt lat="47.542714" lon="7.872334">
        <ele>345.379359</ele>
        <time>2021-11-19T21:43:45.876Z</time>
      </trkpt>
      <trkpt lat="47.542814" lon="7.872280">
        <ele>345.765111</ele>
        <time>2021-11-19T21:43:48.890Z</time>
      </trkpt>
      <trkpt lat="47.542919" lon="7.872226">
        <ele>346.167936</ele>
        <time>2021-11-19T21:43:52.729Z</time>
      </trkpt>
      <trkpt lat="47.543013" lon="7.872182">
        <ele>346.525216</ele>
        <time>2021-11-19T21:43:56.235Z</time>
      </trkpt>
      <trkpt lat="47.543233" lon="7.872082">
        <ele>347.378540</ele>
        <time>2021-11-19T21:44:03.474Z</time>
      </trkpt>
      <trkpt lat="47.543251" lon="7.872152">
        <ele>347.697387</ele>
        <time>2021-11-19T21:44:06.847Z</time>
      </trkpt>
      <trkpt lat="47.543332" lon="7.872237">
        <ele>348.323316</ele>
        <time>2021-11-19T21:44:10.153Z</time>
      </trkpt>
      <trkpt lat="47.544390" lon="7.872423">
        <ele>355.041598</ele>
        <time>2021-11-19T21:44:51.872Z</time>
      </trkpt>
      <trkpt lat="47.544883" lon="7.872555">
        <ele>358.200692</ele>
        <time>2021-11-19T21:45:14.281Z</time>
      </trkpt>
      <trkpt lat="47.545131" lon="7.872664">
        <ele>359.894657</ele>
        <time>2021-11-19T21:45:25.285Z</time>
      </trkpt>
      <trkpt lat="47.545375" lon="7.872836">
        <ele>361.691000</ele>
        <time>2021-11-19T21:45:36.226Z</time>
      </trkpt>
      <trkpt lat="47.545478" lon="7.872968">
        <ele>362.596377</ele>
        <time>2021-11-19T21:45:43.034Z</time>
      </trkpt>
      <trkpt lat="47.545515" lon="7.873015">
        <ele>362.920387</ele>
        <time>2021-11-19T21:45:44.990Z</time>
      </trkpt>
      <trkpt lat="47.545746" lon="7.873302">
        <ele>364.924589</ele>
        <time>2021-11-19T21:45:58.190Z</time>
      </trkpt>
      <trkpt lat="47.545934" lon="7.873549">
        <ele>366.595057</ele>
        <time>2021-11-19T21:46:08.290Z</time>
      </trkpt>
      <trkpt lat="47.546077" lon="7.873763">
        <ele>367.946301</ele>
        <time>2021-11-19T21:46:17.486Z</time>
      </trkpt>
      <trkpt lat="47.546135" lon="7.873859">
        <ele>368.524435</ele>
        <time>2021-11-19T21:46:20.725Z</time>
      </trkpt>
      <trkpt lat="47.546309" lon="7.874154">
        <ele>370.282366</ele>
        <time>2021-11-19T21:46:31.840Z</time>
      </trkpt>
      <trkpt lat="47.547126" lon="7.875801">
        <ele>375.970125</ele>
        <time>2021-11-19T21:47:17.601Z</time>
      </trkpt>
      <trkpt lat="47.547574" lon="7.876801">
        <ele>377.688813</ele>
        <time>2021-11-19T21:47:36.597Z</time>
      </trkpt>
      <trkpt lat="47.547992" lon="7.877974">
        <ele>377.216942</ele>
        <time>2021-11-19T21:47:49.397Z</time>
      </trkpt>
      <trkpt lat="47.548234" lon="7.878638">
        <ele>376.948496</ele>
        <time>2021-11-19T21:47:54.710Z</time>
      </trkpt>
      <trkpt lat="47.548422" lon="7.878959">
        <ele>375.976955</ele>
        <time>2021-11-19T21:47:57.552Z</time>
      </trkpt>
      <trkpt lat="47.548718" lon="7.879258">
        <ele>374.517976</ele>
        <time>2021-11-19T21:48:01.091Z</time>
      </trkpt>
      <trkpt lat="47.549140" lon="7.879391">
        <ele>372.760934</ele>
        <time>2021-11-19T21:48:05.277Z</time>
      </trkpt>
      <trkpt lat="47.549318" lon="7.879398">
        <ele>372.035777</ele>
        <time>2021-11-19T21:48:06.904Z</time>
      </trkpt>
      <trkpt lat="47.549327" lon="7.879547">
        <ele>371.624577</ele>
        <time>2021-11-19T21:48:07.891Z</time>
      </trkpt>
      <trkpt lat="47.549726" lon="7.880786">
        <ele>368.024815</ele>
        <time>2021-11-19T21:48:16.825Z</time>
      </trkpt>
      <trkpt lat="47.549927" lon="7.881490">
        <ele>366.133072</ele>
        <time>2021-11-19T21:48:21.857Z</time>
      </trkpt>
      <trkpt lat="47.550234" lon="7.883221">
        <ele>361.518305</ele>
        <time>2021-11-19T21:48:34.258Z</time>
      </trkpt>
      <trkpt lat="47.550332" lon="7.884727">
        <ele>357.237997</ele>
        <time>2021-11-19T21:48:44.102Z</time>
      </trkpt>
      <trkpt lat="47.550391" lon="7.885109">
        <ele>356.129367</ele>
        <time>2021-11-19T21:48:46.635Z</time>
      </trkpt>
      <trkpt lat="47.550548" lon="7.885799">
        <ele>353.602729</ele>
        <time>2021-11-19T21:48:51.239Z</time>
      </trkpt>
      <trkpt lat="47.550677" lon="7.886476">
        <ele>350.944855</ele>
        <time>2021-11-19T21:48:55.669Z</time>
      </trkpt>
      <trkpt lat="47.550758" lon="7.887295">
        <ele>347.817409</ele>
        <time>2021-11-19T21:49:00.812Z</time>
      </trkpt>
      <trkpt lat="47.550789" lon="7.887816">
        <ele>345.841299</ele>
        <time>2021-11-19T21:49:04.043Z</time>
      </trkpt>
      <trkpt lat="47.550831" lon="7.888611">
        <ele>342.520258</ele>
        <time>2021-11-19T21:49:08.999Z</time>
      </trkpt>
      <trkpt lat="47.550833" lon="7.889069">
        <ele>340.581738</ele>
        <time>2021-11-19T21:49:11.809Z</time>
      </trkpt>
      <trkpt lat="47.550915" lon="7.890600">
        <ele>334.090649</ele>
        <time>2021-11-19T21:49:21.202Z</time>
      </trkpt>
      <trkpt lat="47.550904" lon="7.891725">
        <ele>330.752551</ele>
        <time>2021-11-19T21:49:28.206Z</time>
      </trkpt>
      <trkpt lat="47.550892" lon="7.893176">
        <ele>326.447274</ele>
        <time>2021-11-19T21:49:37.818Z</time>
      </trkpt>
      <trkpt lat="47.550908" lon="7.894308">
        <ele>325.263909</ele>
        <time>2021-11-19T21:49:47.023Z</time>
      </trkpt>
      <trkpt lat="47.550878" lon="7.895158">
        <ele>324.501033</ele>
        <time>2021-11-19T21:49:54.208Z</time>
      </trkpt>
      <trkpt lat="47.550838" lon="7.895509">
        <ele>324.181987</ele>
        <time>2021-11-19T21:49:57.372Z</time>
      </trkpt>
      <trkpt lat="47.550660" lon="7.896255">
        <ele>323.163864</ele>
        <time>2021-11-19T21:50:03.861Z</time>
      </trkpt>
      <trkpt lat="47.550639" lon="7.896345">
        <ele>323.001961</ele>
        <time>2021-11-19T21:50:05.048Z</time>
      </trkpt>
      <trkpt lat="47.550648" lon="7.896481">
        <ele>322.769626</ele>
        <time>2021-11-19T21:50:06.003Z</time>
      </trkpt>
      <trkpt lat="47.550819" lon="7.898109">
        <ele>319.968406</ele>
        <time>2021-11-19T21:50:17.751Z</time>
      </trkpt>
      <trkpt lat="47.550801" lon="7.900244">
        <ele>314.316189</ele>
        <time>2021-11-19T21:50:31.589Z</time>
      </trkpt>
      <trkpt lat="47.550769" lon="7.901362">
        <ele>311.181277</ele>
        <time>2021-11-19T21:50:38.860Z</time>
      </trkpt>
      <trkpt lat="47.550757" lon="7.901591">
        <ele>310.611385</ele>
        <time>2021-11-19T21:50:40.996Z</time>
      </trkpt>
      <trkpt lat="47.550688" lon="7.902451">
        <ele>308.462578</ele>
        <time>2021-11-19T21:50:49.430Z</time>
      </trkpt>
      <trkpt lat="47.550498" lon="7.903445">
        <ele>305.899319</ele>
        <time>2021-11-19T21:50:59.681Z</time>
      </trkpt>
      <trkpt lat="47.550302" lon="7.904164">
        <ele>303.956229</ele>
        <time>2021-11-19T21:51:06.940Z</time>
      </trkpt>
      <trkpt lat="47.550025" lon="7.904774">
        <ele>302.099158</ele>
        <time>2021-11-19T21:51:13.865Z</time>
      </trkpt>
      <trkpt lat="47.549868" lon="7.905010">
        <ele>301.262152</ele>
        <time>2021-11-19T21:51:16.997Z</time>
      </trkpt>
      <trkpt lat="47.549867" lon="7.905155">
        <ele>300.895874</ele>
        <time>2021-11-19T21:51:18.394Z</time>
      </trkpt>
      <trkpt lat="47.550067" lon="7.905245">
        <ele>300.113632</ele>
        <time>2021-11-19T21:51:21.319Z</time>
      </trkpt>
      <trkpt lat="47.550283" lon="7.905413">
        <ele>299.200660</ele>
        <time>2021-11-19T21:51:24.769Z</time>
      </trkpt>
      <trkpt lat="47.550497" lon="7.905558">
        <ele>298.320012</ele>
        <time>2021-11-19T21:51:28.127Z</time>
      </trkpt>
      <trkpt lat="47.549539" lon="7.908625">
        <ele>293.179649</ele>
        <time>2021-11-19T21:51:52.583Z</time>
      </trkpt>
      <trkpt lat="47.549520" lon="7.908678">
        <ele>293.120305</ele>
        <time>2021-11-19T21:51:53.081Z</time>
      </trkpt>
      <trkpt lat="47.549339" lon="7.909277">
        <ele>292.471320</ele>
        <time>2021-11-19T21:51:58.411Z</time>
      </trkpt>
      <trkpt lat="47.549235" lon="7.909621">
        <ele>292.098581</ele>
        <time>2021-11-19T21:52:01.526Z</time>
      </trkpt>
      <trkpt lat="47.549195" lon="7.909756">
        <ele>291.952786</ele>
        <time>2021-11-19T21:52:02.698Z</time>
      </trkpt>
      <trkpt lat="47.549102" lon="7.910058">
        <ele>291.624530</ele>
        <time>2021-11-19T21:52:05.425Z</time>
      </trkpt>
      <trkpt lat="47.549012" lon="7.910340">
        <ele>291.316063</ele>
        <time>2021-11-19T21:52:07.921Z</time>
      </trkpt>
      <trkpt lat="47.548412" lon="7.912168">
        <ele>289.778598</ele>
        <time>2021-11-19T21:52:24.251Z</time>
      </trkpt>
      <trkpt lat="47.548027" lon="7.913334">
        <ele>289.090597</ele>
        <time>2021-11-19T21:52:35.012Z</time>
      </trkpt>
      <trkpt lat="47.547994" lon="7.913433">
        <ele>289.060560</ele>
        <time>2021-11-19T21:52:35.932Z</time>
      </trkpt>
      <trkpt lat="47.547423" lon="7.915080">
        <ele>288.556866</ele>
        <time>2021-11-19T21:52:53.409Z</time>
      </trkpt>
      <trkpt lat="47.547113" lon="7.915971">
        <ele>288.765286</ele>
        <time>2021-11-19T21:53:03.856Z</time>
      </trkpt>
      <trkpt lat="47.547091" lon="7.916039">
        <ele>288.785359</ele>
        <time>2021-11-19T21:53:04.880Z</time>
      </trkpt>
      <trkpt lat="47.547032" lon="7.916218">
        <ele>288.838384</ele>
        <time>2021-11-19T21:53:07.083Z</time>
      </trkpt>
      <trkpt lat="47.546821" lon="7.916867">
        <ele>289.030137</ele>
        <time>2021-11-19T21:53:15.192Z</time>
      </trkpt>
      <trkpt lat="47.546262" lon="7.919081">
        <ele>289.671931</ele>
        <time>2021-11-19T21:53:42.704Z</time>
      </trkpt>
      <trkpt lat="47.546128" lon="7.919617">
        <ele>289.828605</ele>
        <time>2021-11-19T21:53:48.172Z</time>
      </trkpt>
      <trkpt lat="47.545973" lon="7.920313">
        <ele>290.138215</ele>
        <time>2021-11-19T21:53:56.635Z</time>
      </trkpt>
      <trkpt lat="47.545913" lon="7.920765">
        <ele>290.484368</ele>
        <time>2021-11-19T21:54:00.809Z</time>
      </trkpt>
      <trkpt lat="47.545881" lon="7.921096">
        <ele>290.735630</ele>
        <time>2021-11-19T21:54:04.825Z</time>
      </trkpt>
      <trkpt lat="47.545810" lon="7.921755">
        <ele>291.237093</ele>
        <time>2021-11-19T21:54:13.734Z</time>
      </trkpt>
      <trkpt lat="47.545778" lon="7.921947">
        <ele>291.385702</ele>
        <time>2021-11-19T21:54:17.343Z</time>
      </trkpt>
      <trkpt lat="47.545714" lon="7.922249">
        <ele>291.623557</ele>
        <time>2021-11-19T21:54:20.541Z</time>
      </trkpt>
      <trkpt lat="47.545699" lon="7.922325">
        <ele>291.683057</ele>
        <time>2021-11-19T21:54:21.739Z</time>
      </trkpt>
      <trkpt lat="47.545690" lon="7.922369">
        <ele>291.717605</ele>
        <time>2021-11-19T21:54:23.837Z</time>
      </trkpt>
      <trkpt lat="47.545641" lon="7.922610">
        <ele>291.906738</ele>
        <time>2021-11-19T21:54:26.191Z</time>
      </trkpt>
      <trkpt lat="47.545587" lon="7.922895">
        <ele>292.457838</ele>
        <time>2021-11-19T21:54:31.987Z</time>
      </trkpt>
      <trkpt lat="47.545553" lon="7.923142">
        <ele>293.036869</ele>
        <time>2021-11-19T21:54:34.634Z</time>
      </trkpt>
      <trkpt lat="47.545536" lon="7.923407">
        <ele>293.648312</ele>
        <time>2021-11-19T21:54:40.524Z</time>
      </trkpt>
      <trkpt lat="47.545521" lon="7.923709">
        <ele>294.343876</ele>
        <time>2021-11-19T21:54:44.677Z</time>
      </trkpt>
      <trkpt lat="47.545481" lon="7.924396">
        <ele>295.927763</ele>
        <time>2021-11-19T21:54:59.280Z</time>
      </trkpt>
      <trkpt lat="47.545466" lon="7.924880">
        <ele>297.040675</ele>
        <time>2021-11-19T21:55:10.587Z</time>
      </trkpt>
      <trkpt lat="47.545446" lon="7.925350">
        <ele>298.114753</ele>
        <time>2021-11-19T21:55:20.962Z</time>
      </trkpt>
      <trkpt lat="47.545417" lon="7.925848">
        <ele>298.991794</ele>
        <time>2021-11-19T21:55:31.441Z</time>
      </trkpt>
      <trkpt lat="47.545409" lon="7.926773">
        <ele>300.614940</ele>
        <time>2021-11-19T21:55:48.642Z</time>
      </trkpt>
      <trkpt lat="47.545407" lon="7.927001">
        <ele>301.015025</ele>
        <time>2021-11-19T21:55:52.451Z</time>
      </trkpt>
      <trkpt lat="47.545406" lon="7.927306">
        <ele>301.550187</ele>
        <time>2021-11-19T21:55:57.055Z</time>
      </trkpt>
      <trkpt lat="47.545421" lon="7.927686">
        <ele>302.218078</ele>
        <time>2021-11-19T21:56:02.591Z</time>
      </trkpt>
      <trkpt lat="47.545475" lon="7.928419">
        <ele>302.433778</ele>
        <time>2021-11-19T21:56:11.908Z</time>
      </trkpt>
      <trkpt lat="47.545563" lon="7.929641">
        <ele>301.475783</ele>
        <time>2021-11-19T21:56:21.788Z</time>
      </trkpt>
      <trkpt lat="47.545661" lon="7.930955">
        <ele>300.388516</ele>
        <time>2021-11-19T21:56:31.184Z</time>
      </trkpt>
      <trkpt lat="47.545696" lon="7.931497">
        <ele>299.864989</ele>
        <time>2021-11-19T21:56:35.152Z</time>
      </trkpt>
      <trkpt lat="47.545721" lon="7.931992">
        <ele>299.387702</ele>
        <time>2021-11-19T21:56:38.945Z</time>
      </trkpt>
      <trkpt lat="47.545724" lon="7.932758">
        <ele>298.651161</ele>
        <time>2021-11-19T21:56:45.154Z</time>
      </trkpt>
      <trkpt lat="47.545702" lon="7.933290">
        <ele>298.138669</ele>
        <time>2021-11-19T21:56:49.797Z</time>
      </trkpt>
      <trkpt lat="47.545674" lon="7.933625">
        <ele>298.295916</ele>
        <time>2021-11-19T21:56:52.998Z</time>
      </trkpt>
      <trkpt lat="47.545457" lon="7.935110">
        <ele>299.091089</ele>
        <time>2021-11-19T21:57:11.133Z</time>
      </trkpt>
      <trkpt lat="47.545074" lon="7.936484">
        <ele>300.294985</ele>
        <time>2021-11-19T21:57:32.660Z</time>
      </trkpt>
      <trkpt lat="47.544903" lon="7.936917">
        <ele>300.878451</ele>
        <time>2021-11-19T21:57:39.976Z</time>
      </trkpt>
      <trkpt lat="47.544705" lon="7.937395">
        <ele>301.530730</ele>
        <time>2021-11-19T21:57:48.160Z</time>
      </trkpt>
      <trkpt lat="47.544472" lon="7.937932">
        <ele>302.273201</ele>
        <time>2021-11-19T21:57:57.568Z</time>
      </trkpt>
      <trkpt lat="47.543826" lon="7.939433">
        <ele>304.348426</ele>
        <time>2021-11-19T21:58:24.449Z</time>
      </trkpt>
      <trkpt lat="47.543435" lon="7.940670">
        <ele>305.815509</ele>
        <time>2021-11-19T21:58:44.410Z</time>
      </trkpt>
      <trkpt lat="47.543161" lon="7.942213">
        <ele>306.580946</ele>
        <time>2021-11-19T21:59:05.259Z</time>
      </trkpt>
      <trkpt lat="47.543007" lon="7.943867">
        <ele>306.340659</ele>
        <time>2021-11-19T21:59:20.803Z</time>
      </trkpt>
      <trkpt lat="47.542913" lon="7.945267">
        <ele>305.147318</ele>
        <time>2021-11-19T21:59:31.710Z</time>
      </trkpt>
      <trkpt lat="47.542872" lon="7.945781">
        <ele>304.696270</ele>
        <time>2021-11-19T21:59:35.526Z</time>
      </trkpt>
      <trkpt lat="47.542875" lon="7.946089">
        <ele>304.350944</ele>
        <time>2021-11-19T21:59:37.760Z</time>
      </trkpt>
      <trkpt lat="47.542902" lon="7.946514">
        <ele>303.872384</ele>
        <time>2021-11-19T21:59:40.855Z</time>
      </trkpt>
      <trkpt lat="47.542943" lon="7.946806">
        <ele>303.538025</ele>
        <time>2021-11-19T21:59:43.065Z</time>
      </trkpt>
      <trkpt lat="47.542974" lon="7.946965">
        <ele>303.352489</ele>
        <time>2021-11-19T21:59:44.373Z</time>
      </trkpt>
      <trkpt lat="47.542979" lon="7.946989">
        <ele>303.324332</ele>
        <time>2021-11-19T21:59:44.530Z</time>
      </trkpt>
      <trkpt lat="47.542989" lon="7.947104">
        <ele>303.194343</ele>
        <time>2021-11-19T21:59:45.401Z</time>
      </trkpt>
      <trkpt lat="47.542984" lon="7.947304">
        <ele>302.969976</ele>
        <time>2021-11-19T21:59:46.976Z</time>
      </trkpt>
      <trkpt lat="47.542979" lon="7.947370">
        <ele>302.895521</ele>
        <time>2021-11-19T21:59:47.477Z</time>
      </trkpt>
      <trkpt lat="47.542935" lon="7.947564">
        <ele>302.666086</ele>
        <time>2021-11-19T21:59:49.044Z</time>
      </trkpt>
      <trkpt lat="47.542892" lon="7.947789">
        <ele>302.403931</ele>
        <time>2021-11-19T21:59:50.962Z</time>
      </trkpt>
      <trkpt lat="47.542875" lon="7.948001">
        <ele>302.164593</ele>
        <time>2021-11-19T21:59:52.778Z</time>
      </trkpt>
      <trkpt lat="47.542838" lon="7.948225">
        <ele>301.906065</ele>
        <time>2021-11-19T21:59:54.563Z</time>
      </trkpt>
      <trkpt lat="47.542826" lon="7.948298">
        <ele>301.821835</ele>
        <time>2021-11-19T21:59:55.184Z</time>
      </trkpt>
      <trkpt lat="47.542719" lon="7.949175">
        <ele>301.442404</ele>
        <time>2021-11-19T22:00:02.409Z</time>
      </trkpt>
      <trkpt lat="47.542609" lon="7.949914">
        <ele>301.155750</ele>
        <time>2021-11-19T22:00:09.184Z</time>
      </trkpt>
      <trkpt lat="47.542560" lon="7.950202">
        <ele>301.043246</ele>
        <time>2021-11-19T22:00:12.052Z</time>
      </trkpt>
      <trkpt lat="47.542554" lon="7.950231">
        <ele>301.031756</ele>
        <time>2021-11-19T22:00:12.326Z</time>
      </trkpt>
      <trkpt lat="47.542546" lon="7.950274">
        <ele>301.014861</ele>
        <time>2021-11-19T22:00:12.732Z</time>
      </trkpt>
      <trkpt lat="47.542444" lon="7.950687">
        <ele>300.848277</ele>
        <time>2021-11-19T22:00:17.195Z</time>
      </trkpt>
      <trkpt lat="47.542357" lon="7.951037">
        <ele>300.729839</ele>
        <time>2021-11-19T22:00:20.839Z</time>
      </trkpt>
      <trkpt lat="47.542192" lon="7.951713">
        <ele>300.604450</ele>
        <time>2021-11-19T22:00:27.787Z</time>
      </trkpt>
      <trkpt lat="47.542169" lon="7.951815">
        <ele>300.585692</ele>
        <time>2021-11-19T22:00:28.714Z</time>
      </trkpt>
      <trkpt lat="47.541991" lon="7.952667">
        <ele>300.430118</ele>
        <time>2021-11-19T22:00:36.995Z</time>
      </trkpt>
      <trkpt lat="47.541791" lon="7.953601">
        <ele>300.339672</ele>
        <time>2021-11-19T22:00:46.046Z</time>
      </trkpt>
      <trkpt lat="47.541773" lon="7.953695">
        <ele>300.376699</ele>
        <time>2021-11-19T22:00:46.983Z</time>
      </trkpt>
      <trkpt lat="47.541735" lon="7.953892">
        <ele>300.454341</ele>
        <time>2021-11-19T22:00:48.865Z</time>
      </trkpt>
      <trkpt lat="47.541660" lon="7.954250">
        <ele>300.596391</ele>
        <time>2021-11-19T22:00:52.624Z</time>
      </trkpt>
      <trkpt lat="47.541530" lon="7.954936">
        <ele>300.866404</ele>
        <time>2021-11-19T22:00:59.845Z</time>
      </trkpt>
      <trkpt lat="47.541482" lon="7.955294">
        <ele>301.004721</ele>
        <time>2021-11-19T22:01:03.894Z</time>
      </trkpt>
      <trkpt lat="47.541465" lon="7.955512">
        <ele>301.087884</ele>
        <time>2021-11-19T22:01:06.229Z</time>
      </trkpt>
      <trkpt lat="47.541442" lon="7.955866">
        <ele>301.222655</ele>
        <time>2021-11-19T22:01:11.521Z</time>
      </trkpt>
      <trkpt lat="47.541410" lon="7.956569">
        <ele>302.324554</ele>
        <time>2021-11-19T22:01:22.822Z</time>
      </trkpt>
      <trkpt lat="47.541404" lon="7.956677">
        <ele>302.541086</ele>
        <time>2021-11-19T22:01:24.927Z</time>
      </trkpt>
      <trkpt lat="47.541280" lon="7.957569">
        <ele>304.360849</ele>
        <time>2021-11-19T22:01:40.575Z</time>
      </trkpt>
      <trkpt lat="47.541237" lon="7.957756">
        <ele>304.755590</ele>
        <time>2021-11-19T22:01:44.923Z</time>
      </trkpt>
      <trkpt lat="47.541141" lon="7.958127">
        <ele>305.549507</ele>
        <time>2021-11-19T22:01:52.474Z</time>
      </trkpt>
      <trkpt lat="47.540957" lon="7.959132">
        <ele>307.722612</ele>
        <time>2021-11-19T22:02:13.917Z</time>
      </trkpt>
      <trkpt lat="47.540954" lon="7.959705">
        <ele>308.972139</ele>
        <time>2021-11-19T22:02:25.344Z</time>
      </trkpt>
      <trkpt lat="47.540979" lon="7.959950">
        <ele>309.512457</ele>
        <time>2021-11-19T22:02:30.794Z</time>
      </trkpt>
      <trkpt lat="47.541002" lon="7.960092">
        <ele>309.830892</ele>
        <time>2021-11-19T22:02:33.388Z</time>
      </trkpt>
      <trkpt lat="47.541060" lon="7.960321">
        <ele>310.364241</ele>
        <time>2021-11-19T22:02:38.110Z</time>
      </trkpt>
      <trkpt lat="47.541153" lon="7.960814">
        <ele>311.480463</ele>
        <time>2021-11-19T22:02:46.679Z</time>
      </trkpt>
      <trkpt lat="47.541242" lon="7.961294">
        <ele>312.507405</ele>
        <time>2021-11-19T22:02:54.637Z</time>
      </trkpt>
      <trkpt lat="47.541316" lon="7.962197">
        <ele>313.647750</ele>
        <time>2021-11-19T22:03:09.264Z</time>
      </trkpt>
      <trkpt lat="47.541314" lon="7.962377">
        <ele>313.873436</ele>
        <time>2021-11-19T22:03:12.093Z</time>
      </trkpt>
      <trkpt lat="47.541308" lon="7.962513">
        <ele>314.044294</ele>
        <time>2021-11-19T22:03:13.955Z</time>
      </trkpt>
      <trkpt lat="47.541293" lon="7.962730">
        <ele>314.317756</ele>
        <time>2021-11-19T22:03:16.818Z</time>
      </trkpt>
      <trkpt lat="47.541258" lon="7.962975">
        <ele>314.631699</ele>
        <time>2021-11-19T22:03:20.719Z</time>
      </trkpt>
      <trkpt lat="47.541217" lon="7.963187">
        <ele>314.908162</ele>
        <time>2021-11-19T22:03:23.508Z</time>
      </trkpt>
      <trkpt lat="47.541123" lon="7.963520">
        <ele>315.360653</ele>
        <time>2021-11-19T22:03:28.743Z</time>
      </trkpt>
      <trkpt lat="47.541019" lon="7.963815">
        <ele>315.775933</ele>
        <time>2021-11-19T22:03:33.379Z</time>
      </trkpt>
      <trkpt lat="47.540959" lon="7.963916">
        <ele>315.909716</ele>
        <time>2021-11-19T22:03:35.666Z</time>
      </trkpt>
      <trkpt lat="47.540467" lon="7.964759">
        <ele>317.017827</ele>
        <time>2021-11-19T22:03:51.391Z</time>
      </trkpt>
      <trkpt lat="47.540257" lon="7.965417">
        <ele>317.741572</ele>
        <time>2021-11-19T22:04:01.327Z</time>
      </trkpt>
      <trkpt lat="47.540200" lon="7.965632">
        <ele>317.971262</ele>
        <time>2021-11-19T22:04:04.780Z</time>
      </trkpt>
      <trkpt lat="47.540100" lon="7.966046">
        <ele>318.408500</ele>
        <time>2021-11-19T22:04:10.669Z</time>
      </trkpt>
      <trkpt lat="47.539909" lon="7.966784">
        <ele>319.319652</ele>
        <time>2021-11-19T22:04:21.365Z</time>
      </trkpt>
      <trkpt lat="47.539680" lon="7.967625">
        <ele>320.366807</ele>
        <time>2021-11-19T22:04:34.787Z</time>
      </trkpt>
      <trkpt lat="47.539403" lon="7.968640">
        <ele>321.679420</ele>
        <time>2021-11-19T22:04:51.249Z</time>
      </trkpt>
      <trkpt lat="47.539248" lon="7.969246">
        <ele>322.693134</ele>
        <time>2021-11-19T22:05:01.540Z</time>
      </trkpt>
      <trkpt lat="47.539144" lon="7.969781">
        <ele>323.564033</ele>
        <time>2021-11-19T22:05:10.653Z</time>
      </trkpt>
      <trkpt lat="47.539052" lon="7.970439">
        <ele>324.615180</ele>
        <time>2021-11-19T22:05:21.969Z</time>
      </trkpt>
      <trkpt lat="47.538935" lon="7.971210">
        <ele>325.844495</ele>
        <time>2021-11-19T22:05:35.261Z</time>
      </trkpt>
      <trkpt lat="47.538858" lon="7.971696">
        <ele>326.597104</ele>
        <time>2021-11-19T22:05:43.303Z</time>
      </trkpt>
      <trkpt lat="47.538687" lon="7.972850">
        <ele>328.378315</ele>
        <time>2021-11-19T22:06:02.067Z</time>
      </trkpt>
      <trkpt lat="47.538490" lon="7.973699">
        <ele>329.737413</ele>
        <time>2021-11-19T22:06:16.288Z</time>
      </trkpt>
      <trkpt lat="47.538402" lon="7.973943">
        <ele>330.198994</ele>
        <time>2021-11-19T22:06:20.787Z</time>
      </trkpt>
      <trkpt lat="47.538106" lon="7.974772">
        <ele>331.763777</ele>
        <time>2021-11-19T22:06:35.836Z</time>
      </trkpt>
      <trkpt lat="47.537896" lon="7.975317">
        <ele>332.810839</ele>
        <time>2021-11-19T22:06:46.113Z</time>
      </trkpt>
      <trkpt lat="47.536866" lon="7.977996">
        <ele>338.224446</ele>
        <time>2021-11-19T22:07:40.917Z</time>
      </trkpt>
      <trkpt lat="47.536460" lon="7.979083">
        <ele>339.174010</ele>
        <time>2021-11-19T22:08:00.003Z</time>
      </trkpt>
      <trkpt lat="47.536403" lon="7.979241">
        <ele>339.233747</ele>
        <time>2021-11-19T22:08:02.365Z</time>
      </trkpt>
      <trkpt lat="47.536340" lon="7.979418">
        <ele>339.300469</ele>
        <time>2021-11-19T22:08:04.978Z</time>
      </trkpt>
      <trkpt lat="47.536061" lon="7.980200">
        <ele>339.595406</ele>
        <time>2021-11-19T22:08:13.789Z</time>
      </trkpt>
      <trkpt lat="47.535599" lon="7.981498">
        <ele>338.495003</ele>
        <time>2021-11-19T22:08:25.058Z</time>
      </trkpt>
      <trkpt lat="47.535452" lon="7.981933">
        <ele>337.835062</ele>
        <time>2021-11-19T22:08:28.504Z</time>
      </trkpt>
      <trkpt lat="47.535345" lon="7.982248">
        <ele>337.356676</ele>
        <time>2021-11-19T22:08:31.000Z</time>
      </trkpt>
      <trkpt lat="47.535328" lon="7.982298">
        <ele>337.280727</ele>
        <time>2021-11-19T22:08:31.398Z</time>
      </trkpt>
      <trkpt lat="47.535300" lon="7.982379">
        <ele>337.157272</ele>
        <time>2021-11-19T22:08:32.063Z</time>
      </trkpt>
      <trkpt lat="47.535231" lon="7.982582">
        <ele>336.848937</ele>
        <time>2021-11-19T22:08:33.693Z</time>
      </trkpt>
      <trkpt lat="47.534817" lon="7.983835">
        <ele>335.352462</ele>
        <time>2021-11-19T22:08:43.989Z</time>
      </trkpt>
      <trkpt lat="47.534722" lon="7.984096">
        <ele>335.082922</ele>
        <time>2021-11-19T22:08:46.372Z</time>
      </trkpt>
      <trkpt lat="47.534320" lon="7.984882">
        <ele>334.186554</ele>
        <time>2021-11-19T22:08:54.851Z</time>
      </trkpt>
      <trkpt lat="47.534197" lon="7.985105">
        <ele>333.924790</ele>
        <time>2021-11-19T22:08:57.466Z</time>
      </trkpt>
      <trkpt lat="47.533975" lon="7.985526">
        <ele>333.230855</ele>
        <time>2021-11-19T22:09:01.809Z</time>
      </trkpt>
      <trkpt lat="47.533546" lon="7.986336">
        <ele>331.635973</ele>
        <time>2021-11-19T22:09:09.592Z</time>
      </trkpt>
      <trkpt lat="47.533208" lon="7.986980">
        <ele>330.372288</ele>
        <time>2021-11-19T22:09:15.367Z</time>
      </trkpt>
      <trkpt lat="47.533114" lon="7.987128">
        <ele>330.057497</ele>
        <time>2021-11-19T22:09:16.784Z</time>
      </trkpt>
      <trkpt lat="47.533142" lon="7.987165">
        <ele>329.971395</ele>
        <time>2021-11-19T22:09:17.122Z</time>
      </trkpt>
      <trkpt lat="47.533195" lon="7.987215">
        <ele>329.827208</ele>
        <time>2021-11-19T22:09:17.802Z</time>
      </trkpt>
      <trkpt lat="47.533247" lon="7.987248">
        <ele>329.697398</ele>
        <time>2021-11-19T22:09:18.346Z</time>
      </trkpt>
      <trkpt lat="47.533509" lon="7.987411">
        <ele>328.600397</ele>
        <time>2021-11-19T22:09:21.134Z</time>
      </trkpt>
      <trkpt lat="47.533728" lon="7.987557">
        <ele>327.613474</ele>
        <time>2021-11-19T22:09:23.478Z</time>
      </trkpt>
      <trkpt lat="47.534072" lon="7.987749">
        <ele>326.102797</ele>
        <time>2021-11-19T22:09:27.017Z</time>
      </trkpt>
      <trkpt lat="47.534280" lon="7.987862">
        <ele>325.192356</ele>
        <time>2021-11-19T22:09:29.122Z</time>
      </trkpt>
      <trkpt lat="47.534363" lon="7.987895">
        <ele>324.839200</ele>
        <time>2021-11-19T22:09:29.950Z</time>
      </trkpt>
      <trkpt lat="47.534795" lon="7.988078">
        <ele>322.992756</ele>
        <time>2021-11-19T22:09:34.249Z</time>
      </trkpt>
      <trkpt lat="47.534985" lon="7.988144">
        <ele>322.197628</ele>
        <time>2021-11-19T22:09:36.141Z</time>
      </trkpt>
      <trkpt lat="47.535196" lon="7.988134">
        <ele>321.560779</ele>
        <time>2021-11-19T22:09:38.259Z</time>
      </trkpt>
      <trkpt lat="47.535393" lon="7.988043">
        <ele>320.938259</ele>
        <time>2021-11-19T22:09:40.329Z</time>
      </trkpt>
      <trkpt lat="47.535735" lon="7.987639">
        <ele>319.618617</ele>
        <time>2021-11-19T22:09:44.784Z</time>
      </trkpt>
      <trkpt lat="47.535862" lon="7.987408">
        <ele>319.011886</ele>
        <time>2021-11-19T22:09:46.822Z</time>
      </trkpt>
      <trkpt lat="47.535935" lon="7.987272">
        <ele>318.658025</ele>
        <time>2021-11-19T22:09:48.060Z</time>
      </trkpt>
      <trkpt lat="47.536140" lon="7.986963">
        <ele>317.775699</ele>
        <time>2021-11-19T22:09:51.056Z</time>
      </trkpt>
      <trkpt lat="47.536465" lon="7.986660">
        <ele>316.724312</ele>
        <time>2021-11-19T22:09:55.230Z</time>
      </trkpt>
      <trkpt lat="47.536685" lon="7.986543">
        <ele>316.454804</ele>
        <time>2021-11-19T22:09:57.787Z</time>
      </trkpt>
      <trkpt lat="47.536796" lon="7.986519">
        <ele>316.325467</ele>
        <time>2021-11-19T22:09:59.027Z</time>
      </trkpt>
      <trkpt lat="47.537167" lon="7.986470">
        <ele>315.896017</ele>
        <time>2021-11-19T22:10:03.486Z</time>
      </trkpt>
      <trkpt lat="47.537409" lon="7.986449">
        <ele>315.616518</ele>
        <time>2021-11-19T22:10:06.491Z</time>
      </trkpt>
      <trkpt lat="47.537821" lon="7.986433">
        <ele>315.141330</ele>
        <time>2021-11-19T22:10:11.597Z</time>
      </trkpt>
      <trkpt lat="47.537897" lon="7.986428">
        <ele>315.053617</ele>
        <time>2021-11-19T22:10:12.762Z</time>
      </trkpt>
      <trkpt lat="47.538277" lon="7.986431">
        <ele>314.722823</ele>
        <time>2021-11-19T22:10:17.510Z</time>
      </trkpt>
      <trkpt lat="47.538514" lon="7.986428">
        <ele>314.739157</ele>
        <time>2021-11-19T22:10:20.639Z</time>
      </trkpt>
      <trkpt lat="47.538630" lon="7.986438">
        <ele>314.747166</ele>
        <time>2021-11-19T22:10:22.817Z</time>
      </trkpt>
      <trkpt lat="47.539274" lon="7.986488">
        <ele>314.791610</ele>
        <time>2021-11-19T22:10:33.074Z</time>
      </trkpt>
      <trkpt lat="47.539415" lon="7.986507">
        <ele>314.801368</ele>
        <time>2021-11-19T22:10:35.795Z</time>
      </trkpt>
      <trkpt lat="47.539549" lon="7.986535">
        <ele>314.810695</ele>
        <time>2021-11-19T22:10:37.850Z</time>
      </trkpt>
      <trkpt lat="47.539952" lon="7.986630">
        <ele>314.838819</ele>
        <time>2021-11-19T22:10:44.502Z</time>
      </trkpt>
      <trkpt lat="47.540347" lon="7.986737">
        <ele>314.717327</ele>
        <time>2021-11-19T22:10:50.196Z</time>
      </trkpt>
      <trkpt lat="47.540335" lon="7.986933">
        <ele>314.673470</ele>
        <time>2021-11-19T22:10:52.034Z</time>
      </trkpt>
      <trkpt lat="47.540321" lon="7.987087">
        <ele>314.638842</ele>
        <time>2021-11-19T22:10:53.358Z</time>
      </trkpt>
      <trkpt lat="47.539978" lon="7.988189">
        <ele>314.368420</ele>
        <time>2021-11-19T22:11:04.544Z</time>
      </trkpt>
      <trkpt lat="47.539990" lon="7.989097">
        <ele>314.126228</ele>
        <time>2021-11-19T22:11:12.380Z</time>
      </trkpt>
      <trkpt lat="47.540011" lon="7.990131">
        <ele>313.782332</ele>
        <time>2021-11-19T22:11:21.477Z</time>
      </trkpt>
      <trkpt lat="47.540018" lon="7.990553">
        <ele>313.642001</ele>
        <time>2021-11-19T22:11:25.228Z</time>
      </trkpt>
      <trkpt lat="47.540056" lon="7.990982">
        <ele>313.498163</ele>
        <time>2021-11-19T22:11:29.144Z</time>
      </trkpt>
      <trkpt lat="47.540104" lon="7.991287">
        <ele>313.394051</ele>
        <time>2021-11-19T22:11:32.032Z</time>
      </trkpt>
      <trkpt lat="47.540140" lon="7.991504">
        <ele>313.392934</ele>
        <time>2021-11-19T22:11:48.648Z</time>
      </trkpt>
      <trkpt lat="47.540194" lon="7.991768">
        <ele>313.462965</ele>
        <time>2021-11-19T22:11:51.284Z</time>
      </trkpt>
      <trkpt lat="47.540262" lon="7.992244">
        <ele>313.586484</ele>
        <time>2021-11-19T22:11:56.080Z</time>
      </trkpt>
      <trkpt lat="47.540316" lon="7.993620">
        <ele>313.936399</ele>
        <time>2021-11-19T22:12:11.903Z</time>
      </trkpt>
      <trkpt lat="47.540089" lon="7.994896">
        <ele>315.281716</ele>
        <time>2021-11-19T22:12:28.628Z</time>
      </trkpt>
      <trkpt lat="47.540013" lon="7.995140">
        <ele>315.644813</ele>
        <time>2021-11-19T22:12:32.555Z</time>
      </trkpt>
      <trkpt lat="47.539876" lon="7.995796">
        <ele>316.572654</ele>
        <time>2021-11-19T22:12:42.181Z</time>
      </trkpt>
      <trkpt lat="47.539838" lon="7.996117">
        <ele>317.013011</ele>
        <time>2021-11-19T22:12:47.918Z</time>
      </trkpt>
      <trkpt lat="47.539726" lon="7.997265">
        <ele>320.259611</ele>
        <time>2021-11-19T22:13:12.068Z</time>
      </trkpt>
      <trkpt lat="47.539590" lon="7.998122">
        <ele>323.568528</ele>
        <time>2021-11-19T22:13:32.103Z</time>
      </trkpt>
      <trkpt lat="47.539569" lon="7.998315">
        <ele>324.303300</ele>
        <time>2021-11-19T22:13:37.795Z</time>
      </trkpt>
      <trkpt lat="47.539365" lon="8.001150">
        <ele>337.438793</ele>
        <time>2021-11-19T22:15:04.496Z</time>
      </trkpt>
      <trkpt lat="47.539400" lon="8.001871">
        <ele>341.012135</ele>
        <time>2021-11-19T22:15:26.472Z</time>
      </trkpt>
      <trkpt lat="47.539437" lon="8.002525">
        <ele>343.027382</ele>
        <time>2021-11-19T22:15:44.942Z</time>
      </trkpt>
      <trkpt lat="47.539437" lon="8.002963">
        <ele>344.372327</ele>
        <time>2021-11-19T22:15:55.939Z</time>
      </trkpt>
      <trkpt lat="47.539434" lon="8.003156">
        <ele>344.965120</ele>
        <time>2021-11-19T22:16:00.620Z</time>
      </trkpt>
      <trkpt lat="47.539492" lon="8.004516">
        <ele>349.136284</ele>
        <time>2021-11-19T22:16:27.494Z</time>
      </trkpt>
      <trkpt lat="47.539590" lon="8.005890">
        <ele>349.207423</ele>
        <time>2021-11-19T22:16:42.028Z</time>
      </trkpt>
      <trkpt lat="47.539569" lon="8.007914">
        <ele>349.275500</ele>
        <time>2021-11-19T22:16:58.802Z</time>
      </trkpt>
      <trkpt lat="47.539645" lon="8.009866">
        <ele>349.310612</ele>
        <time>2021-11-19T22:17:19.631Z</time>
      </trkpt>
      <trkpt lat="47.539703" lon="8.011107">
        <ele>350.299995</ele>
        <time>2021-11-19T22:17:36.243Z</time>
      </trkpt>
      <trkpt lat="47.539798" lon="8.012369">
        <ele>351.309938</ele>
        <time>2021-11-19T22:17:54.705Z</time>
      </trkpt>
      <trkpt lat="47.539903" lon="8.015200">
        <ele>352.392752</ele>
        <time>2021-11-19T22:18:28.819Z</time>
      </trkpt>
      <trkpt lat="47.539908" lon="8.015397">
        <ele>352.029760</ele>
        <time>2021-11-19T22:18:31.093Z</time>
      </trkpt>
      <trkpt lat="47.539918" lon="8.015722">
        <ele>351.430717</ele>
        <time>2021-11-19T22:18:33.595Z</time>
      </trkpt>
      <trkpt lat="47.539979" lon="8.017566">
        <ele>348.031291</ele>
        <time>2021-11-19T22:18:46.470Z</time>
      </trkpt>
      <trkpt lat="47.540012" lon="8.018657">
        <ele>343.685296</ele>
        <time>2021-11-19T22:18:53.207Z</time>
      </trkpt>
      <trkpt lat="47.540031" lon="8.019456">
        <ele>340.026160</ele>
        <time>2021-11-19T22:18:58.025Z</time>
      </trkpt>
      <trkpt lat="47.540052" lon="8.019825">
        <ele>338.331329</ele>
        <time>2021-11-19T22:19:00.249Z</time>
      </trkpt>
      <trkpt lat="47.540098" lon="8.020321">
        <ele>336.039913</ele>
        <time>2021-11-19T22:19:03.244Z</time>
      </trkpt>
      <trkpt lat="47.540134" lon="8.020585">
        <ele>334.879201</ele>
        <time>2021-11-19T22:19:04.839Z</time>
      </trkpt>
      <trkpt lat="47.540204" lon="8.020975">
        <ele>333.257253</ele>
        <time>2021-11-19T22:19:07.261Z</time>
      </trkpt>
      <trkpt lat="47.540354" lon="8.022332">
        <ele>327.730569</ele>
        <time>2021-11-19T22:19:15.707Z</time>
      </trkpt>
      <trkpt lat="47.540454" lon="8.023022">
        <ele>324.894140</ele>
        <time>2021-11-19T22:19:20.258Z</time>
      </trkpt>
      <trkpt lat="47.540537" lon="8.023536">
        <ele>324.039189</ele>
        <time>2021-11-19T22:19:23.872Z</time>
      </trkpt>
      <trkpt lat="47.540490" lon="8.024315">
        <ele>322.974429</ele>
        <time>2021-11-19T22:19:29.511Z</time>
      </trkpt>
      <trkpt lat="47.540408" lon="8.025334">
        <ele>321.577336</ele>
        <time>2021-11-19T22:19:37.704Z</time>
      </trkpt>
      <trkpt lat="47.540306" lon="8.026756">
        <ele>320.865263</ele>
        <time>2021-11-19T22:19:50.605Z</time>
      </trkpt>
      <trkpt lat="47.540273" lon="8.028579">
        <ele>320.613003</ele>
        <time>2021-11-19T22:20:08.474Z</time>
      </trkpt>
      <trkpt lat="47.540275" lon="8.029790">
        <ele>320.897627</ele>
        <time>2021-11-19T22:20:21.044Z</time>
      </trkpt>
      <trkpt lat="47.540324" lon="8.030594">
        <ele>321.087360</ele>
        <time>2021-11-19T22:20:30.045Z</time>
      </trkpt>
      <trkpt lat="47.540394" lon="8.031575">
        <ele>321.786548</ele>
        <time>2021-11-19T22:20:41.710Z</time>
      </trkpt>
      <trkpt lat="47.541006" lon="8.038351">
        <ele>330.726486</ele>
        <time>2021-11-19T22:22:22.439Z</time>
      </trkpt>
      <trkpt lat="47.541015" lon="8.038511">
        <ele>331.020166</ele>
        <time>2021-11-19T22:22:25.873Z</time>
      </trkpt>
      <trkpt lat="47.541029" lon="8.038776">
        <ele>331.506375</ele>
        <time>2021-11-19T22:22:33.003Z</time>
      </trkpt>
      <trkpt lat="47.540973" lon="8.039326">
        <ele>332.576356</ele>
        <time>2021-11-19T22:22:46.912Z</time>
      </trkpt>
      <trkpt lat="47.540755" lon="8.039911">
        <ele>333.891823</ele>
        <time>2021-11-19T22:23:02.414Z</time>
      </trkpt>
      <trkpt lat="47.540612" lon="8.040244">
        <ele>334.668777</ele>
        <time>2021-11-19T22:23:10.548Z</time>
      </trkpt>
      <trkpt lat="47.540564" lon="8.040358">
        <ele>334.933278</ele>
        <time>2021-11-19T22:23:12.468Z</time>
      </trkpt>
      <trkpt lat="47.540240" lon="8.040995">
        <ele>336.503416</ele>
        <time>2021-11-19T22:23:23.805Z</time>
      </trkpt>
      <trkpt lat="47.540116" lon="8.041253">
        <ele>337.068354</ele>
        <time>2021-11-19T22:23:27.288Z</time>
      </trkpt>
      <trkpt lat="47.540079" lon="8.041350">
        <ele>337.016189</ele>
        <time>2021-11-19T22:23:28.440Z</time>
      </trkpt>
      <trkpt lat="47.540031" lon="8.041477">
        <ele>336.948041</ele>
        <time>2021-11-19T22:23:29.637Z</time>
      </trkpt>
      <trkpt lat="47.539998" lon="8.041644">
        <ele>336.866569</ele>
        <time>2021-11-19T22:23:31.974Z</time>
      </trkpt>
      <trkpt lat="47.539983" lon="8.041866">
        <ele>336.762106</ele>
        <time>2021-11-19T22:23:35.319Z</time>
      </trkpt>
      <trkpt lat="47.539991" lon="8.042065">
        <ele>336.668767</ele>
        <time>2021-11-19T22:23:39.879Z</time>
      </trkpt>
      <trkpt lat="47.540021" lon="8.042268">
        <ele>336.571469</ele>
        <time>2021-11-19T22:23:45.008Z</time>
      </trkpt>
      <trkpt lat="47.540034" lon="8.042303">
        <ele>336.552764</ele>
        <time>2021-11-19T22:23:45.858Z</time>
      </trkpt>
      <trkpt lat="47.540072" lon="8.042391">
        <ele>336.503853</ele>
        <time>2021-11-19T22:23:48.165Z</time>
      </trkpt>
      <trkpt lat="47.540094" lon="8.042446">
        <ele>336.473921</ele>
        <time>2021-11-19T22:23:48.650Z</time>
      </trkpt>
      <trkpt lat="47.540115" lon="8.042499">
        <ele>336.445147</ele>
        <time>2021-11-19T22:23:49.067Z</time>
      </trkpt>
      <trkpt lat="47.540230" lon="8.042774">
        <ele>336.293686</ele>
        <time>2021-11-19T22:23:51.630Z</time>
      </trkpt>
      <trkpt lat="47.540311" lon="8.043099">
        <ele>336.131478</ele>
        <time>2021-11-19T22:23:54.395Z</time>
      </trkpt>
      <trkpt lat="47.540358" lon="8.043349">
        <ele>336.009972</ele>
        <time>2021-11-19T22:23:56.936Z</time>
      </trkpt>
      <trkpt lat="47.540392" lon="8.043542">
        <ele>335.916581</ele>
        <time>2021-11-19T22:23:58.312Z</time>
      </trkpt>
      <trkpt lat="47.540394" lon="8.043626">
        <ele>335.877227</ele>
        <time>2021-11-19T22:23:58.875Z</time>
      </trkpt>
      <trkpt lat="47.540360" lon="8.044061">
        <ele>336.255544</ele>
        <time>2021-11-19T22:24:02.309Z</time>
      </trkpt>
      <trkpt lat="47.540345" lon="8.044329">
        <ele>336.588920</ele>
        <time>2021-11-19T22:24:04.675Z</time>
      </trkpt>
      <trkpt lat="47.540316" lon="8.044416">
        <ele>336.709204</ele>
        <time>2021-11-19T22:24:06.304Z</time>
      </trkpt>
      <trkpt lat="47.540264" lon="8.044548">
        <ele>336.898666</ele>
        <time>2021-11-19T22:24:07.699Z</time>
      </trkpt>
      <trkpt lat="47.540222" lon="8.044636">
        <ele>337.032270</ele>
        <time>2021-11-19T22:24:08.643Z</time>
      </trkpt>
      <trkpt lat="47.540109" lon="8.044839">
        <ele>337.358447</ele>
        <time>2021-11-19T22:24:14.008Z</time>
      </trkpt>
      <trkpt lat="47.539890" lon="8.045243">
        <ele>338.000766</ele>
        <time>2021-11-19T22:24:23.510Z</time>
      </trkpt>
      <trkpt lat="47.539853" lon="8.045311">
        <ele>338.109039</ele>
        <time>2021-11-19T22:24:25.426Z</time>
      </trkpt>
      <trkpt lat="47.539726" lon="8.045544">
        <ele>338.480288</ele>
        <time>2021-11-19T22:24:29.708Z</time>
      </trkpt>
      <trkpt lat="47.539507" lon="8.045974">
        <ele>339.161012</ele>
        <time>2021-11-19T22:24:40.695Z</time>
      </trkpt>
      <trkpt lat="47.539443" lon="8.046124">
        <ele>339.601301</ele>
        <time>2021-11-19T22:24:46.669Z</time>
      </trkpt>
      <trkpt lat="47.539357" lon="8.046339">
        <ele>340.221380</ele>
        <time>2021-11-19T22:24:51.280Z</time>
      </trkpt>
      <trkpt lat="47.539305" lon="8.046463">
        <ele>340.583584</ele>
        <time>2021-11-19T22:24:55.202Z</time>
      </trkpt>
      <trkpt lat="47.539247" lon="8.046604">
        <ele>340.993270</ele>
        <time>2021-11-19T22:25:00.451Z</time>
      </trkpt>
      <trkpt lat="47.539156" lon="8.046798">
        <ele>341.579425</ele>
        <time>2021-11-19T22:25:04.802Z</time>
      </trkpt>
      <trkpt lat="47.539090" lon="8.046923">
        <ele>341.973179</ele>
        <time>2021-11-19T22:25:09.014Z</time>
      </trkpt>
      <trkpt lat="47.539057" lon="8.046985">
        <ele>342.169080</ele>
        <time>2021-11-19T22:25:11.701Z</time>
      </trkpt>
      <trkpt lat="47.538989" lon="8.047148">
        <ele>342.644518</ele>
        <time>2021-11-19T22:25:15.057Z</time>
      </trkpt>
      <trkpt lat="47.538968" lon="8.047404">
        <ele>343.284392</ele>
        <time>2021-11-19T22:25:20.200Z</time>
      </trkpt>
      <trkpt lat="47.538981" lon="8.047510">
        <ele>343.551710</ele>
        <time>2021-11-19T22:25:23.478Z</time>
      </trkpt>
      <trkpt lat="47.538991" lon="8.047594">
        <ele>343.763351</ele>
        <time>2021-11-19T22:25:25.254Z</time>
      </trkpt>
      <trkpt lat="47.539020" lon="8.047750">
        <ele>344.164835</ele>
        <time>2021-11-19T22:25:28.499Z</time>
      </trkpt>
      <trkpt lat="47.539031" lon="8.047867">
        <ele>344.457943</ele>
        <time>2021-11-19T22:25:31.535Z</time>
      </trkpt>
      <trkpt lat="47.539033" lon="8.048021">
        <ele>344.840127</ele>
        <time>2021-11-19T22:25:36.234Z</time>
      </trkpt>
      <trkpt lat="47.539026" lon="8.048166">
        <ele>345.200828</ele>
        <time>2021-11-19T22:25:39.429Z</time>
      </trkpt>
      <trkpt lat="47.539006" lon="8.048383">
        <ele>345.744255</ele>
        <time>2021-11-19T22:25:44.535Z</time>
      </trkpt>
      <trkpt lat="47.538982" lon="8.048678">
        <ele>346.295155</ele>
        <time>2021-11-19T22:25:51.968Z</time>
      </trkpt>
      <trkpt lat="47.538973" lon="8.048794">
        <ele>346.511472</ele>
        <time>2021-11-19T22:25:54.525Z</time>
      </trkpt>
      <trkpt lat="47.538944" lon="8.049341">
        <ele>347.527970</ele>
        <time>2021-11-19T22:26:06.732Z</time>
      </trkpt>
      <trkpt lat="47.538948" lon="8.049771">
        <ele>348.324668</ele>
        <time>2021-11-19T22:26:15.677Z</time>
      </trkpt>
      <trkpt lat="47.538953" lon="8.049910">
        <ele>348.582546</ele>
        <time>2021-11-19T22:26:18.632Z</time>
      </trkpt>
      <trkpt lat="47.538956" lon="8.050016">
        <ele>348.779095</ele>
        <time>2021-11-19T22:26:20.766Z</time>
      </trkpt>
      <trkpt lat="47.538984" lon="8.050399">
        <ele>349.492793</ele>
        <time>2021-11-19T22:26:28.779Z</time>
      </trkpt>
      <trkpt lat="47.538973" lon="8.051052">
        <ele>350.692785</ele>
        <time>2021-11-19T22:26:41.427Z</time>
      </trkpt>
      <trkpt lat="47.538833" lon="8.052273">
        <ele>351.883109</ele>
        <time>2021-11-19T22:27:02.921Z</time>
      </trkpt>
      <trkpt lat="47.538715" lon="8.052957">
        <ele>352.561637</ele>
        <time>2021-11-19T22:27:14.771Z</time>
      </trkpt>
      <trkpt lat="47.538674" lon="8.053197">
        <ele>352.799576</ele>
        <time>2021-11-19T22:27:18.747Z</time>
      </trkpt>
      <trkpt lat="47.538583" lon="8.053654">
        <ele>353.265195</ele>
        <time>2021-11-19T22:27:26.745Z</time>
      </trkpt>
      <trkpt lat="47.538491" lon="8.054121">
        <ele>353.972712</ele>
        <time>2021-11-19T22:27:35.196Z</time>
      </trkpt>
      <trkpt lat="47.538427" lon="8.054442">
        <ele>354.459499</ele>
        <time>2021-11-19T22:27:41.694Z</time>
      </trkpt>
      <trkpt lat="47.538306" lon="8.054779">
        <ele>355.014631</ele>
        <time>2021-11-19T22:27:49.090Z</time>
      </trkpt>
      <trkpt lat="47.538183" lon="8.055092">
        <ele>355.541357</ele>
        <time>2021-11-19T22:27:55.415Z</time>
      </trkpt>
      <trkpt lat="47.537993" lon="8.055523">
        <ele>356.290002</ele>
        <time>2021-11-19T22:28:05.664Z</time>
      </trkpt>
      <trkpt lat="47.537895" lon="8.055877">
        <ele>356.846460</ele>
        <time>2021-11-19T22:28:14.093Z</time>
      </trkpt>
      <trkpt lat="47.537864" lon="8.056030">
        <ele>357.078786</ele>
        <time>2021-11-19T22:28:17.511Z</time>
      </trkpt>
      <trkpt lat="47.537859" lon="8.056208">
        <ele>357.476010</ele>
        <time>2021-11-19T22:28:22.141Z</time>
      </trkpt>
      <trkpt lat="47.537899" lon="8.056997">
        <ele>359.347593</ele>
        <time>2021-11-19T22:28:39.691Z</time>
      </trkpt>
      <trkpt lat="47.537848" lon="8.057283">
        <ele>360.047310</ele>
        <time>2021-11-19T22:28:46.607Z</time>
      </trkpt>
      <trkpt lat="47.537656" lon="8.057838">
        <ele>361.522459</ele>
        <time>2021-11-19T22:29:01.486Z</time>
      </trkpt>
      <trkpt lat="47.537593" lon="8.058036">
        <ele>362.040230</ele>
        <time>2021-11-19T22:29:06.447Z</time>
      </trkpt>
      <trkpt lat="47.537529" lon="8.058320">
        <ele>362.748456</ele>
        <time>2021-11-19T22:29:14.017Z</time>
      </trkpt>
      <trkpt lat="47.537475" lon="8.059314">
        <ele>365.214063</ele>
        <time>2021-11-19T22:29:37.047Z</time>
      </trkpt>
      <trkpt lat="47.537493" lon="8.059634">
        <ele>366.021671</ele>
        <time>2021-11-19T22:29:45.125Z</time>
      </trkpt>
      <trkpt lat="47.537571" lon="8.060335">
        <ele>367.808512</ele>
        <time>2021-11-19T22:30:02.157Z</time>
      </trkpt>
      <trkpt lat="47.537603" lon="8.060999">
        <ele>369.482758</ele>
        <time>2021-11-19T22:30:17.482Z</time>
      </trkpt>
      <trkpt lat="47.537595" lon="8.061224">
        <ele>370.049429</ele>
        <time>2021-11-19T22:30:23.084Z</time>
      </trkpt>
      <trkpt lat="47.537559" lon="8.062222">
        <ele>372.431865</ele>
        <time>2021-11-19T22:30:46.505Z</time>
      </trkpt>
      <trkpt lat="47.537476" lon="8.062746">
        <ele>373.712856</ele>
        <time>2021-11-19T22:30:58.847Z</time>
      </trkpt>
      <trkpt lat="47.537270" lon="8.063432">
        <ele>375.499777</ele>
        <time>2021-11-19T22:31:16.152Z</time>
      </trkpt>
      <trkpt lat="47.537038" lon="8.064847">
        <ele>379.876388</ele>
        <time>2021-11-19T22:31:49.572Z</time>
      </trkpt>
      <trkpt lat="47.536914" lon="8.065266">
        <ele>381.361314</ele>
        <time>2021-11-19T22:32:01.016Z</time>
      </trkpt>
      <trkpt lat="47.536427" lon="8.066330">
        <ele>385.735984</ele>
        <time>2021-11-19T22:32:39.869Z</time>
      </trkpt>
      <trkpt lat="47.536006" lon="8.067287">
        <ele>391.207193</ele>
        <time>2021-11-19T22:33:16.449Z</time>
      </trkpt>
      <trkpt lat="47.535945" lon="8.067436">
        <ele>392.041859</ele>
        <time>2021-11-19T22:33:23.227Z</time>
      </trkpt>
      <trkpt lat="47.535939" lon="8.067597">
        <ele>392.814210</ele>
        <time>2021-11-19T22:33:28.188Z</time>
      </trkpt>
      <trkpt lat="47.535960" lon="8.067784">
        <ele>393.722231</ele>
        <time>2021-11-19T22:33:33.939Z</time>
      </trkpt>
      <trkpt lat="47.536104" lon="8.068166">
        <ele>395.817882</ele>
        <time>2021-11-19T22:33:49.089Z</time>
      </trkpt>
      <trkpt lat="47.536369" lon="8.069074">
        <ele>400.689131</ele>
        <time>2021-11-19T22:34:23.528Z</time>
      </trkpt>
      <trkpt lat="47.536923" lon="8.070135">
        <ele>407.431961</ele>
        <time>2021-11-19T22:35:06.588Z</time>
      </trkpt>
      <trkpt lat="47.537334" lon="8.071290">
        <ele>414.078446</ele>
        <time>2021-11-19T22:35:53.282Z</time>
      </trkpt>
      <trkpt lat="47.537481" lon="8.071822">
        <ele>417.056019</ele>
        <time>2021-11-19T22:36:13.594Z</time>
      </trkpt>
      <trkpt lat="47.537559" lon="8.072408">
        <ele>420.149852</ele>
        <time>2021-11-19T22:36:33.852Z</time>
      </trkpt>
      <trkpt lat="47.537572" lon="8.072672">
        <ele>421.520966</ele>
        <time>2021-11-19T22:36:43.427Z</time>
      </trkpt>
      <trkpt lat="47.537512" lon="8.072690">
        <ele>421.990671</ele>
        <time>2021-11-19T22:36:47.012Z</time>
      </trkpt>
      <trkpt lat="47.537393" lon="8.072662">
        <ele>422.915164</ele>
        <time>2021-11-19T22:36:51.576Z</time>
      </trkpt>
      <trkpt lat="47.537006" lon="8.072097">
        <ele>426.793143</ele>
        <time>2021-11-19T22:37:19.000Z</time>
      </trkpt>
      <trkpt lat="47.536020" lon="8.071103">
        <ele>434.625890</ele>
        <time>2021-11-19T22:38:14.355Z</time>
      </trkpt>
      <trkpt lat="47.535918" lon="8.071050">
        <ele>435.335770</ele>
        <time>2021-11-19T22:38:18.686Z</time>
      </trkpt>
      <trkpt lat="47.535887" lon="8.071035">
        <ele>435.549942</ele>
        <time>2021-11-19T22:38:20.036Z</time>
      </trkpt>
      <trkpt lat="47.535728" lon="8.070992">
        <ele>436.611397</ele>
        <time>2021-11-19T22:38:27.317Z</time>
      </trkpt>
      <trkpt lat="47.535478" lon="8.070870">
        <ele>438.562048</ele>
        <time>2021-11-19T22:38:38.557Z</time>
      </trkpt>
      <trkpt lat="47.534789" lon="8.070271">
        <ele>444.604012</ele>
        <time>2021-11-19T22:39:16.079Z</time>
      </trkpt>
      <trkpt lat="47.534520" lon="8.070183">
        <ele>446.687408</ele>
        <time>2021-11-19T22:39:30.655Z</time>
      </trkpt>
      <trkpt lat="47.534404" lon="8.070293">
        <ele>447.729071</ele>
        <time>2021-11-19T22:39:38.930Z</time>
      </trkpt>
      <trkpt lat="47.534012" lon="8.071300">
        <ele>454.383780</ele>
        <time>2021-11-19T22:40:24.231Z</time>
      </trkpt>
      <trkpt lat="47.533777" lon="8.071731">
        <ele>457.851291</ele>
        <time>2021-11-19T22:40:45.874Z</time>
      </trkpt>
      <trkpt lat="47.533672" lon="8.072117">
        <ele>460.456025</ele>
        <time>2021-11-19T22:41:02.420Z</time>
      </trkpt>
      <trkpt lat="47.533590" lon="8.072403">
        <ele>462.400855</ele>
        <time>2021-11-19T22:41:14.931Z</time>
      </trkpt>
      <trkpt lat="47.533487" lon="8.072753">
        <ele>464.790606</ele>
        <time>2021-11-19T22:41:28.875Z</time>
      </trkpt>
      <trkpt lat="47.533262" lon="8.073226">
        <ele>468.304500</ele>
        <time>2021-11-19T22:41:50.844Z</time>
      </trkpt>
      <trkpt lat="47.533059" lon="8.074119">
        <ele>473.698101</ele>
        <time>2021-11-19T22:42:26.809Z</time>
      </trkpt>
      <trkpt lat="47.532651" lon="8.074811">
        <ele>478.956965</ele>
        <time>2021-11-19T22:42:59.787Z</time>
      </trkpt>
      <trkpt lat="47.532606" lon="8.075283">
        <ele>481.685582</ele>
        <time>2021-11-19T22:43:16.377Z</time>
      </trkpt>
      <trkpt lat="47.532591" lon="8.075960">
        <ele>485.353246</ele>
        <time>2021-11-19T22:43:40.249Z</time>
      </trkpt>
      <trkpt lat="47.532628" lon="8.076519">
        <ele>488.355149</ele>
        <time>2021-11-19T22:43:59.866Z</time>
      </trkpt>
      <trkpt lat="47.532648" lon="8.076938">
        <ele>490.600086</ele>
        <time>2021-11-19T22:44:15.404Z</time>
      </trkpt>
      <trkpt lat="47.532480" lon="8.078097">
        <ele>496.789305</ele>
        <time>2021-11-19T22:44:57.935Z</time>
      </trkpt>
      <trkpt lat="47.532499" lon="8.078814">
        <ele>498.732231</ele>
        <time>2021-11-19T22:45:19.851Z</time>
      </trkpt>
      <trkpt lat="47.532498" lon="8.078982">
        <ele>499.187144</ele>
        <time>2021-11-19T22:45:25.075Z</time>
      </trkpt>
      <trkpt lat="47.532492" lon="8.079149">
        <ele>499.639972</ele>
        <time>2021-11-19T22:45:29.722Z</time>
      </trkpt>
      <trkpt lat="47.532411" lon="8.080863">
        <ele>503.328394</ele>
        <time>2021-11-19T22:46:06.035Z</time>
      </trkpt>
      <trkpt lat="47.532393" lon="8.080986">
        <ele>502.922426</ele>
        <time>2021-11-19T22:46:08.180Z</time>
      </trkpt>
      <trkpt lat="47.532210" lon="8.081146">
        <ele>501.907172</ele>
        <time>2021-11-19T22:46:15.024Z</time>
      </trkpt>
      <trkpt lat="47.532082" lon="8.081323">
        <ele>501.070550</ele>
        <time>2021-11-19T22:46:20.347Z</time>
      </trkpt>
      <trkpt lat="47.532029" lon="8.081397">
        <ele>500.722567</ele>
        <time>2021-11-19T22:46:22.482Z</time>
      </trkpt>
      <trkpt lat="47.532075" lon="8.081498">
        <ele>500.329581</ele>
        <time>2021-11-19T22:46:24.559Z</time>
      </trkpt>
      <trkpt lat="47.532168" lon="8.081807">
        <ele>499.238304</ele>
        <time>2021-11-19T22:46:30.851Z</time>
      </trkpt>
      <trkpt lat="47.532248" lon="8.082021">
        <ele>498.449265</ele>
        <time>2021-11-19T22:46:35.039Z</time>
      </trkpt>
      <trkpt lat="47.532398" lon="8.082333">
        <ele>497.213787</ele>
        <time>2021-11-19T22:46:41.896Z</time>
      </trkpt>
      <trkpt lat="47.532401" lon="8.082399">
        <ele>497.000412</ele>
        <time>2021-11-19T22:46:42.965Z</time>
      </trkpt>
      <trkpt lat="47.532538" lon="8.082835">
        <ele>495.449184</ele>
        <time>2021-11-19T22:46:51.319Z</time>
      </trkpt>
      <trkpt lat="47.532665" lon="8.083168">
        <ele>492.903299</ele>
        <time>2021-11-19T22:46:54.509Z</time>
      </trkpt>
      <trkpt lat="47.532839" lon="8.083817">
        <ele>487.819344</ele>
        <time>2021-11-19T22:47:00.144Z</time>
      </trkpt>
      <trkpt lat="47.533247" lon="8.085337">
        <ele>475.910538</ele>
        <time>2021-11-19T22:47:13.371Z</time>
      </trkpt>
      <trkpt lat="47.533310" lon="8.085526">
        <ele>474.682853</ele>
        <time>2021-11-19T22:47:15.097Z</time>
      </trkpt>
      <trkpt lat="47.533387" lon="8.085705">
        <ele>473.456266</ele>
        <time>2021-11-19T22:47:16.832Z</time>
      </trkpt>
      <trkpt lat="47.533660" lon="8.086493">
        <ele>468.337785</ele>
        <time>2021-11-19T22:47:24.309Z</time>
      </trkpt>
      <trkpt lat="47.534340" lon="8.087715">
        <ele>459.591133</ele>
        <time>2021-11-19T22:47:37.756Z</time>
      </trkpt>
      <trkpt lat="47.534440" lon="8.088097">
        <ele>457.971073</ele>
        <time>2021-11-19T22:47:41.441Z</time>
      </trkpt>
      <trkpt lat="47.534443" lon="8.088532">
        <ele>456.250924</ele>
        <time>2021-11-19T22:47:45.385Z</time>
      </trkpt>
      <trkpt lat="47.534411" lon="8.088801">
        <ele>455.170870</ele>
        <time>2021-11-19T22:47:47.827Z</time>
      </trkpt>
      <trkpt lat="47.534372" lon="8.089134">
        <ele>453.834470</ele>
        <time>2021-11-19T22:47:50.880Z</time>
      </trkpt>
      <trkpt lat="47.534398" lon="8.089395">
        <ele>452.791260</ele>
        <time>2021-11-19T22:47:53.272Z</time>
      </trkpt>
      <trkpt lat="47.534465" lon="8.089563">
        <ele>452.019721</ele>
        <time>2021-11-19T22:47:55.048Z</time>
      </trkpt>
      <trkpt lat="47.534647" lon="8.089763">
        <ele>450.692464</ele>
        <time>2021-11-19T22:47:58.057Z</time>
      </trkpt>
      <trkpt lat="47.535386" lon="8.090356">
        <ele>445.732613</ele>
        <time>2021-11-19T22:48:09.197Z</time>
      </trkpt>
      <trkpt lat="47.536180" lon="8.090440">
        <ele>441.028671</ele>
        <time>2021-11-19T22:48:19.743Z</time>
      </trkpt>
      <trkpt lat="47.536552" lon="8.090941">
        <ele>437.856359</ele>
        <time>2021-11-19T22:48:26.218Z</time>
      </trkpt>
      <trkpt lat="47.536904" lon="8.091241">
        <ele>435.069567</ele>
        <time>2021-11-19T22:48:31.419Z</time>
      </trkpt>
      <trkpt lat="47.537238" lon="8.091660">
        <ele>432.066058</ele>
        <time>2021-11-19T22:48:37.035Z</time>
      </trkpt>
      <trkpt lat="47.537488" lon="8.091884">
        <ele>430.061071</ele>
        <time>2021-11-19T22:48:40.785Z</time>
      </trkpt>
      <trkpt lat="47.537759" lon="8.092283">
        <ele>427.439039</ele>
        <time>2021-11-19T22:48:45.712Z</time>
      </trkpt>
      <trkpt lat="47.538314" lon="8.092603">
        <ele>423.178365</ele>
        <time>2021-11-19T22:48:53.315Z</time>
      </trkpt>
      <trkpt lat="47.538444" lon="8.092823">
        <ele>421.758712</ele>
        <time>2021-11-19T22:48:55.840Z</time>
      </trkpt>
      <trkpt lat="47.538620" lon="8.093580">
        <ele>417.871130</ele>
        <time>2021-11-19T22:49:02.720Z</time>
      </trkpt>
      <trkpt lat="47.538828" lon="8.094052">
        <ele>415.134214</ele>
        <time>2021-11-19T22:49:07.556Z</time>
      </trkpt>
      <trkpt lat="47.538951" lon="8.094301">
        <ele>413.667190</ele>
        <time>2021-11-19T22:49:10.177Z</time>
      </trkpt>
      <trkpt lat="47.539083" lon="8.094449">
        <ele>412.571471</ele>
        <time>2021-11-19T22:49:12.348Z</time>
      </trkpt>
      <trkpt lat="47.539265" lon="8.094521">
        <ele>411.324652</ele>
        <time>2021-11-19T22:49:14.728Z</time>
      </trkpt>
      <trkpt lat="47.539362" lon="8.094677">
        <ele>410.377004</ele>
        <time>2021-11-19T22:49:16.631Z</time>
      </trkpt>
      <trkpt lat="47.539372" lon="8.094898">
        <ele>409.387324</ele>
        <time>2021-11-19T22:49:18.538Z</time>
      </trkpt>
      <trkpt lat="47.539233" lon="8.094966">
        <ele>408.418454</ele>
        <time>2021-11-19T22:49:20.404Z</time>
      </trkpt>
      <trkpt lat="47.537967" lon="8.095253">
        <ele>399.743635</ele>
        <time>2021-11-19T22:49:37.156Z</time>
      </trkpt>
      <trkpt lat="47.537888" lon="8.095187">
        <ele>399.088799</ele>
        <time>2021-11-19T22:49:38.308Z</time>
      </trkpt>
      <trkpt lat="47.537704" lon="8.095035">
        <ele>397.567715</ele>
        <time>2021-11-19T22:49:41.052Z</time>
      </trkpt>
      <trkpt lat="47.537508" lon="8.094323">
        <ele>393.819873</ele>
        <time>2021-11-19T22:49:47.708Z</time>
      </trkpt>
      <trkpt lat="47.537411" lon="8.094216">
        <ele>392.946682</ele>
        <time>2021-11-19T22:49:49.224Z</time>
      </trkpt>
      <trkpt lat="47.537302" lon="8.094158">
        <ele>392.110477</ele>
        <time>2021-11-19T22:49:50.693Z</time>
      </trkpt>
      <trkpt lat="47.537203" lon="8.094156">
        <ele>391.395642</ele>
        <time>2021-11-19T22:49:51.955Z</time>
      </trkpt>
      <trkpt lat="47.537087" lon="8.094177">
        <ele>390.551904</ele>
        <time>2021-11-19T22:49:53.397Z</time>
      </trkpt>
      <trkpt lat="47.536898" lon="8.094261">
        <ele>389.126022</ele>
        <time>2021-11-19T22:49:55.921Z</time>
      </trkpt>
      <trkpt lat="47.536961" lon="8.094427">
        <ele>388.060701</ele>
        <time>2021-11-19T22:49:57.494Z</time>
      </trkpt>
      <trkpt lat="47.537064" lon="8.094756">
        <ele>386.031929</ele>
        <time>2021-11-19T22:50:00.598Z</time>
      </trkpt>
      <trkpt lat="47.537047" lon="8.094908">
        <ele>385.170016</ele>
        <time>2021-11-19T22:50:01.851Z</time>
      </trkpt>
      <trkpt lat="47.536929" lon="8.095436">
        <ele>382.058622</ele>
        <time>2021-11-19T22:50:06.468Z</time>
      </trkpt>
      <trkpt lat="47.536939" lon="8.095692">
        <ele>380.624099</ele>
        <time>2021-11-19T22:50:08.627Z</time>
      </trkpt>
      <trkpt lat="47.537253" lon="8.096536">
        <ele>375.233103</ele>
        <time>2021-11-19T22:50:16.742Z</time>
      </trkpt>
      <trkpt lat="47.537447" lon="8.096947">
        <ele>373.101029</ele>
        <time>2021-11-19T22:50:21.094Z</time>
      </trkpt>
      <trkpt lat="47.537626" lon="8.097409">
        <ele>371.233666</ele>
        <time>2021-11-19T22:50:25.868Z</time>
      </trkpt>
      <trkpt lat="47.537916" lon="8.098197">
        <ele>368.087460</ele>
        <time>2021-11-19T22:50:34.033Z</time>
      </trkpt>
      <trkpt lat="47.538501" lon="8.098992">
        <ele>364.379802</ele>
        <time>2021-11-19T22:50:45.150Z</time>
      </trkpt>
      <trkpt lat="47.538523" lon="8.099093">
        <ele>364.174330</ele>
        <time>2021-11-19T22:50:46.272Z</time>
      </trkpt>
      <trkpt lat="47.538521" lon="8.099232">
        <ele>363.905152</ele>
        <time>2021-11-19T22:50:47.700Z</time>
      </trkpt>
      <trkpt lat="47.538655" lon="8.099217">
        <ele>363.519759</ele>
        <time>2021-11-19T22:50:49.009Z</time>
      </trkpt>
      <trkpt lat="47.538959" lon="8.099139">
        <ele>362.634939</ele>
        <time>2021-11-19T22:50:52.246Z</time>
      </trkpt>
      <trkpt lat="47.539852" lon="8.098671">
        <ele>359.918357</ele>
        <time>2021-11-19T22:51:02.075Z</time>
      </trkpt>
      <trkpt lat="47.540568" lon="8.098437">
        <ele>359.745014</ele>
        <time>2021-11-19T22:51:10.421Z</time>
      </trkpt>
      <trkpt lat="47.540794" lon="8.098369">
        <ele>359.749086</ele>
        <time>2021-11-19T22:51:13.686Z</time>
      </trkpt>
      <trkpt lat="47.541022" lon="8.098264">
        <ele>359.753301</ele>
        <time>2021-11-19T22:51:17.835Z</time>
      </trkpt>
      <trkpt lat="47.541294" lon="8.098103">
        <ele>359.758473</ele>
        <time>2021-11-19T22:51:23.210Z</time>
      </trkpt>
      <trkpt lat="47.541331" lon="8.098259">
        <ele>359.760444</ele>
        <time>2021-11-19T22:51:26.322Z</time>
      </trkpt>
      <trkpt lat="47.541600" lon="8.098858">
        <ele>360.666025</ele>
        <time>2021-11-19T22:51:39.651Z</time>
      </trkpt>
      <trkpt lat="47.541634" lon="8.098967">
        <ele>360.984149</ele>
        <time>2021-11-19T22:51:42.307Z</time>
      </trkpt>
      <trkpt lat="47.541690" lon="8.099150">
        <ele>361.516477</ele>
        <time>2021-11-19T22:51:46.974Z</time>
      </trkpt>
      <trkpt lat="47.541717" lon="8.099238">
        <ele>361.772576</ele>
        <time>2021-11-19T22:51:49.375Z</time>
      </trkpt>
      <trkpt lat="47.541847" lon="8.099787">
        <ele>363.313979</ele>
        <time>2021-11-19T22:52:03.554Z</time>
      </trkpt>
      <trkpt lat="47.541894" lon="8.100661">
        <ele>365.636875</ele>
        <time>2021-11-19T22:52:26.138Z</time>
      </trkpt>
      <trkpt lat="47.541839" lon="8.101088">
        <ele>366.788571</ele>
        <time>2021-11-19T22:52:38.660Z</time>
      </trkpt>
      <trkpt lat="47.541851" lon="8.101428">
        <ele>367.895344</ele>
        <time>2021-11-19T22:52:48.795Z</time>
      </trkpt>
      <trkpt lat="47.542029" lon="8.102904">
        <ele>372.806442</ele>
        <time>2021-11-19T22:53:28.985Z</time>
      </trkpt>
      <trkpt lat="47.542031" lon="8.103252">
        <ele>373.946336</ele>
        <time>2021-11-19T22:53:38.072Z</time>
      </trkpt>
      <trkpt lat="47.542070" lon="8.103279">
        <ele>374.155215</ele>
        <time>2021-11-19T22:53:40.018Z</time>
      </trkpt>
      <trkpt lat="47.542241" lon="8.103429">
        <ele>375.119487</ele>
        <time>2021-11-19T22:53:47.763Z</time>
      </trkpt>
      <trkpt lat="47.542257" lon="8.103443">
        <ele>375.209653</ele>
        <time>2021-11-19T22:53:48.425Z</time>
      </trkpt>
      <trkpt lat="47.542424" lon="8.103404">
        <ele>376.096578</ele>
        <time>2021-11-19T22:53:54.371Z</time>
      </trkpt>
      <trkpt lat="47.542536" lon="8.103244">
        <ele>376.956624</ele>
        <time>2021-11-19T22:53:59.954Z</time>
      </trkpt>
      <trkpt lat="47.542561" lon="8.102981">
        <ele>377.947637</ele>
        <time>2021-11-19T22:54:06.870Z</time>
      </trkpt>
      <trkpt lat="47.542510" lon="8.102462">
        <ele>379.904592</ele>
        <time>2021-11-19T22:54:20.865Z</time>
      </trkpt>
      <trkpt lat="47.542503" lon="8.102285">
        <ele>380.566165</ele>
        <time>2021-11-19T22:54:26.087Z</time>
      </trkpt>
      <trkpt lat="47.542577" lon="8.101899">
        <ele>382.063402</ele>
        <time>2021-11-19T22:54:37.083Z</time>
      </trkpt>
      <trkpt lat="47.542852" lon="8.101208">
        <ele>385.056447</ele>
        <time>2021-11-19T22:55:00.661Z</time>
      </trkpt>
      <trkpt lat="47.543027" lon="8.100889">
        <ele>387.038430</ele>
        <time>2021-11-19T22:55:16.346Z</time>
      </trkpt>
      <trkpt lat="47.543585" lon="8.100026">
        <ele>393.319506</ele>
        <time>2021-11-19T22:55:56.628Z</time>
      </trkpt>
      <trkpt lat="47.543626" lon="8.099974">
        <ele>393.739760</ele>
        <time>2021-11-19T22:55:59.991Z</time>
      </trkpt>
      <trkpt lat="47.543723" lon="8.100009">
        <ele>394.517115</ele>
        <time>2021-11-19T22:56:06.747Z</time>
      </trkpt>
      <trkpt lat="47.543822" lon="8.100121">
        <ele>395.487031</ele>
        <time>2021-11-19T22:56:12.076Z</time>
      </trkpt>
      <trkpt lat="47.543873" lon="8.100334">
        <ele>396.674895</ele>
        <time>2021-11-19T22:56:19.711Z</time>
      </trkpt>
      <trkpt lat="47.543879" lon="8.100475">
        <ele>397.417458</ele>
        <time>2021-11-19T22:56:26.382Z</time>
      </trkpt>
      <trkpt lat="47.543870" lon="8.100621">
        <ele>398.188023</ele>
        <time>2021-11-19T22:56:30.632Z</time>
      </trkpt>
      <trkpt lat="47.543866" lon="8.100680">
        <ele>398.499685</ele>
        <time>2021-11-19T22:56:32.420Z</time>
      </trkpt>
      <trkpt lat="47.543817" lon="8.101400">
        <ele>402.258053</ele>
        <time>2021-11-19T22:56:57.767Z</time>
      </trkpt>
      <trkpt lat="47.543833" lon="8.101783">
        <ele>404.242500</ele>
        <time>2021-11-19T22:57:11.203Z</time>
      </trkpt>
      <trkpt lat="47.543919" lon="8.102097">
        <ele>405.994900</ele>
        <time>2021-11-19T22:57:24.840Z</time>
      </trkpt>
      <trkpt lat="47.544294" lon="8.102728">
        <ele>410.342518</ele>
        <time>2021-11-19T22:57:51.514Z</time>
      </trkpt>
      <trkpt lat="47.544415" lon="8.103199">
        <ele>412.948672</ele>
        <time>2021-11-19T22:58:07.538Z</time>
      </trkpt>
      <trkpt lat="47.544919" lon="8.104043">
        <ele>419.695687</ele>
        <time>2021-11-19T22:58:47.037Z</time>
      </trkpt>
      <trkpt lat="47.545065" lon="8.104367">
        <ele>422.047177</ele>
        <time>2021-11-19T22:59:01.279Z</time>
      </trkpt>
      <trkpt lat="47.545423" lon="8.106082">
        <ele>434.091316</ele>
        <time>2021-11-19T23:00:14.848Z</time>
      </trkpt>
      <trkpt lat="47.545518" lon="8.107226">
        <ele>443.436436</ele>
        <time>2021-11-19T23:01:09.354Z</time>
      </trkpt>
      <trkpt lat="47.545547" lon="8.107728">
        <ele>447.521368</ele>
        <time>2021-11-19T23:01:31.693Z</time>
      </trkpt>
      <trkpt lat="47.545551" lon="8.107799">
        <ele>448.099014</ele>
        <time>2021-11-19T23:01:37.062Z</time>
      </trkpt>
      <trkpt lat="47.545512" lon="8.109419">
        <ele>460.944888</ele>
        <time>2021-11-19T23:02:56.338Z</time>
      </trkpt>
      <trkpt lat="47.545325" lon="8.109906">
        <ele>465.356236</ele>
        <time>2021-11-19T23:03:23.178Z</time>
      </trkpt>
      <trkpt lat="47.545250" lon="8.110536">
        <ele>470.393059</ele>
        <time>2021-11-19T23:03:46.824Z</time>
      </trkpt>
      <trkpt lat="47.545218" lon="8.110683">
        <ele>471.609155</ele>
        <time>2021-11-19T23:03:54.084Z</time>
      </trkpt>
      <trkpt lat="47.545172" lon="8.110829">
        <ele>472.521970</ele>
        <time>2021-11-19T23:04:01.346Z</time>
      </trkpt>
      <trkpt lat="47.544737" lon="8.111813">
        <ele>478.247353</ele>
        <time>2021-11-19T23:04:42.578Z</time>
      </trkpt>
      <trkpt lat="47.544623" lon="8.112471">
        <ele>481.554006</ele>
        <time>2021-11-19T23:05:03.682Z</time>
      </trkpt>
      <trkpt lat="47.544623" lon="8.112669">
        <ele>482.517779</ele>
        <time>2021-11-19T23:05:11.828Z</time>
      </trkpt>
      <trkpt lat="47.544646" lon="8.112743">
        <ele>482.914327</ele>
        <time>2021-11-19T23:05:14.566Z</time>
      </trkpt>
      <trkpt lat="47.544669" lon="8.112802">
        <ele>483.245963</ele>
        <time>2021-11-19T23:05:16.184Z</time>
      </trkpt>
      <trkpt lat="47.544720" lon="8.112827">
        <ele>483.633334</ele>
        <time>2021-11-19T23:05:17.583Z</time>
      </trkpt>
      <trkpt lat="47.544930" lon="8.112757">
        <ele>485.090177</ele>
        <time>2021-11-19T23:05:26.141Z</time>
      </trkpt>
      <trkpt lat="47.545402" lon="8.112171">
        <ele>487.960691</ele>
        <time>2021-11-19T23:05:48.099Z</time>
      </trkpt>
      <trkpt lat="47.545880" lon="8.112015">
        <ele>490.242169</ele>
        <time>2021-11-19T23:06:07.452Z</time>
      </trkpt>
      <trkpt lat="47.546382" lon="8.111534">
        <ele>493.028839</ele>
        <time>2021-11-19T23:06:28.903Z</time>
      </trkpt>
      <trkpt lat="47.546768" lon="8.111251">
        <ele>495.660086</ele>
        <time>2021-11-19T23:06:46.398Z</time>
      </trkpt>
      <trkpt lat="47.547417" lon="8.110419">
        <ele>501.097449</ele>
        <time>2021-11-19T23:07:29.069Z</time>
      </trkpt>
      <trkpt lat="47.547740" lon="8.109862">
        <ele>504.237671</ele>
        <time>2021-11-19T23:07:52.803Z</time>
      </trkpt>
      <trkpt lat="47.547828" lon="8.109723">
        <ele>505.017907</ele>
        <time>2021-11-19T23:07:58.120Z</time>
      </trkpt>
      <trkpt lat="47.548054" lon="8.109451">
        <ele>506.683571</ele>
        <time>2021-11-19T23:08:11.274Z</time>
      </trkpt>
      <trkpt lat="47.548165" lon="8.109402">
        <ele>507.346135</ele>
        <time>2021-11-19T23:08:15.937Z</time>
      </trkpt>
      <trkpt lat="47.548310" lon="8.109338">
        <ele>508.211637</ele>
        <time>2021-11-19T23:08:22.548Z</time>
      </trkpt>
      <trkpt lat="47.548499" lon="8.109362">
        <ele>509.296778</ele>
        <time>2021-11-19T23:08:29.816Z</time>
      </trkpt>
      <trkpt lat="47.548568" lon="8.109396">
        <ele>509.712752</ele>
        <time>2021-11-19T23:08:34.089Z</time>
      </trkpt>
      <trkpt lat="47.548534" lon="8.109612">
        <ele>510.569138</ele>
        <time>2021-11-19T23:08:42.802Z</time>
      </trkpt>
      <trkpt lat="47.548434" lon="8.109656">
        <ele>511.165884</ele>
        <time>2021-11-19T23:08:46.703Z</time>
      </trkpt>
      <trkpt lat="47.548141" lon="8.110019">
        <ele>513.350795</ele>
        <time>2021-11-19T23:09:03.380Z</time>
      </trkpt>
      <trkpt lat="47.548051" lon="8.110153">
        <ele>514.080704</ele>
        <time>2021-11-19T23:09:09.402Z</time>
      </trkpt>
      <trkpt lat="47.547928" lon="8.110557">
        <ele>515.451352</ele>
        <time>2021-11-19T23:09:22.358Z</time>
      </trkpt>
      <trkpt lat="47.547950" lon="8.111046">
        <ele>516.545771</ele>
        <time>2021-11-19T23:09:34.717Z</time>
      </trkpt>
      <trkpt lat="47.547979" lon="8.111255">
        <ele>517.022252</ele>
        <time>2021-11-19T23:09:40.212Z</time>
      </trkpt>
      <trkpt lat="47.547927" lon="8.111402">
        <ele>517.392871</ele>
        <time>2021-11-19T23:09:43.448Z</time>
      </trkpt>
      <trkpt lat="47.547830" lon="8.111764">
        <ele>518.262632</ele>
        <time>2021-11-19T23:09:51.459Z</time>
      </trkpt>
      <trkpt lat="47.547780" lon="8.111967">
        <ele>518.745196</ele>
        <time>2021-11-19T23:09:56.353Z</time>
      </trkpt>
      <trkpt lat="47.547768" lon="8.112017">
        <ele>518.863700</ele>
        <time>2021-11-19T23:09:58.006Z</time>
      </trkpt>
      <trkpt lat="47.547722" lon="8.112390">
        <ele>519.710446</ele>
        <time>2021-11-19T23:10:04.897Z</time>
      </trkpt>
      <trkpt lat="47.547718" lon="8.112483">
        <ele>519.918548</ele>
        <time>2021-11-19T23:10:07.347Z</time>
      </trkpt>
      <trkpt lat="47.547707" lon="8.112811">
        <ele>520.651918</ele>
        <time>2021-11-19T23:10:14.323Z</time>
      </trkpt>
      <trkpt lat="47.547696" lon="8.112851">
        <ele>520.748373</ele>
        <time>2021-11-19T23:10:14.890Z</time>
      </trkpt>
      <trkpt lat="47.547654" lon="8.113053">
        <ele>520.869260</ele>
        <time>2021-11-19T23:10:19.680Z</time>
      </trkpt>
      <trkpt lat="47.547133" lon="8.114285">
        <ele>520.123036</ele>
        <time>2021-11-19T23:10:40.987Z</time>
      </trkpt>
      <trkpt lat="47.547023" lon="8.114647">
        <ele>519.919266</ele>
        <time>2021-11-19T23:10:45.548Z</time>
      </trkpt>
      <trkpt lat="47.546775" lon="8.116163">
        <ele>516.667468</ele>
        <time>2021-11-19T23:11:00.246Z</time>
      </trkpt>
      <trkpt lat="47.546660" lon="8.117289">
        <ele>512.888482</ele>
        <time>2021-11-19T23:11:10.606Z</time>
      </trkpt>
      <trkpt lat="47.546029" lon="8.119239">
        <ele>504.846175</ele>
        <time>2021-11-19T23:11:29.784Z</time>
      </trkpt>
      <trkpt lat="47.545660" lon="8.120605">
        <ele>499.263743</ele>
        <time>2021-11-19T23:11:42.966Z</time>
      </trkpt>
      <trkpt lat="47.545599" lon="8.120815">
        <ele>498.477731</ele>
        <time>2021-11-19T23:11:44.934Z</time>
      </trkpt>
      <trkpt lat="47.545552" lon="8.120757">
        <ele>498.166167</ele>
        <time>2021-11-19T23:11:45.831Z</time>
      </trkpt>
      <trkpt lat="47.545493" lon="8.120704">
        <ele>497.814724</ele>
        <time>2021-11-19T23:11:46.797Z</time>
      </trkpt>
      <trkpt lat="47.545343" lon="8.120625">
        <ele>497.003866</ele>
        <time>2021-11-19T23:11:48.921Z</time>
      </trkpt>
      <trkpt lat="47.545226" lon="8.120573">
        <ele>496.381694</ele>
        <time>2021-11-19T23:11:50.544Z</time>
      </trkpt>
      <trkpt lat="47.544644" lon="8.120315">
        <ele>493.287444</ele>
        <time>2021-11-19T23:11:58.782Z</time>
      </trkpt>
      <trkpt lat="47.544444" lon="8.120306">
        <ele>492.268286</ele>
        <time>2021-11-19T23:12:01.532Z</time>
      </trkpt>
      <trkpt lat="47.544195" lon="8.120445">
        <ele>490.957600</ele>
        <time>2021-11-19T23:12:05.106Z</time>
      </trkpt>
      <trkpt lat="47.543797" lon="8.120870">
        <ele>488.857426</ele>
        <time>2021-11-19T23:12:11.921Z</time>
      </trkpt>
      <trkpt lat="47.543667" lon="8.120893">
        <ele>488.296985</ele>
        <time>2021-11-19T23:12:13.708Z</time>
      </trkpt>
      <trkpt lat="47.543249" lon="8.120753">
        <ele>486.462508</ele>
        <time>2021-11-19T23:12:19.603Z</time>
      </trkpt>
      <trkpt lat="47.542862" lon="8.120539">
        <ele>484.694242</ele>
        <time>2021-11-19T23:12:25.381Z</time>
      </trkpt>
      <trkpt lat="47.542556" lon="8.120380">
        <ele>483.365700</ele>
        <time>2021-11-19T23:12:29.938Z</time>
      </trkpt>
      <trkpt lat="47.542397" lon="8.120269">
        <ele>482.852797</ele>
        <time>2021-11-19T23:12:32.454Z</time>
      </trkpt>
      <trkpt lat="47.542112" lon="8.120175">
        <ele>482.000799</ele>
        <time>2021-11-19T23:12:36.613Z</time>
      </trkpt>
      <trkpt lat="47.541299" lon="8.119897">
        <ele>479.566069</ele>
        <time>2021-11-19T23:12:48.838Z</time>
      </trkpt>
      <trkpt lat="47.540798" lon="8.119697">
        <ele>478.187219</ele>
        <time>2021-11-19T23:12:57.046Z</time>
      </trkpt>
      <trkpt lat="47.540140" lon="8.119357">
        <ele>477.579799</ele>
        <time>2021-11-19T23:13:08.947Z</time>
      </trkpt>
      <trkpt lat="47.539737" lon="8.119119">
        <ele>477.201647</ele>
        <time>2021-11-19T23:13:16.592Z</time>
      </trkpt>
      <trkpt lat="47.539622" lon="8.119051">
        <ele>477.093719</ele>
        <time>2021-11-19T23:13:18.978Z</time>
      </trkpt>
      <trkpt lat="47.538656" lon="8.118654">
        <ele>476.413469</ele>
        <time>2021-11-19T23:13:38.950Z</time>
      </trkpt>
      <trkpt lat="47.537405" lon="8.118469">
        <ele>475.781588</ele>
        <time>2021-11-19T23:14:04.875Z</time>
      </trkpt>
      <trkpt lat="47.536803" lon="8.118426">
        <ele>472.863735</ele>
        <time>2021-11-19T23:14:13.409Z</time>
      </trkpt>
      <trkpt lat="47.536450" lon="8.118473">
        <ele>471.103385</ele>
        <time>2021-11-19T23:14:18.245Z</time>
      </trkpt>
      <trkpt lat="47.536293" lon="8.118486">
        <ele>470.322380</ele>
        <time>2021-11-19T23:14:20.419Z</time>
      </trkpt>
      <trkpt lat="47.536158" lon="8.118503">
        <ele>469.649443</ele>
        <time>2021-11-19T23:14:22.200Z</time>
      </trkpt>
      <trkpt lat="47.536161" lon="8.118622">
        <ele>469.250133</ele>
        <time>2021-11-19T23:14:23.202Z</time>
      </trkpt>
      <trkpt lat="47.536174" lon="8.118698">
        <ele>468.987236</ele>
        <time>2021-11-19T23:14:23.946Z</time>
      </trkpt>
      <trkpt lat="47.536202" lon="8.118815">
        <ele>468.570991</ele>
        <time>2021-11-19T23:14:25.045Z</time>
      </trkpt>
      <trkpt lat="47.536288" lon="8.119124">
        <ele>467.450260</ele>
        <time>2021-11-19T23:14:27.886Z</time>
      </trkpt>
      <trkpt lat="47.536488" lon="8.119568">
        <ele>464.697099</ele>
        <time>2021-11-19T23:14:32.414Z</time>
      </trkpt>
      <trkpt lat="47.536908" lon="8.120043">
        <ele>459.928099</ele>
        <time>2021-11-19T23:14:38.985Z</time>
      </trkpt>
      <trkpt lat="47.537093" lon="8.120151">
        <ele>458.133505</ele>
        <time>2021-11-19T23:14:41.389Z</time>
      </trkpt>
      <trkpt lat="47.537744" lon="8.120294">
        <ele>452.194058</ele>
        <time>2021-11-19T23:14:49.479Z</time>
      </trkpt>
      <trkpt lat="47.538213" lon="8.121177">
        <ele>445.330954</ele>
        <time>2021-11-19T23:14:58.782Z</time>
      </trkpt>
      <trkpt lat="47.538673" lon="8.121609">
        <ele>440.398838</ele>
        <time>2021-11-19T23:15:05.559Z</time>
      </trkpt>
      <trkpt lat="47.538759" lon="8.121738">
        <ele>439.290517</ele>
        <time>2021-11-19T23:15:07.048Z</time>
      </trkpt>
      <trkpt lat="47.538882" lon="8.122037">
        <ele>437.150044</ele>
        <time>2021-11-19T23:15:10.060Z</time>
      </trkpt>
      <trkpt lat="47.539299" lon="8.123012">
        <ele>430.767537</ele>
        <time>2021-11-19T23:15:19.651Z</time>
      </trkpt>
      <trkpt lat="47.539607" lon="8.124056">
        <ele>424.912483</ele>
        <time>2021-11-19T23:15:29.294Z</time>
      </trkpt>
      <trkpt lat="47.539695" lon="8.124266">
        <ele>423.642289</ele>
        <time>2021-11-19T23:15:31.480Z</time>
      </trkpt>
      <trkpt lat="47.539814" lon="8.124463">
        <ele>422.283791</ele>
        <time>2021-11-19T23:15:33.837Z</time>
      </trkpt>
      <trkpt lat="47.540400" lon="8.125305">
        <ele>417.289956</ele>
        <time>2021-11-19T23:15:44.712Z</time>
      </trkpt>
      <trkpt lat="47.540664" lon="8.125536">
        <ele>415.580975</ele>
        <time>2021-11-19T23:15:48.768Z</time>
      </trkpt>
      <trkpt lat="47.540686" lon="8.125570">
        <ele>415.403770</ele>
        <time>2021-11-19T23:15:49.171Z</time>
      </trkpt>
      <trkpt lat="47.540800" lon="8.125754">
        <ele>414.464069</ele>
        <time>2021-11-19T23:15:51.373Z</time>
      </trkpt>
      <trkpt lat="47.540882" lon="8.126176">
        <ele>412.811785</ele>
        <time>2021-11-19T23:15:55.403Z</time>
      </trkpt>
      <trkpt lat="47.540899" lon="8.126837">
        <ele>410.321459</ele>
        <time>2021-11-19T23:16:01.395Z</time>
      </trkpt>
      <trkpt lat="47.540893" lon="8.127017">
        <ele>409.639854</ele>
        <time>2021-11-19T23:16:03.057Z</time>
      </trkpt>
      <trkpt lat="47.540987" lon="8.127386">
        <ele>408.148205</ele>
        <time>2021-11-19T23:16:06.555Z</time>
      </trkpt>
      <trkpt lat="47.541228" lon="8.128089">
        <ele>405.166211</ele>
        <time>2021-11-19T23:16:13.582Z</time>
      </trkpt>
      <trkpt lat="47.541352" lon="8.128420">
        <ele>403.734503</ele>
        <time>2021-11-19T23:16:16.875Z</time>
      </trkpt>
      <trkpt lat="47.541394" lon="8.128512">
        <ele>403.314458</ele>
        <time>2021-11-19T23:16:17.886Z</time>
      </trkpt>
      <trkpt lat="47.542025" lon="8.130249">
        <ele>396.702944</ele>
        <time>2021-11-19T23:16:35.741Z</time>
      </trkpt>
      <trkpt lat="47.542446" lon="8.131364">
        <ele>392.749036</ele>
        <time>2021-11-19T23:16:47.748Z</time>
      </trkpt>
      <trkpt lat="47.542585" lon="8.131744">
        <ele>391.660673</ele>
        <time>2021-11-19T23:16:51.904Z</time>
      </trkpt>
      <trkpt lat="47.542759" lon="8.132117">
        <ele>390.660447</ele>
        <time>2021-11-19T23:16:56.368Z</time>
      </trkpt>
      <trkpt lat="47.542820" lon="8.132240">
        <ele>390.323744</ele>
        <time>2021-11-19T23:16:57.905Z</time>
      </trkpt>
      <trkpt lat="47.542923" lon="8.132422">
        <ele>389.799808</ele>
        <time>2021-11-19T23:17:00.283Z</time>
      </trkpt>
      <trkpt lat="47.543205" lon="8.132907">
        <ele>388.387689</ele>
        <time>2021-11-19T23:17:06.691Z</time>
      </trkpt>
      <trkpt lat="47.543258" lon="8.132977">
        <ele>388.155640</ele>
        <time>2021-11-19T23:17:07.712Z</time>
      </trkpt>
      <trkpt lat="47.543327" lon="8.133043">
        <ele>387.887224</ele>
        <time>2021-11-19T23:17:08.893Z</time>
      </trkpt>
      <trkpt lat="47.543232" lon="8.133457">
        <ele>386.922598</ele>
        <time>2021-11-19T23:17:13.112Z</time>
      </trkpt>
      <trkpt lat="47.543188" lon="8.133671">
        <ele>386.429092</ele>
        <time>2021-11-19T23:17:15.331Z</time>
      </trkpt>
      <trkpt lat="47.543186" lon="8.133718">
        <ele>386.341908</ele>
        <time>2021-11-19T23:17:15.770Z</time>
      </trkpt>
      <trkpt lat="47.543220" lon="8.133852">
        <ele>386.095447</ele>
        <time>2021-11-19T23:17:17.165Z</time>
      </trkpt>
      <trkpt lat="47.543321" lon="8.133795">
        <ele>385.819790</ele>
        <time>2021-11-19T23:17:18.227Z</time>
      </trkpt>
      <trkpt lat="47.543505" lon="8.133721">
        <ele>385.333518</ele>
        <time>2021-11-19T23:17:20.214Z</time>
      </trkpt>
      <trkpt lat="47.543619" lon="8.133664">
        <ele>385.026650</ele>
        <time>2021-11-19T23:17:21.450Z</time>
      </trkpt>
      <trkpt lat="47.543708" lon="8.133619">
        <ele>384.786801</ele>
        <time>2021-11-19T23:17:22.465Z</time>
      </trkpt>
      <trkpt lat="47.543845" lon="8.133524">
        <ele>384.401002</ele>
        <time>2021-11-19T23:17:24.183Z</time>
      </trkpt>
      <trkpt lat="47.544105" lon="8.133316">
        <ele>383.647367</ele>
        <time>2021-11-19T23:17:27.370Z</time>
      </trkpt>
      <trkpt lat="47.544222" lon="8.133222">
        <ele>383.307904</ele>
        <time>2021-11-19T23:17:28.813Z</time>
      </trkpt>
      <trkpt lat="47.544453" lon="8.133038">
        <ele>382.638983</ele>
        <time>2021-11-19T23:17:31.716Z</time>
      </trkpt>
      <trkpt lat="47.544650" lon="8.132899">
        <ele>382.082462</ele>
        <time>2021-11-19T23:17:33.966Z</time>
      </trkpt>
      <trkpt lat="47.544810" lon="8.132765">
        <ele>381.582447</ele>
        <time>2021-11-19T23:17:36.007Z</time>
      </trkpt>
      <trkpt lat="47.545059" lon="8.132589">
        <ele>380.768986</ele>
        <time>2021-11-19T23:17:38.897Z</time>
      </trkpt>
      <trkpt lat="47.545184" lon="8.132503">
        <ele>380.362618</ele>
        <time>2021-11-19T23:17:40.313Z</time>
      </trkpt>
      <trkpt lat="47.545331" lon="8.132442">
        <ele>379.912505</ele>
        <time>2021-11-19T23:17:41.873Z</time>
      </trkpt>
      <trkpt lat="47.545734" lon="8.132329">
        <ele>378.703162</ele>
        <time>2021-11-19T23:17:46.103Z</time>
      </trkpt>
      <trkpt lat="47.545962" lon="8.132304">
        <ele>378.029064</ele>
        <time>2021-11-19T23:17:48.413Z</time>
      </trkpt>
      <trkpt lat="47.546023" lon="8.132300">
        <ele>377.849030</ele>
        <time>2021-11-19T23:17:49.016Z</time>
      </trkpt>
      <trkpt lat="47.546602" lon="8.132235">
        <ele>376.160438</ele>
        <time>2021-11-19T23:17:54.903Z</time>
      </trkpt>
      <trkpt lat="47.546938" lon="8.132181">
        <ele>375.226569</ele>
        <time>2021-11-19T23:17:58.276Z</time>
      </trkpt>
      <trkpt lat="47.547951" lon="8.132055">
        <ele>372.417638</ele>
        <time>2021-11-19T23:18:08.763Z</time>
      </trkpt>
      <trkpt lat="47.548544" lon="8.131974">
        <ele>371.200586</ele>
        <time>2021-11-19T23:18:15.327Z</time>
      </trkpt>
      <trkpt lat="47.549752" lon="8.131786">
        <ele>369.715460</ele>
        <time>2021-11-19T23:18:29.977Z</time>
      </trkpt>
      <trkpt lat="47.550488" lon="8.131671">
        <ele>368.872676</ele>
        <time>2021-11-19T23:18:39.565Z</time>
      </trkpt>
      <trkpt lat="47.550614" lon="8.131652">
        <ele>368.735935</ele>
        <time>2021-11-19T23:18:41.420Z</time>
      </trkpt>
      <trkpt lat="47.550712" lon="8.131637">
        <ele>368.629565</ele>
        <time>2021-11-19T23:18:42.556Z</time>
      </trkpt>
      <trkpt lat="47.551029" lon="8.131586">
        <ele>368.285300</ele>
        <time>2021-11-19T23:18:46.580Z</time>
      </trkpt>
      <trkpt lat="47.551383" lon="8.131531">
        <ele>367.901003</ele>
        <time>2021-11-19T23:18:50.722Z</time>
      </trkpt>
      <trkpt lat="47.551749" lon="8.131479">
        <ele>367.504033</ele>
        <time>2021-11-19T23:18:54.999Z</time>
      </trkpt>
      <trkpt lat="47.551784" lon="8.131474">
        <ele>367.466069</ele>
        <time>2021-11-19T23:18:55.345Z</time>
      </trkpt>
      <trkpt lat="47.551873" lon="8.131469">
        <ele>367.352032</ele>
        <time>2021-11-19T23:18:56.364Z</time>
      </trkpt>
      <trkpt lat="47.552293" lon="8.131579">
        <ele>366.613779</ele>
        <time>2021-11-19T23:19:01.389Z</time>
      </trkpt>
      <trkpt lat="47.552326" lon="8.131597">
        <ele>366.552911</ele>
        <time>2021-11-19T23:19:01.702Z</time>
      </trkpt>
      <trkpt lat="47.552402" lon="8.131645">
        <ele>366.409909</ele>
        <time>2021-11-19T23:19:02.704Z</time>
      </trkpt>
      <trkpt lat="47.552493" lon="8.131722">
        <ele>366.228520</ele>
        <time>2021-11-19T23:19:03.861Z</time>
      </trkpt>
      <trkpt lat="47.552602" lon="8.131831">
        <ele>366.000901</ele>
        <time>2021-11-19T23:19:05.372Z</time>
      </trkpt>
      <trkpt lat="47.553483" lon="8.132756">
        <ele>364.127287</ele>
        <time>2021-11-19T23:19:17.427Z</time>
      </trkpt>
      <trkpt lat="47.553541" lon="8.132821">
        <ele>363.997634</ele>
        <time>2021-11-19T23:19:18.124Z</time>
      </trkpt>
      <trkpt lat="47.553641" lon="8.132928">
        <ele>363.777720</ele>
        <time>2021-11-19T23:19:19.655Z</time>
      </trkpt>
      <trkpt lat="47.553708" lon="8.133003">
        <ele>363.628011</ele>
        <time>2021-11-19T23:19:20.733Z</time>
      </trkpt>
      <trkpt lat="47.553759" lon="8.133056">
        <ele>363.516950</ele>
        <time>2021-11-19T23:19:21.464Z</time>
      </trkpt>
      <trkpt lat="47.553847" lon="8.133128">
        <ele>363.337728</ele>
        <time>2021-11-19T23:19:22.550Z</time>
      </trkpt>
      <trkpt lat="47.554071" lon="8.133239">
        <ele>362.916625</ele>
        <time>2021-11-19T23:19:25.309Z</time>
      </trkpt>
      <trkpt lat="47.554467" lon="8.133300">
        <ele>362.206806</ele>
        <time>2021-11-19T23:19:29.859Z</time>
      </trkpt>
      <trkpt lat="47.554619" lon="8.133314">
        <ele>361.935287</ele>
        <time>2021-11-19T23:19:31.463Z</time>
      </trkpt>
      <trkpt lat="47.554855" lon="8.133333">
        <ele>361.513911</ele>
        <time>2021-11-19T23:19:34.101Z</time>
      </trkpt>
      <trkpt lat="47.555303" lon="8.133375">
        <ele>360.621321</ele>
        <time>2021-11-19T23:19:39.034Z</time>
      </trkpt>
      <trkpt lat="47.555444" lon="8.133390">
        <ele>360.305741</ele>
        <time>2021-11-19T23:19:40.540Z</time>
      </trkpt>
      <trkpt lat="47.555690" lon="8.133401">
        <ele>359.756317</ele>
        <time>2021-11-19T23:19:43.295Z</time>
      </trkpt>
      <trkpt lat="47.555896" lon="8.133399">
        <ele>359.296431</ele>
        <time>2021-11-19T23:19:45.537Z</time>
      </trkpt>
      <trkpt lat="47.556093" lon="8.133383">
        <ele>358.855985</ele>
        <time>2021-11-19T23:19:47.666Z</time>
      </trkpt>
      <trkpt lat="47.556204" lon="8.133369">
        <ele>358.607291</ele>
        <time>2021-11-19T23:19:48.834Z</time>
      </trkpt>
      <trkpt lat="47.556513" lon="8.133340">
        <ele>357.916094</ele>
        <time>2021-11-19T23:19:52.145Z</time>
      </trkpt>
      <trkpt lat="47.557021" lon="8.133293">
        <ele>356.792999</ele>
        <time>2021-11-19T23:19:57.510Z</time>
      </trkpt>
      <trkpt lat="47.557237" lon="8.133273">
        <ele>356.332249</ele>
        <time>2021-11-19T23:19:59.802Z</time>
      </trkpt>
      <trkpt lat="47.557846" lon="8.133209">
        <ele>355.032461</ele>
        <time>2021-11-19T23:20:06.419Z</time>
      </trkpt>
      <trkpt lat="47.558277" lon="8.133165">
        <ele>354.112707</ele>
        <time>2021-11-19T23:20:11.034Z</time>
      </trkpt>
      <trkpt lat="47.558609" lon="8.133121">
        <ele>353.403074</ele>
        <time>2021-11-19T23:20:14.689Z</time>
      </trkpt>
      <trkpt lat="47.559286" lon="8.133042">
        <ele>353.115453</ele>
        <time>2021-11-19T23:20:22.657Z</time>
      </trkpt>
      <trkpt lat="47.559423" lon="8.133034">
        <ele>353.088145</ele>
        <time>2021-11-19T23:20:24.286Z</time>
      </trkpt>
      <trkpt lat="47.559553" lon="8.133012">
        <ele>353.062085</ele>
        <time>2021-11-19T23:20:28.737Z</time>
      </trkpt>
      <trkpt lat="47.559972" lon="8.132981">
        <ele>352.978529</ele>
        <time>2021-11-19T23:20:44.274Z</time>
      </trkpt>
      <trkpt lat="47.560046" lon="8.132973">
        <ele>352.963751</ele>
        <time>2021-11-19T23:20:46.779Z</time>
      </trkpt>
      <trkpt lat="47.560143" lon="8.132963">
        <ele>352.944385</ele>
        <time>2021-11-19T23:20:48.095Z</time>
      </trkpt>
      <trkpt lat="47.560243" lon="8.132948">
        <ele>352.924366</ele>
        <time>2021-11-19T23:20:49.586Z</time>
      </trkpt>
      <trkpt lat="47.560335" lon="8.132935">
        <ele>352.905960</ele>
        <time>2021-11-19T23:20:52.362Z</time>
      </trkpt>
      <trkpt lat="47.560777" lon="8.132722">
        <ele>354.217127</ele>
        <time>2021-11-19T23:21:02.805Z</time>
      </trkpt>
      <trkpt lat="47.560827" lon="8.132679">
        <ele>354.460711</ele>
        <time>2021-11-19T23:21:04.361Z</time>
      </trkpt>
      <trkpt lat="47.560889" lon="8.132614">
        <ele>354.780714</ele>
        <time>2021-11-19T23:21:06.159Z</time>
      </trkpt>
      <trkpt lat="47.561056" lon="8.132422">
        <ele>355.671310</ele>
        <time>2021-11-19T23:21:13.588Z</time>
      </trkpt>
      <trkpt lat="47.561161" lon="8.132610">
        <ele>356.365190</ele>
        <time>2021-11-19T23:21:17.991Z</time>
      </trkpt>
      <trkpt lat="47.561195" lon="8.132668">
        <ele>356.583638</ele>
        <time>2021-11-19T23:21:21.123Z</time>
      </trkpt>
      <trkpt lat="47.561623" lon="8.133432">
        <ele>359.406930</ele>
        <time>2021-11-19T23:21:43.716Z</time>
      </trkpt>
      <trkpt lat="47.561664" lon="8.133579">
        <ele>359.859187</ele>
        <time>2021-11-19T23:21:49.086Z</time>
      </trkpt>
      <trkpt lat="47.561698" lon="8.133720">
        <ele>360.284916</ele>
        <time>2021-11-19T23:21:52.550Z</time>
      </trkpt>
      <trkpt lat="47.561725" lon="8.133913">
        <ele>360.835414</ele>
        <time>2021-11-19T23:21:57.508Z</time>
      </trkpt>
      <trkpt lat="47.561720" lon="8.135210">
        <ele>364.429366</ele>
        <time>2021-11-19T23:22:30.542Z</time>
      </trkpt>
      <trkpt lat="47.561711" lon="8.135438">
        <ele>365.062218</ele>
        <time>2021-11-19T23:22:35.577Z</time>
      </trkpt>
      <trkpt lat="47.561699" lon="8.135702">
        <ele>365.795401</ele>
        <time>2021-11-19T23:22:41.341Z</time>
      </trkpt>
      <trkpt lat="47.561695" lon="8.135815">
        <ele>366.108946</ele>
        <time>2021-11-19T23:22:43.287Z</time>
      </trkpt>
      <trkpt lat="47.561673" lon="8.136111">
        <ele>366.934102</ele>
        <time>2021-11-19T23:22:48.379Z</time>
      </trkpt>
      <trkpt lat="47.561651" lon="8.136422">
        <ele>367.800583</ele>
        <time>2021-11-19T23:22:51.877Z</time>
      </trkpt>
      <trkpt lat="47.561604" lon="8.136996">
        <ele>367.632909</ele>
        <time>2021-11-19T23:22:58.149Z</time>
      </trkpt>
      <trkpt lat="47.561574" lon="8.137322">
        <ele>367.511309</ele>
        <time>2021-11-19T23:23:01.463Z</time>
      </trkpt>
      <trkpt lat="47.561548" lon="8.137622">
        <ele>367.399523</ele>
        <time>2021-11-19T23:23:04.409Z</time>
      </trkpt>
      <trkpt lat="47.561531" lon="8.137825">
        <ele>367.323922</ele>
        <time>2021-11-19T23:23:06.384Z</time>
      </trkpt>
      <trkpt lat="47.561520" lon="8.138020">
        <ele>367.251602</ele>
        <time>2021-11-19T23:23:07.881Z</time>
      </trkpt>
      <trkpt lat="47.561504" lon="8.138613">
        <ele>367.032263</ele>
        <time>2021-11-19T23:23:12.385Z</time>
      </trkpt>
      <trkpt lat="47.561507" lon="8.138771">
        <ele>366.973846</ele>
        <time>2021-11-19T23:23:13.624Z</time>
      </trkpt>
      <trkpt lat="47.561660" lon="8.140164">
        <ele>366.423689</ele>
        <time>2021-11-19T23:23:24.221Z</time>
      </trkpt>
      <trkpt lat="47.561574" lon="8.141379">
        <ele>365.940261</ele>
        <time>2021-11-19T23:23:36.198Z</time>
      </trkpt>
      <trkpt lat="47.561563" lon="8.141574">
        <ele>365.862828</ele>
        <time>2021-11-19T23:23:38.282Z</time>
      </trkpt>
      <trkpt lat="47.561548" lon="8.141908">
        <ele>365.993520</ele>
        <time>2021-11-19T23:23:42.439Z</time>
      </trkpt>
      <trkpt lat="47.561542" lon="8.142165">
        <ele>366.269146</ele>
        <time>2021-11-19T23:23:45.439Z</time>
      </trkpt>
      <trkpt lat="47.561548" lon="8.142491">
        <ele>366.618694</ele>
        <time>2021-11-19T23:23:50.170Z</time>
      </trkpt>
      <trkpt lat="47.561569" lon="8.142863">
        <ele>367.018809</ele>
        <time>2021-11-19T23:23:55.468Z</time>
      </trkpt>
      <trkpt lat="47.561629" lon="8.143405">
        <ele>367.607507</ele>
        <time>2021-11-19T23:24:03.925Z</time>
      </trkpt>
      <trkpt lat="47.561693" lon="8.143892">
        <ele>368.139295</ele>
        <time>2021-11-19T23:24:11.551Z</time>
      </trkpt>
      <trkpt lat="47.561737" lon="8.144240">
        <ele>368.518783</ele>
        <time>2021-11-19T23:24:17.019Z</time>
      </trkpt>
      <trkpt lat="47.561764" lon="8.144413">
        <ele>368.704248</ele>
        <time>2021-11-19T23:24:20.011Z</time>
      </trkpt>
      <trkpt lat="47.561830" lon="8.144934">
        <ele>369.218165</ele>
        <time>2021-11-19T23:24:28.477Z</time>
      </trkpt>
      <trkpt lat="47.561843" lon="8.145077">
        <ele>369.358052</ele>
        <time>2021-11-19T23:24:30.738Z</time>
      </trkpt>
      <trkpt lat="47.561847" lon="8.145230">
        <ele>369.506492</ele>
        <time>2021-11-19T23:24:33.092Z</time>
      </trkpt>
      <trkpt lat="47.561842" lon="8.145448">
        <ele>369.717959</ele>
        <time>2021-11-19T23:24:36.434Z</time>
      </trkpt>
      <trkpt lat="47.561827" lon="8.145709">
        <ele>369.971906</ele>
        <time>2021-11-19T23:24:40.146Z</time>
      </trkpt>
      <trkpt lat="47.561811" lon="8.145912">
        <ele>370.170047</ele>
        <time>2021-11-19T23:24:42.787Z</time>
      </trkpt>
      <trkpt lat="47.561789" lon="8.146405">
        <ele>370.649039</ele>
        <time>2021-11-19T23:24:49.027Z</time>
      </trkpt>
      <trkpt lat="47.561783" lon="8.146574">
        <ele>370.813107</ele>
        <time>2021-11-19T23:24:51.226Z</time>
      </trkpt>
      <trkpt lat="47.561759" lon="8.147209">
        <ele>371.329069</ele>
        <time>2021-11-19T23:24:58.788Z</time>
      </trkpt>
      <trkpt lat="47.561778" lon="8.147534">
        <ele>371.475477</ele>
        <time>2021-11-19T23:25:02.600Z</time>
      </trkpt>
      <trkpt lat="47.561781" lon="8.147568">
        <ele>371.490866</ele>
        <time>2021-11-19T23:25:03.014Z</time>
      </trkpt>
      <trkpt lat="47.561822" lon="8.147813">
        <ele>371.604154</ele>
        <time>2021-11-19T23:25:05.648Z</time>
      </trkpt>
      <trkpt lat="47.561833" lon="8.147845">
        <ele>371.620272</ele>
        <time>2021-11-19T23:25:05.964Z</time>
      </trkpt>
      <trkpt lat="47.561913" lon="8.148081">
        <ele>371.738803</ele>
        <time>2021-11-19T23:25:08.894Z</time>
      </trkpt>
      <trkpt lat="47.561978" lon="8.148254">
        <ele>371.827670</ele>
        <time>2021-11-19T23:25:10.927Z</time>
      </trkpt>
      <trkpt lat="47.562009" lon="8.148365">
        <ele>371.881586</ele>
        <time>2021-11-19T23:25:12.289Z</time>
      </trkpt>
      <trkpt lat="47.562009" lon="8.148503">
        <ele>371.943520</ele>
        <time>2021-11-19T23:25:14.118Z</time>
      </trkpt>
      <trkpt lat="47.562009" lon="8.148597">
        <ele>371.985708</ele>
        <time>2021-11-19T23:25:15.115Z</time>
      </trkpt>
      <trkpt lat="47.561998" lon="8.148673">
        <ele>372.020592</ele>
        <time>2021-11-19T23:25:15.848Z</time>
      </trkpt>
      <trkpt lat="47.561980" lon="8.148763">
        <ele>372.062721</ele>
        <time>2021-11-19T23:25:18.300Z</time>
      </trkpt>
      <trkpt lat="47.561943" lon="8.148889">
        <ele>372.124393</ele>
        <time>2021-11-19T23:25:21.915Z</time>
      </trkpt>
      <trkpt lat="47.561915" lon="8.148980">
        <ele>372.169280</ele>
        <time>2021-11-19T23:25:24.759Z</time>
      </trkpt>
      <trkpt lat="47.561767" lon="8.149503">
        <ele>372.423808</ele>
        <time>2021-11-19T23:25:40.198Z</time>
      </trkpt>
      <trkpt lat="47.561555" lon="8.150316">
        <ele>373.694190</ele>
        <time>2021-11-19T23:26:04.886Z</time>
      </trkpt>
      <trkpt lat="47.561512" lon="8.150470">
        <ele>373.943723</ele>
        <time>2021-11-19T23:26:10.083Z</time>
      </trkpt>
      <trkpt lat="47.561471" lon="8.150574">
        <ele>374.124060</ele>
        <time>2021-11-19T23:26:13.472Z</time>
      </trkpt>
      <trkpt lat="47.561352" lon="8.150768">
        <ele>374.516594</ele>
        <time>2021-11-19T23:26:22.002Z</time>
      </trkpt>
      <trkpt lat="47.561257" lon="8.150909">
        <ele>374.814918</ele>
        <time>2021-11-19T23:26:28.115Z</time>
      </trkpt>
      <trkpt lat="47.561109" lon="8.151163">
        <ele>375.317372</ele>
        <time>2021-11-19T23:26:38.888Z</time>
      </trkpt>
      <trkpt lat="47.561003" lon="8.151403">
        <ele>375.746835</ele>
        <time>2021-11-19T23:26:47.965Z</time>
      </trkpt>
      <trkpt lat="47.560916" lon="8.151600">
        <ele>376.099342</ele>
        <time>2021-11-19T23:26:55.596Z</time>
      </trkpt>
      <trkpt lat="47.560859" lon="8.151728">
        <ele>376.328958</ele>
        <time>2021-11-19T23:27:00.694Z</time>
      </trkpt>
      <trkpt lat="47.560747" lon="8.151985">
        <ele>377.181099</ele>
        <time>2021-11-19T23:27:11.312Z</time>
      </trkpt>
      <trkpt lat="47.560710" lon="8.152072">
        <ele>377.504744</ele>
        <time>2021-11-19T23:27:15.143Z</time>
      </trkpt>
      <trkpt lat="47.560668" lon="8.152171">
        <ele>377.872772</ele>
        <time>2021-11-19T23:27:19.290Z</time>
      </trkpt>
      <trkpt lat="47.560622" lon="8.152294">
        <ele>378.315348</ele>
        <time>2021-11-19T23:27:24.145Z</time>
      </trkpt>
      <trkpt lat="47.560622" lon="8.152294">
        <ele>378.315348</ele>
        <time>2021-11-19T23:27:24.278Z</time>
      </trkpt>
      <trkpt lat="47.561111" lon="8.152733">
        <ele>380.981800</ele>
        <time>2021-11-19T23:27:46.900Z</time>
      </trkpt>
      <trkpt lat="47.561252" lon="8.152858">
        <ele>381.748083</ele>
        <time>2021-11-19T23:27:53.379Z</time>
      </trkpt>
      <trkpt lat="47.561457" lon="8.153044">
        <ele>382.869128</ele>
        <time>2021-11-19T23:28:03.356Z</time>
      </trkpt>
      <trkpt lat="47.561762" lon="8.153301">
        <ele>384.505454</ele>
        <time>2021-11-19T23:28:17.989Z</time>
      </trkpt>
      <trkpt lat="47.561835" lon="8.153371">
        <ele>384.932422</ele>
        <time>2021-11-19T23:28:21.262Z</time>
      </trkpt>
      <trkpt lat="47.561947" lon="8.153511">
        <ele>385.773314</ele>
        <time>2021-11-19T23:28:27.721Z</time>
      </trkpt>
      <trkpt lat="47.561970" lon="8.153627">
        <ele>386.241531</ele>
        <time>2021-11-19T23:28:31.238Z</time>
      </trkpt>
      <trkpt lat="47.561997" lon="8.154372">
        <ele>389.130804</ele>
        <time>2021-11-19T23:28:51.293Z</time>
      </trkpt>
      <trkpt lat="47.562012" lon="8.154800">
        <ele>390.790526</ele>
        <time>2021-11-19T23:29:04.937Z</time>
      </trkpt>
      <trkpt lat="47.561997" lon="8.155023">
        <ele>391.658403</ele>
        <time>2021-11-19T23:29:12.065Z</time>
      </trkpt>
      <trkpt lat="47.561930" lon="8.156090">
        <ele>395.877805</ele>
        <time>2021-11-19T23:29:43.888Z</time>
      </trkpt>
      <trkpt lat="47.561979" lon="8.156520">
        <ele>397.742180</ele>
        <time>2021-11-19T23:29:56.328Z</time>
      </trkpt>
      <trkpt lat="47.562071" lon="8.156772">
        <ele>398.967104</ele>
        <time>2021-11-19T23:30:04.367Z</time>
      </trkpt>
      <trkpt lat="47.562154" lon="8.156983">
        <ele>400.011256</ele>
        <time>2021-11-19T23:30:11.784Z</time>
      </trkpt>
      <trkpt lat="47.562164" lon="8.157389">
        <ele>401.748147</ele>
        <time>2021-11-19T23:30:23.002Z</time>
      </trkpt>
      <trkpt lat="47.561947" lon="8.157917">
        <ele>404.391179</ele>
        <time>2021-11-19T23:30:42.796Z</time>
      </trkpt>
      <trkpt lat="47.561921" lon="8.158206">
        <ele>405.637651</ele>
        <time>2021-11-19T23:30:52.433Z</time>
      </trkpt>
      <trkpt lat="47.562008" lon="8.159070">
        <ele>409.905377</ele>
        <time>2021-11-19T23:31:23.166Z</time>
      </trkpt>
      <trkpt lat="47.562210" lon="8.159656">
        <ele>413.247270</ele>
        <time>2021-11-19T23:31:44.824Z</time>
      </trkpt>
      <trkpt lat="47.562289" lon="8.159788">
        <ele>414.143325</ele>
        <time>2021-11-19T23:31:51.135Z</time>
      </trkpt>
      <trkpt lat="47.562434" lon="8.160072">
        <ele>415.951975</ele>
        <time>2021-11-19T23:32:02.161Z</time>
      </trkpt>
      <trkpt lat="47.562624" lon="8.160801">
        <ele>419.920814</ele>
        <time>2021-11-19T23:32:29.610Z</time>
      </trkpt>
      <trkpt lat="47.562695" lon="8.161170">
        <ele>421.929674</ele>
        <time>2021-11-19T23:32:43.018Z</time>
      </trkpt>
      <trkpt lat="47.562752" lon="8.161415">
        <ele>423.289877</ele>
        <time>2021-11-19T23:32:52.839Z</time>
      </trkpt>
      <trkpt lat="47.563049" lon="8.162174">
        <ele>427.894949</ele>
        <time>2021-11-19T23:33:23.743Z</time>
      </trkpt>
      <trkpt lat="47.563192" lon="8.162491">
        <ele>429.896311</ele>
        <time>2021-11-19T23:33:36.089Z</time>
      </trkpt>
      <trkpt lat="47.563295" lon="8.162696">
        <ele>431.237785</ele>
        <time>2021-11-19T23:33:45.195Z</time>
      </trkpt>
      <trkpt lat="47.563654" lon="8.163273">
        <ele>435.355608</ele>
        <time>2021-11-19T23:34:10.940Z</time>
      </trkpt>
      <trkpt lat="47.564423" lon="8.164078">
        <ele>442.670310</ele>
        <time>2021-11-19T23:35:00.778Z</time>
      </trkpt>
      <trkpt lat="47.564586" lon="8.164339">
        <ele>444.534678</ele>
        <time>2021-11-19T23:35:13.293Z</time>
      </trkpt>
      <trkpt lat="47.564874" lon="8.165016">
        <ele>448.771685</ele>
        <time>2021-11-19T23:35:39.119Z</time>
      </trkpt>
      <trkpt lat="47.564892" lon="8.165085">
        <ele>449.182708</ele>
        <time>2021-11-19T23:35:42.963Z</time>
      </trkpt>
      <trkpt lat="47.564930" lon="8.165227">
        <ele>450.031453</ele>
        <time>2021-11-19T23:35:48.112Z</time>
      </trkpt>
      <trkpt lat="47.565164" lon="8.166208">
        <ele>455.812497</ele>
        <time>2021-11-19T23:36:24.330Z</time>
      </trkpt>
      <trkpt lat="47.565360" lon="8.166598">
        <ele>458.514339</ele>
        <time>2021-11-19T23:36:41.696Z</time>
      </trkpt>
      <trkpt lat="47.566135" lon="8.167074">
        <ele>466.456724</ele>
        <time>2021-11-19T23:37:27.266Z</time>
      </trkpt>
      <trkpt lat="47.566744" lon="8.167659">
        <ele>474.833928</ele>
        <time>2021-11-19T23:38:15.275Z</time>
      </trkpt>
      <trkpt lat="47.567014" lon="8.167999">
        <ele>478.923652</ele>
        <time>2021-11-19T23:38:39.122Z</time>
      </trkpt>
      <trkpt lat="47.567250" lon="8.168420">
        <ele>483.186584</ele>
        <time>2021-11-19T23:39:08.304Z</time>
      </trkpt>
      <trkpt lat="47.567441" lon="8.168765">
        <ele>486.885619</ele>
        <time>2021-11-19T23:39:32.097Z</time>
      </trkpt>
      <trkpt lat="47.567595" lon="8.169037">
        <ele>489.853358</ele>
        <time>2021-11-19T23:39:47.823Z</time>
      </trkpt>
      <trkpt lat="47.567646" lon="8.169354">
        <ele>492.577133</ele>
        <time>2021-11-19T23:40:05.841Z</time>
      </trkpt>
      <trkpt lat="47.567470" lon="8.169899">
        <ele>497.627128</ele>
        <time>2021-11-19T23:40:35.080Z</time>
      </trkpt>
      <trkpt lat="47.567468" lon="8.170052">
        <ele>498.906150</ele>
        <time>2021-11-19T23:40:41.356Z</time>
      </trkpt>
      <trkpt lat="47.567503" lon="8.170146">
        <ele>499.803497</ele>
        <time>2021-11-19T23:40:49.005Z</time>
      </trkpt>
      <trkpt lat="47.567569" lon="8.170223">
        <ele>500.843979</ele>
        <time>2021-11-19T23:40:54.932Z</time>
      </trkpt>
      <trkpt lat="47.567770" lon="8.170215">
        <ele>503.334747</ele>
        <time>2021-11-19T23:41:06.848Z</time>
      </trkpt>
      <trkpt lat="47.568113" lon="8.170041">
        <ele>506.904390</ele>
        <time>2021-11-19T23:41:28.159Z</time>
      </trkpt>
      <trkpt lat="47.568963" lon="8.169790">
        <ele>512.530440</ele>
        <time>2021-11-19T23:42:13.413Z</time>
      </trkpt>
      <trkpt lat="47.569154" lon="8.169757">
        <ele>513.778674</ele>
        <time>2021-11-19T23:42:21.359Z</time>
      </trkpt>
      <trkpt lat="47.569104" lon="8.169420">
        <ele>515.289891</ele>
        <time>2021-11-19T23:42:28.559Z</time>
      </trkpt>
      <trkpt lat="47.569121" lon="8.169300">
        <ele>515.826913</ele>
        <time>2021-11-19T23:42:31.854Z</time>
      </trkpt>
      <trkpt lat="47.569308" lon="8.168880">
        <ele>517.753812</ele>
        <time>2021-11-19T23:42:42.944Z</time>
      </trkpt>
      <trkpt lat="47.569398" lon="8.168517">
        <ele>518.438878</ele>
        <time>2021-11-19T23:42:50.613Z</time>
      </trkpt>
      <trkpt lat="47.569487" lon="8.168034">
        <ele>519.325807</ele>
        <time>2021-11-19T23:43:01.112Z</time>
      </trkpt>
      <trkpt lat="47.569524" lon="8.167941">
        <ele>519.517057</ele>
        <time>2021-11-19T23:43:04.102Z</time>
      </trkpt>
      <trkpt lat="47.569708" lon="8.167575">
        <ele>520.325585</ele>
        <time>2021-11-19T23:43:12.790Z</time>
      </trkpt>
      <trkpt lat="47.569855" lon="8.167393">
        <ele>520.828472</ele>
        <time>2021-11-19T23:43:18.231Z</time>
      </trkpt>
      <trkpt lat="47.570149" lon="8.167162">
        <ele>521.702121</ele>
        <time>2021-11-19T23:43:27.925Z</time>
      </trkpt>
      <trkpt lat="47.570589" lon="8.166957">
        <ele>522.719212</ele>
        <time>2021-11-19T23:43:42.267Z</time>
      </trkpt>
      <trkpt lat="47.570959" lon="8.166863">
        <ele>523.399123</ele>
        <time>2021-11-19T23:43:53.897Z</time>
      </trkpt>
      <trkpt lat="47.571501" lon="8.166874">
        <ele>524.380877</ele>
        <time>2021-11-19T23:44:09.276Z</time>
      </trkpt>
      <trkpt lat="47.571648" lon="8.166925">
        <ele>524.654318</ele>
        <time>2021-11-19T23:44:13.245Z</time>
      </trkpt>
      <trkpt lat="47.571862" lon="8.166968">
        <ele>525.045457</ele>
        <time>2021-11-19T23:44:18.519Z</time>
      </trkpt>
      <trkpt lat="47.572415" lon="8.167117">
        <ele>525.667495</ele>
        <time>2021-11-19T23:44:31.530Z</time>
      </trkpt>
      <trkpt lat="47.572954" lon="8.167110">
        <ele>525.897137</ele>
        <time>2021-11-19T23:44:43.821Z</time>
      </trkpt>
      <trkpt lat="47.573056" lon="8.167138">
        <ele>525.941332</ele>
        <time>2021-11-19T23:44:46.325Z</time>
      </trkpt>
      <trkpt lat="47.573098" lon="8.167145">
        <ele>525.959338</ele>
        <time>2021-11-19T23:44:46.923Z</time>
      </trkpt>
      <trkpt lat="47.574193" lon="8.167763">
        <ele>526.821745</ele>
        <time>2021-11-19T23:45:11.030Z</time>
      </trkpt>
      <trkpt lat="47.575314" lon="8.168053">
        <ele>528.508348</ele>
        <time>2021-11-19T23:45:41.601Z</time>
      </trkpt>
      <trkpt lat="47.575351" lon="8.168039">
        <ele>528.564946</ele>
        <time>2021-11-19T23:45:43.569Z</time>
      </trkpt>
      <trkpt lat="47.575489" lon="8.167983">
        <ele>528.777008</ele>
        <time>2021-11-19T23:45:50.595Z</time>
      </trkpt>
      <trkpt lat="47.576053" lon="8.167541">
        <ele>528.330358</ele>
        <time>2021-11-19T23:46:20.259Z</time>
      </trkpt>
      <trkpt lat="47.576187" lon="8.167447">
        <ele>528.139321</ele>
        <time>2021-11-19T23:46:25.125Z</time>
      </trkpt>
      <trkpt lat="47.576203" lon="8.167494">
        <ele>528.093555</ele>
        <time>2021-11-19T23:46:26.449Z</time>
      </trkpt>
      <trkpt lat="47.576633" lon="8.167736">
        <ele>527.500847</ele>
        <time>2021-11-19T23:46:40.442Z</time>
      </trkpt>
      <trkpt lat="47.576702" lon="8.167801">
        <ele>527.395496</ele>
        <time>2021-11-19T23:46:43.906Z</time>
      </trkpt>
      <trkpt lat="47.576867" lon="8.167936">
        <ele>527.152633</ele>
        <time>2021-11-19T23:46:49.666Z</time>
      </trkpt>
      <trkpt lat="47.577072" lon="8.168073">
        <ele>526.862856</ele>
        <time>2021-11-19T23:46:56.138Z</time>
      </trkpt>
      <trkpt lat="47.577099" lon="8.168078">
        <ele>526.827792</ele>
        <time>2021-11-19T23:46:57.232Z</time>
      </trkpt>
      <trkpt lat="47.577211" lon="8.168020">
        <ele>526.674911</ele>
        <time>2021-11-19T23:47:00.492Z</time>
      </trkpt>
      <trkpt lat="47.577297" lon="8.167960">
        <ele>526.079851</ele>
        <time>2021-11-19T23:47:02.966Z</time>
      </trkpt>
      <trkpt lat="47.577421" lon="8.167885">
        <ele>525.149447</ele>
        <time>2021-11-19T23:47:05.198Z</time>
      </trkpt>
      <trkpt lat="47.577509" lon="8.167869">
        <ele>524.533510</ele>
        <time>2021-11-19T23:47:06.415Z</time>
      </trkpt>
      <trkpt lat="47.577621" lon="8.167865">
        <ele>523.755195</ele>
        <time>2021-11-19T23:47:07.817Z</time>
      </trkpt>
      <trkpt lat="47.578174" lon="8.168184">
        <ele>519.632750</ele>
        <time>2021-11-19T23:47:15.511Z</time>
      </trkpt>
      <trkpt lat="47.578308" lon="8.168344">
        <ele>518.437392</ele>
        <time>2021-11-19T23:47:17.610Z</time>
      </trkpt>
      <trkpt lat="47.578457" lon="8.168636">
        <ele>516.721538</ele>
        <time>2021-11-19T23:47:20.697Z</time>
      </trkpt>
      <trkpt lat="47.578504" lon="8.169078">
        <ele>514.624548</ele>
        <time>2021-11-19T23:47:24.444Z</time>
      </trkpt>
      <trkpt lat="47.578614" lon="8.169154">
        <ele>513.540784</ele>
        <time>2021-11-19T23:47:25.951Z</time>
      </trkpt>
      <trkpt lat="47.578658" lon="8.169156">
        <ele>513.042834</ele>
        <time>2021-11-19T23:47:26.506Z</time>
      </trkpt>
      <trkpt lat="47.578696" lon="8.169133">
        <ele>512.578538</ele>
        <time>2021-11-19T23:47:27.002Z</time>
      </trkpt>
      <trkpt lat="47.578718" lon="8.168699">
        <ele>509.257503</ele>
        <time>2021-11-19T23:47:30.765Z</time>
      </trkpt>
      <trkpt lat="47.578688" lon="8.168353">
        <ele>506.595581</ele>
        <time>2021-11-19T23:47:33.576Z</time>
      </trkpt>
      <trkpt lat="47.578589" lon="8.167949">
        <ele>503.315695</ele>
        <time>2021-11-19T23:47:37.040Z</time>
      </trkpt>
      <trkpt lat="47.578609" lon="8.167720">
        <ele>501.553691</ele>
        <time>2021-11-19T23:47:38.942Z</time>
      </trkpt>
      <trkpt lat="47.578723" lon="8.167460">
        <ele>499.187461</ele>
        <time>2021-11-19T23:47:41.411Z</time>
      </trkpt>
      <trkpt lat="47.579052" lon="8.167196">
        <ele>494.955654</ele>
        <time>2021-11-19T23:47:45.843Z</time>
      </trkpt>
      <trkpt lat="47.579148" lon="8.167183">
        <ele>493.865205</ele>
        <time>2021-11-19T23:47:46.982Z</time>
      </trkpt>
      <trkpt lat="47.579239" lon="8.167209">
        <ele>492.618928</ele>
        <time>2021-11-19T23:47:48.117Z</time>
      </trkpt>
      <trkpt lat="47.579277" lon="8.167220">
        <ele>492.094416</ele>
        <time>2021-11-19T23:47:48.571Z</time>
      </trkpt>
      <trkpt lat="47.580353" lon="8.168476">
        <ele>473.541301</ele>
        <time>2021-11-19T23:48:04.757Z</time>
      </trkpt>
      <trkpt lat="47.580740" lon="8.169048">
        <ele>466.181093</ele>
        <time>2021-11-19T23:48:11.154Z</time>
      </trkpt>
      <trkpt lat="47.580882" lon="8.169585">
        <ele>460.978778</ele>
        <time>2021-11-19T23:48:15.757Z</time>
      </trkpt>
      <trkpt lat="47.581001" lon="8.170162">
        <ele>455.536748</ele>
        <time>2021-11-19T23:48:20.582Z</time>
      </trkpt>
      <trkpt lat="47.581053" lon="8.170349">
        <ele>453.712421</ele>
        <time>2021-11-19T23:48:22.161Z</time>
      </trkpt>
      <trkpt lat="47.581149" lon="8.170639">
        <ele>450.798795</ele>
        <time>2021-11-19T23:48:24.800Z</time>
      </trkpt>
      <trkpt lat="47.581190" lon="8.170733">
        <ele>449.789169</ele>
        <time>2021-11-19T23:48:25.660Z</time>
      </trkpt>
      <trkpt lat="47.581322" lon="8.171039">
        <ele>446.513134</ele>
        <time>2021-11-19T23:48:28.615Z</time>
      </trkpt>
      <trkpt lat="47.581642" lon="8.171482">
        <ele>442.098129</ele>
        <time>2021-11-19T23:48:33.779Z</time>
      </trkpt>
      <trkpt lat="47.582069" lon="8.172293">
        <ele>435.634378</ele>
        <time>2021-11-19T23:48:42.064Z</time>
      </trkpt>
      <trkpt lat="47.582283" lon="8.172514">
        <ele>433.205206</ele>
        <time>2021-11-19T23:48:45.238Z</time>
      </trkpt>
      <trkpt lat="47.582702" lon="8.172718">
        <ele>429.097490</ele>
        <time>2021-11-19T23:48:51.319Z</time>
      </trkpt>
      <trkpt lat="47.582775" lon="8.172921">
        <ele>428.775128</ele>
        <time>2021-11-19T23:48:53.971Z</time>
      </trkpt>
      <trkpt lat="47.582753" lon="8.173015">
        <ele>428.853816</ele>
        <time>2021-11-19T23:48:54.779Z</time>
      </trkpt>
      <trkpt lat="47.582703" lon="8.173082">
        <ele>428.932837</ele>
        <time>2021-11-19T23:48:56.656Z</time>
      </trkpt>
      <trkpt lat="47.582353" lon="8.173034">
        <ele>429.344952</ele>
        <time>2021-11-19T23:49:05.003Z</time>
      </trkpt>
      <trkpt lat="47.581938" lon="8.173171">
        <ele>429.843442</ele>
        <time>2021-11-19T23:49:17.402Z</time>
      </trkpt>
      <trkpt lat="47.581664" lon="8.173110">
        <ele>430.168299</ele>
        <time>2021-11-19T23:49:24.898Z</time>
      </trkpt>
      <trkpt lat="47.581566" lon="8.173106">
        <ele>430.283244</ele>
        <time>2021-11-19T23:49:29.265Z</time>
      </trkpt>
      <trkpt lat="47.581401" lon="8.173161">
        <ele>430.481531</ele>
        <time>2021-11-19T23:49:36.659Z</time>
      </trkpt>
      <trkpt lat="47.581187" lon="8.173239">
        <ele>430.739910</ele>
        <time>2021-11-19T23:49:42.544Z</time>
      </trkpt>
      <trkpt lat="47.581107" lon="8.173293">
        <ele>430.645722</ele>
        <time>2021-11-19T23:49:47.713Z</time>
      </trkpt>
      <trkpt lat="47.581040" lon="8.173360">
        <ele>430.519420</ele>
        <time>2021-11-19T23:49:50.444Z</time>
      </trkpt>
      <trkpt lat="47.580921" lon="8.173516">
        <ele>430.271165</ele>
        <time>2021-11-19T23:49:54.982Z</time>
      </trkpt>
      <trkpt lat="47.580899" lon="8.173634">
        <ele>430.142107</ele>
        <time>2021-11-19T23:49:58.431Z</time>
      </trkpt>
      <trkpt lat="47.580895" lon="8.173757">
        <ele>430.012292</ele>
        <time>2021-11-19T23:50:01.958Z</time>
      </trkpt>
      <trkpt lat="47.580929" lon="8.173895">
        <ele>429.857415</ele>
        <time>2021-11-19T23:50:03.350Z</time>
      </trkpt>
      <trkpt lat="47.581093" lon="8.174089">
        <ele>429.529521</ele>
        <time>2021-11-19T23:50:09.877Z</time>
      </trkpt>
      <trkpt lat="47.581786" lon="8.174089">
        <ele>428.446502</ele>
        <time>2021-11-19T23:50:20.627Z</time>
      </trkpt>
      <trkpt lat="47.581973" lon="8.174217">
        <ele>428.124612</ele>
        <time>2021-11-19T23:50:23.134Z</time>
      </trkpt>
      <trkpt lat="47.582094" lon="8.174425">
        <ele>427.080106</ele>
        <time>2021-11-19T23:50:25.636Z</time>
      </trkpt>
      <trkpt lat="47.582339" lon="8.174888">
        <ele>422.294453</ele>
        <time>2021-11-19T23:50:30.484Z</time>
      </trkpt>
      <trkpt lat="47.582577" lon="8.175149">
        <ele>418.725316</ele>
        <time>2021-11-19T23:50:33.972Z</time>
      </trkpt>
      <trkpt lat="47.582989" lon="8.175334">
        <ele>413.535254</ele>
        <time>2021-11-19T23:50:39.081Z</time>
      </trkpt>
      <trkpt lat="47.583061" lon="8.175390">
        <ele>412.554989</ele>
        <time>2021-11-19T23:50:40.007Z</time>
      </trkpt>
      <trkpt lat="47.583292" lon="8.175767">
        <ele>408.413030</ele>
        <time>2021-11-19T23:50:44.043Z</time>
      </trkpt>
      <trkpt lat="47.583345" lon="8.175789">
        <ele>407.749469</ele>
        <time>2021-11-19T23:50:44.669Z</time>
      </trkpt>
      <trkpt lat="47.583607" lon="8.175910">
        <ele>404.616734</ele>
        <time>2021-11-19T23:50:47.964Z</time>
      </trkpt>
      <trkpt lat="47.583749" lon="8.175890">
        <ele>403.062956</ele>
        <time>2021-11-19T23:50:49.642Z</time>
      </trkpt>
      <trkpt lat="47.583784" lon="8.175894">
        <ele>402.680568</ele>
        <time>2021-11-19T23:50:50.037Z</time>
      </trkpt>
      <trkpt lat="47.583980" lon="8.175915">
        <ele>400.539961</ele>
        <time>2021-11-19T23:50:52.458Z</time>
      </trkpt>
      <trkpt lat="47.584063" lon="8.175897">
        <ele>399.626216</ele>
        <time>2021-11-19T23:50:53.436Z</time>
      </trkpt>
      <trkpt lat="47.584320" lon="8.175828">
        <ele>396.781166</ele>
        <time>2021-11-19T23:50:56.634Z</time>
      </trkpt>
      <trkpt lat="47.584534" lon="8.175831">
        <ele>394.449948</ele>
        <time>2021-11-19T23:50:59.173Z</time>
      </trkpt>
      <trkpt lat="47.586133" lon="8.175874">
        <ele>378.446085</ele>
        <time>2021-11-19T23:51:19.098Z</time>
      </trkpt>
      <trkpt lat="47.586296" lon="8.175856">
        <ele>376.927299</ele>
        <time>2021-11-19T23:51:21.106Z</time>
      </trkpt>
      <trkpt lat="47.587168" lon="8.175856">
        <ele>368.716230</ele>
        <time>2021-11-19T23:51:31.784Z</time>
      </trkpt>
      <trkpt lat="47.587351" lon="8.175839">
        <ele>366.849212</ele>
        <time>2021-11-19T23:51:33.984Z</time>
      </trkpt>
      <trkpt lat="47.587584" lon="8.175798">
        <ele>364.460083</ele>
        <time>2021-11-19T23:51:36.809Z</time>
      </trkpt>
      <trkpt lat="47.587912" lon="8.175687">
        <ele>361.034392</ele>
        <time>2021-11-19T23:51:40.869Z</time>
      </trkpt>
      <trkpt lat="47.588152" lon="8.175562">
        <ele>358.444245</ele>
        <time>2021-11-19T23:51:43.962Z</time>
      </trkpt>
      <trkpt lat="47.588280" lon="8.175497">
        <ele>357.066585</ele>
        <time>2021-11-19T23:51:45.587Z</time>
      </trkpt>
      <trkpt lat="47.588814" lon="8.175535">
        <ele>351.631125</ele>
        <time>2021-11-19T23:51:52.130Z</time>
      </trkpt>
      <trkpt lat="47.589038" lon="8.175531">
        <ele>350.307273</ele>
        <time>2021-11-19T23:51:54.877Z</time>
      </trkpt>
      <trkpt lat="47.589150" lon="8.175524">
        <ele>349.644808</ele>
        <time>2021-11-19T23:51:56.310Z</time>
      </trkpt>
      <trkpt lat="47.589437" lon="8.175426">
        <ele>347.904351</ele>
        <time>2021-11-19T23:52:00.067Z</time>
      </trkpt>
      <trkpt lat="47.589490" lon="8.175383">
        <ele>347.547317</ele>
        <time>2021-11-19T23:52:00.832Z</time>
      </trkpt>
      <trkpt lat="47.590268" lon="8.175295">
        <ele>342.936272</ele>
        <time>2021-11-19T23:52:11.436Z</time>
      </trkpt>
      <trkpt lat="47.590378" lon="8.175282">
        <ele>342.284152</ele>
        <time>2021-11-19T23:52:12.910Z</time>
      </trkpt>
      <trkpt lat="47.590446" lon="8.175273">
        <ele>341.880700</ele>
        <time>2021-11-19T23:52:13.898Z</time>
      </trkpt>
      <trkpt lat="47.590494" lon="8.175266">
        <ele>341.595669</ele>
        <time>2021-11-19T23:52:14.625Z</time>
      </trkpt>
      <trkpt lat="47.590554" lon="8.175213">
        <ele>341.182939</ele>
        <time>2021-11-19T23:52:15.579Z</time>
      </trkpt>
      <trkpt lat="47.590635" lon="8.175360">
        <ele>340.852416</ele>
        <time>2021-11-19T23:52:16.907Z</time>
      </trkpt>
      <trkpt lat="47.590917" lon="8.175180">
        <ele>340.355521</ele>
        <time>2021-11-19T23:52:21.612Z</time>
      </trkpt>
      <trkpt lat="47.590971" lon="8.175139">
        <ele>340.257333</ele>
        <time>2021-11-19T23:52:22.478Z</time>
      </trkpt>
      <trkpt lat="47.591153" lon="8.174995">
        <ele>339.923464</ele>
        <time>2021-11-19T23:52:25.804Z</time>
      </trkpt>
      <trkpt lat="47.591351" lon="8.174827">
        <ele>339.554255</ele>
        <time>2021-11-19T23:52:29.407Z</time>
      </trkpt>
      <trkpt lat="47.591820" lon="8.174385">
        <ele>338.654862</ele>
        <time>2021-11-19T23:52:39.177Z</time>
      </trkpt>
      <trkpt lat="47.592079" lon="8.174112">
        <ele>338.140566</ele>
        <time>2021-11-19T23:52:45.399Z</time>
      </trkpt>
      <trkpt lat="47.592226" lon="8.173976">
        <ele>338.089020</ele>
        <time>2021-11-19T23:52:48.843Z</time>
      </trkpt>
      <trkpt lat="47.592861" lon="8.173461">
        <ele>338.025728</ele>
        <time>2021-11-19T23:53:03.373Z</time>
      </trkpt>
      <trkpt lat="47.593060" lon="8.173300">
        <ele>338.005905</ele>
        <time>2021-11-19T23:53:08.013Z</time>
      </trkpt>
      <trkpt lat="47.593562" lon="8.172891">
        <ele>337.955817</ele>
        <time>2021-11-19T23:53:19.878Z</time>
      </trkpt>
      <trkpt lat="47.593648" lon="8.172755">
        <ele>337.944822</ele>
        <time>2021-11-19T23:53:22.474Z</time>
      </trkpt>
      <trkpt lat="47.593672" lon="8.172679">
        <ele>337.875329</ele>
        <time>2021-11-19T23:53:23.586Z</time>
      </trkpt>
      <trkpt lat="47.593778" lon="8.172683">
        <ele>337.744780</ele>
        <time>2021-11-19T23:53:25.738Z</time>
      </trkpt>
      <trkpt lat="47.593996" lon="8.172601">
        <ele>337.467878</ele>
        <time>2021-11-19T23:53:30.017Z</time>
      </trkpt>
      <trkpt lat="47.594577" lon="8.172353">
        <ele>336.723505</ele>
        <time>2021-11-19T23:53:40.722Z</time>
      </trkpt>
      <trkpt lat="47.595292" lon="8.172024">
        <ele>335.801790</ele>
        <time>2021-11-19T23:53:53.167Z</time>
      </trkpt>
      <trkpt lat="47.595486" lon="8.171961">
        <ele>335.076429</ele>
        <time>2021-11-19T23:53:56.111Z</time>
      </trkpt>
      <trkpt lat="47.595819" lon="8.171918">
        <ele>333.521313</ele>
        <time>2021-11-19T23:54:00.758Z</time>
      </trkpt>
      <trkpt lat="47.596041" lon="8.171960">
        <ele>332.480106</ele>
        <time>2021-11-19T23:54:03.882Z</time>
      </trkpt>
      <trkpt lat="47.596521" lon="8.172593">
        <ele>329.491631</ele>
        <time>2021-11-19T23:54:12.594Z</time>
      </trkpt>
      <trkpt lat="47.596715" lon="8.172923">
        <ele>328.118125</ele>
        <time>2021-11-19T23:54:16.351Z</time>
      </trkpt>
      <trkpt lat="47.596893" lon="8.173084">
        <ele>327.127225</ele>
        <time>2021-11-19T23:54:18.270Z</time>
      </trkpt>
      <trkpt lat="47.596959" lon="8.173181">
        <ele>326.652759</ele>
        <time>2021-11-19T23:54:19.117Z</time>
      </trkpt>
      <trkpt lat="47.597048" lon="8.173311">
        <ele>326.014893</ele>
        <time>2021-11-19T23:54:20.279Z</time>
      </trkpt>
      <trkpt lat="47.597117" lon="8.173411">
        <ele>325.522265</ele>
        <time>2021-11-19T23:54:21.160Z</time>
      </trkpt>
      <trkpt lat="47.597294" lon="8.173908">
        <ele>323.587006</ele>
        <time>2021-11-19T23:54:24.675Z</time>
      </trkpt>
      <trkpt lat="47.597347" lon="8.173942">
        <ele>323.292151</ele>
        <time>2021-11-19T23:54:25.235Z</time>
      </trkpt>
      <trkpt lat="47.597735" lon="8.173848">
        <ele>321.284748</ele>
        <time>2021-11-19T23:54:28.931Z</time>
      </trkpt>
      <trkpt lat="47.597787" lon="8.173826">
        <ele>321.008640</ele>
        <time>2021-11-19T23:54:29.390Z</time>
      </trkpt>
      <trkpt lat="47.597793" lon="8.173758">
        <ele>320.772510</ele>
        <time>2021-11-19T23:54:29.879Z</time>
      </trkpt>
      <trkpt lat="47.597788" lon="8.173696">
        <ele>320.557513</ele>
        <time>2021-11-19T23:54:30.296Z</time>
      </trkpt>
      <trkpt lat="47.597745" lon="8.173609">
        <ele>320.186112</ele>
        <time>2021-11-19T23:54:30.995Z</time>
      </trkpt>
      <trkpt lat="47.597695" lon="8.173531">
        <ele>319.815563</ele>
        <time>2021-11-19T23:54:31.712Z</time>
      </trkpt>
      <trkpt lat="47.597552" lon="8.173338">
        <ele>318.828275</ele>
        <time>2021-11-19T23:54:33.600Z</time>
      </trkpt>
      <trkpt lat="47.597424" lon="8.173049">
        <ele>317.816690</ele>
        <time>2021-11-19T23:54:36.030Z</time>
      </trkpt>
      <trkpt lat="47.597268" lon="8.172337">
        <ele>316.092165</ele>
        <time>2021-11-19T23:54:40.869Z</time>
      </trkpt>
      <trkpt lat="47.596865" lon="8.171710">
        <ele>314.096854</ele>
        <time>2021-11-19T23:54:46.860Z</time>
      </trkpt>
      <trkpt lat="47.596900" lon="8.171578">
        <ele>313.770122</ele>
        <time>2021-11-19T23:54:47.824Z</time>
      </trkpt>
      <trkpt lat="47.597024" lon="8.171618">
        <ele>313.336630</ele>
        <time>2021-11-19T23:54:49.080Z</time>
      </trkpt>
      <trkpt lat="47.597212" lon="8.171709">
        <ele>312.661073</ele>
        <time>2021-11-19T23:54:51.298Z</time>
      </trkpt>
      <trkpt lat="47.597275" lon="8.171743">
        <ele>312.432055</ele>
        <time>2021-11-19T23:54:51.915Z</time>
      </trkpt>
      <trkpt lat="47.597464" lon="8.171816">
        <ele>311.838466</ele>
        <time>2021-11-19T23:54:54.024Z</time>
      </trkpt>
      <trkpt lat="47.597828" lon="8.172147">
        <ele>310.778416</ele>
        <time>2021-11-19T23:54:58.415Z</time>
      </trkpt>
      <trkpt lat="47.597908" lon="8.172200">
        <ele>310.560886</ele>
        <time>2021-11-19T23:54:59.224Z</time>
      </trkpt>
      <trkpt lat="47.597940" lon="8.172115">
        <ele>310.397911</ele>
        <time>2021-11-19T23:54:59.876Z</time>
      </trkpt>
      <trkpt lat="47.597960" lon="8.172067">
        <ele>310.303451</ele>
        <time>2021-11-19T23:55:00.258Z</time>
      </trkpt>
      <trkpt lat="47.598789" lon="8.170031">
        <ele>307.200243</ele>
        <time>2021-11-19T23:55:17.850Z</time>
      </trkpt>
      <trkpt lat="47.598802" lon="8.169999">
        <ele>307.181759</ele>
        <time>2021-11-19T23:55:18.177Z</time>
      </trkpt>
      <trkpt lat="47.598856" lon="8.169867">
        <ele>307.105370</ele>
        <time>2021-11-19T23:55:19.540Z</time>
      </trkpt>
      <trkpt lat="47.598839" lon="8.169662">
        <ele>307.003178</ele>
        <time>2021-11-19T23:55:21.369Z</time>
      </trkpt>
      <trkpt lat="47.598499" lon="8.168926">
        <ele>306.561767</ele>
        <time>2021-11-19T23:55:29.245Z</time>
      </trkpt>
      <trkpt lat="47.598223" lon="8.168539">
        <ele>306.283064</ele>
        <time>2021-11-19T23:55:34.948Z</time>
      </trkpt>
      <trkpt lat="47.598098" lon="8.168367">
        <ele>306.352378</ele>
        <time>2021-11-19T23:55:37.829Z</time>
      </trkpt>
      <trkpt lat="47.598008" lon="8.168249">
        <ele>306.452345</ele>
        <time>2021-11-19T23:55:39.881Z</time>
      </trkpt>
      <trkpt lat="47.598109" lon="8.168119">
        <ele>306.563634</ele>
        <time>2021-11-19T23:55:42.451Z</time>
      </trkpt>
      <trkpt lat="47.598242" lon="8.167955">
        <ele>306.707572</ele>
        <time>2021-11-19T23:55:45.712Z</time>
      </trkpt>
      <trkpt lat="47.598388" lon="8.167785">
        <ele>306.862042</ele>
        <time>2021-11-19T23:55:49.218Z</time>
      </trkpt>
      <trkpt lat="47.598443" lon="8.167732">
        <ele>306.916624</ele>
        <time>2021-11-19T23:55:50.529Z</time>
      </trkpt>
      <trkpt lat="47.598511" lon="8.167699">
        <ele>306.976163</ele>
        <time>2021-11-19T23:55:51.900Z</time>
      </trkpt>
      <trkpt lat="47.598600" lon="8.167686">
        <ele>307.050583</ele>
        <time>2021-11-19T23:55:53.504Z</time>
      </trkpt>
      <trkpt lat="47.598812" lon="8.167627">
        <ele>307.230078</ele>
        <time>2021-11-19T23:55:57.837Z</time>
      </trkpt>
      <trkpt lat="47.599012" lon="8.167567">
        <ele>307.399880</ele>
        <time>2021-11-19T23:56:01.530Z</time>
      </trkpt>
      <trkpt lat="47.599407" lon="8.167443">
        <ele>307.735863</ele>
        <time>2021-11-19T23:56:08.980Z</time>
      </trkpt>
      <trkpt lat="47.599501" lon="8.167395">
        <ele>307.759452</ele>
        <time>2021-11-19T23:56:10.898Z</time>
      </trkpt>
      <trkpt lat="47.599964" lon="8.167066">
        <ele>307.839606</ele>
        <time>2021-11-19T23:56:19.788Z</time>
      </trkpt>
      <trkpt lat="47.599922" lon="8.167015">
        <ele>307.848080</ele>
        <time>2021-11-19T23:56:21.159Z</time>
      </trkpt>
      <trkpt lat="47.599687" lon="8.167094">
        <ele>307.885700</ele>
        <time>2021-11-19T23:56:26.933Z</time>
      </trkpt>
      <trkpt lat="47.599659" lon="8.167070">
        <ele>307.890749</ele>
        <time>2021-11-19T23:56:27.747Z</time>
      </trkpt>
      <trkpt lat="47.599634" lon="8.167047">
        <ele>307.895342</ele>
        <time>2021-11-19T23:56:28.240Z</time>
      </trkpt>
      <trkpt lat="47.599006" lon="8.163203">
        <ele>307.101097</ele>
        <time>2021-11-19T23:57:17.268Z</time>
      </trkpt>
      <trkpt lat="47.598400" lon="8.158819">
        <ele>306.882998</ele>
        <time>2021-11-19T23:58:16.745Z</time>
      </trkpt>
      <trkpt lat="47.598357" lon="8.158487">
        <ele>306.904530</ele>
        <time>2021-11-19T23:58:21.504Z</time>
      </trkpt>
      <trkpt lat="47.598368" lon="8.158424">
        <ele>306.908675</ele>
        <time>2021-11-19T23:58:22.342Z</time>
      </trkpt>
      <trkpt lat="47.599693" lon="8.157319">
        <ele>308.411188</ele>
        <time>2021-11-19T23:58:58.238Z</time>
      </trkpt>
      <trkpt lat="47.599875" lon="8.157189">
        <ele>308.651647</ele>
        <time>2021-11-19T23:59:04.126Z</time>
      </trkpt>
      <trkpt lat="47.600053" lon="8.157054">
        <ele>308.889625</ele>
        <time>2021-11-19T23:59:08.236Z</time>
      </trkpt>
      <trkpt lat="47.600082" lon="8.157033">
        <ele>308.928040</ele>
        <time>2021-11-19T23:59:09.085Z</time>
      </trkpt>
      <trkpt lat="47.600128" lon="8.157002">
        <ele>308.988183</ele>
        <time>2021-11-19T23:59:10.493Z</time>
      </trkpt>
      <trkpt lat="47.600421" lon="8.156716">
        <ele>309.531805</ele>
        <time>2021-11-19T23:59:18.721Z</time>
      </trkpt>
      <trkpt lat="47.600545" lon="8.156492">
        <ele>309.853407</ele>
        <time>2021-11-19T23:59:22.903Z</time>
      </trkpt>
      <trkpt lat="47.600627" lon="8.156310">
        <ele>310.096303</ele>
        <time>2021-11-19T23:59:26.545Z</time>
      </trkpt>
      <trkpt lat="47.600740" lon="8.156020">
        <ele>310.467974</ele>
        <time>2021-11-19T23:59:31.326Z</time>
      </trkpt>
      <trkpt lat="47.600788" lon="8.155796">
        <ele>310.728790</ele>
        <time>2021-11-19T23:59:35.274Z</time>
      </trkpt>
      <trkpt lat="47.600810" lon="8.155622">
        <ele>310.925238</ele>
        <time>2021-11-19T23:59:37.732Z</time>
      </trkpt>
      <trkpt lat="47.600825" lon="8.155110">
        <ele>311.493924</ele>
        <time>2021-11-19T23:59:45.194Z</time>
      </trkpt>
      <trkpt lat="47.600776" lon="8.154780">
        <ele>311.868888</ele>
        <time>2021-11-19T23:59:49.670Z</time>
      </trkpt>
      <trkpt lat="47.600739" lon="8.154598">
        <ele>312.035690</ele>
        <time>2021-11-19T23:59:52.012Z</time>
      </trkpt>
      <trkpt lat="47.600603" lon="8.154164">
        <ele>312.030741</ele>
        <time>2021-11-19T23:59:57.856Z</time>
      </trkpt>
      <trkpt lat="47.600374" lon="8.153460">
        <ele>312.022657</ele>
        <time>2021-11-20T00:00:06.151Z</time>
      </trkpt>
      <trkpt lat="47.599795" lon="8.151707">
        <ele>311.974646</ele>
        <time>2021-11-20T00:00:23.079Z</time>
      </trkpt>
      <trkpt lat="47.599467" lon="8.150696">
        <ele>311.909610</ele>
        <time>2021-11-20T00:00:33.726Z</time>
      </trkpt>
      <trkpt lat="47.599255" lon="8.150072">
        <ele>311.869105</ele>
        <time>2021-11-20T00:00:41.161Z</time>
      </trkpt>
      <trkpt lat="47.599245" lon="8.150041">
        <ele>311.867113</ele>
        <time>2021-11-20T00:00:41.511Z</time>
      </trkpt>
      <trkpt lat="47.599066" lon="8.149515">
        <ele>312.202142</ele>
        <time>2021-11-20T00:00:48.094Z</time>
      </trkpt>
      <trkpt lat="47.598988" lon="8.149038">
        <ele>312.675626</ele>
        <time>2021-11-20T00:00:53.788Z</time>
      </trkpt>
      <trkpt lat="47.599056" lon="8.148448">
        <ele>313.253034</ele>
        <time>2021-11-20T00:01:01.451Z</time>
      </trkpt>
      <trkpt lat="47.599092" lon="8.148294">
        <ele>313.410267</ele>
        <time>2021-11-20T00:01:04.104Z</time>
      </trkpt>
      <trkpt lat="47.599227" lon="8.148032">
        <ele>313.728352</ele>
        <time>2021-11-20T00:01:08.109Z</time>
      </trkpt>
      <trkpt lat="47.599362" lon="8.147866">
        <ele>313.979235</ele>
        <time>2021-11-20T00:01:12.707Z</time>
      </trkpt>
      <trkpt lat="47.599417" lon="8.147799">
        <ele>314.081059</ele>
        <time>2021-11-20T00:01:14.195Z</time>
      </trkpt>
      <trkpt lat="47.599842" lon="8.147348">
        <ele>315.478484</ele>
        <time>2021-11-20T00:01:27.298Z</time>
      </trkpt>
      <trkpt lat="47.599930" lon="8.147256">
        <ele>315.881690</ele>
        <time>2021-11-20T00:01:31.302Z</time>
      </trkpt>
      <trkpt lat="47.600375" lon="8.146597">
        <ele>318.236761</ele>
        <time>2021-11-20T00:01:50.490Z</time>
      </trkpt>
      <trkpt lat="47.600394" lon="8.146557">
        <ele>318.360313</ele>
        <time>2021-11-20T00:01:51.990Z</time>
      </trkpt>
      <trkpt lat="47.600445" lon="8.146449">
        <ele>318.693258</ele>
        <time>2021-11-20T00:01:54.866Z</time>
      </trkpt>
      <trkpt lat="47.600684" lon="8.145860">
        <ele>320.429115</ele>
        <time>2021-11-20T00:02:09.155Z</time>
      </trkpt>
      <trkpt lat="47.600767" lon="8.145560">
        <ele>321.227404</ele>
        <time>2021-11-20T00:02:16.427Z</time>
      </trkpt>
      <trkpt lat="47.600787" lon="8.145439">
        <ele>321.466144</ele>
        <time>2021-11-20T00:02:18.791Z</time>
      </trkpt>
      <trkpt lat="47.600796" lon="8.145294">
        <ele>321.745186</ele>
        <time>2021-11-20T00:02:21.520Z</time>
      </trkpt>
      <trkpt lat="47.600794" lon="8.145101">
        <ele>322.115080</ele>
        <time>2021-11-20T00:02:25.681Z</time>
      </trkpt>
      <trkpt lat="47.600774" lon="8.144904">
        <ele>322.496851</ele>
        <time>2021-11-20T00:02:29.458Z</time>
      </trkpt>
      <trkpt lat="47.600687" lon="8.144558">
        <ele>323.204501</ele>
        <time>2021-11-20T00:02:36.804Z</time>
      </trkpt>
      <trkpt lat="47.600643" lon="8.144448">
        <ele>323.449596</ele>
        <time>2021-11-20T00:02:39.150Z</time>
      </trkpt>
      <trkpt lat="47.600454" lon="8.144069">
        <ele>324.352929</ele>
        <time>2021-11-20T00:02:47.987Z</time>
      </trkpt>
      <trkpt lat="47.599726" lon="8.143190">
        <ele>326.376568</ele>
        <time>2021-11-20T00:03:08.847Z</time>
      </trkpt>
      <trkpt lat="47.599711" lon="8.143167">
        <ele>326.384957</ele>
        <time>2021-11-20T00:03:09.213Z</time>
      </trkpt>
      <trkpt lat="47.599625" lon="8.143040">
        <ele>326.432148</ele>
        <time>2021-11-20T00:03:11.133Z</time>
      </trkpt>
      <trkpt lat="47.599119" lon="8.142538">
        <ele>326.668859</ele>
        <time>2021-11-20T00:03:20.302Z</time>
      </trkpt>
      <trkpt lat="47.598952" lon="8.142414">
        <ele>326.741477</ele>
        <time>2021-11-20T00:03:23.062Z</time>
      </trkpt>
      <trkpt lat="47.598823" lon="8.142341">
        <ele>326.795163</ele>
        <time>2021-11-20T00:03:25.082Z</time>
      </trkpt>
      <trkpt lat="47.598633" lon="8.142288">
        <ele>326.870336</ele>
        <time>2021-11-20T00:03:27.859Z</time>
      </trkpt>
      <trkpt lat="47.598494" lon="8.142235">
        <ele>326.926140</ele>
        <time>2021-11-20T00:03:30.023Z</time>
      </trkpt>
      <trkpt lat="47.598317" lon="8.142168">
        <ele>326.918518</ele>
        <time>2021-11-20T00:03:32.555Z</time>
      </trkpt>
      <trkpt lat="47.597924" lon="8.141954">
        <ele>326.533436</ele>
        <time>2021-11-20T00:03:38.662Z</time>
      </trkpt>
      <trkpt lat="47.597726" lon="8.141757">
        <ele>326.314122</ele>
        <time>2021-11-20T00:03:41.688Z</time>
      </trkpt>
      <trkpt lat="47.596816" lon="8.140366">
        <ele>325.071174</ele>
        <time>2021-11-20T00:03:57.020Z</time>
      </trkpt>
      <trkpt lat="47.596658" lon="8.140124">
        <ele>324.821065</ele>
        <time>2021-11-20T00:03:59.637Z</time>
      </trkpt>
      <trkpt lat="47.596283" lon="8.139715">
        <ele>324.308501</ele>
        <time>2021-11-20T00:04:05.125Z</time>
      </trkpt>
      <trkpt lat="47.595214" lon="8.137474">
        <ele>322.698332</ele>
        <time>2021-11-20T00:04:28.230Z</time>
      </trkpt>
      <trkpt lat="47.595110" lon="8.137170">
        <ele>322.546604</ele>
        <time>2021-11-20T00:04:31.407Z</time>
      </trkpt>
      <trkpt lat="47.595026" lon="8.136793">
        <ele>322.369878</ele>
        <time>2021-11-20T00:04:35.080Z</time>
      </trkpt>
      <trkpt lat="47.594983" lon="8.136598">
        <ele>322.278560</ele>
        <time>2021-11-20T00:04:36.942Z</time>
      </trkpt>
      <trkpt lat="47.594962" lon="8.136531">
        <ele>322.245674</ele>
        <time>2021-11-20T00:04:37.591Z</time>
      </trkpt>
      <trkpt lat="47.594900" lon="8.136327">
        <ele>322.145722</ele>
        <time>2021-11-20T00:04:39.646Z</time>
      </trkpt>
      <trkpt lat="47.594823" lon="8.136125">
        <ele>322.036006</ele>
        <time>2021-11-20T00:04:41.663Z</time>
      </trkpt>
      <trkpt lat="47.594662" lon="8.135767">
        <ele>321.832539</ele>
        <time>2021-11-20T00:04:45.443Z</time>
      </trkpt>
      <trkpt lat="47.594351" lon="8.135126">
        <ele>321.459154</ele>
        <time>2021-11-20T00:04:52.334Z</time>
      </trkpt>
      <trkpt lat="47.594071" lon="8.134556">
        <ele>321.125708</ele>
        <time>2021-11-20T00:04:58.564Z</time>
      </trkpt>
      <trkpt lat="47.593939" lon="8.134327">
        <ele>320.983260</ele>
        <time>2021-11-20T00:05:01.142Z</time>
      </trkpt>
      <trkpt lat="47.593730" lon="8.134016">
        <ele>320.639894</ele>
        <time>2021-11-20T00:05:04.755Z</time>
      </trkpt>
      <trkpt lat="47.593583" lon="8.133716">
        <ele>320.257486</ele>
        <time>2021-11-20T00:05:07.647Z</time>
      </trkpt>
      <trkpt lat="47.593554" lon="8.133656">
        <ele>320.181363</ele>
        <time>2021-11-20T00:05:08.212Z</time>
      </trkpt>
      <trkpt lat="47.593549" lon="8.133646">
        <ele>320.168525</ele>
        <time>2021-11-20T00:05:08.304Z</time>
      </trkpt>
      <trkpt lat="47.593504" lon="8.133551">
        <ele>320.048807</ele>
        <time>2021-11-20T00:05:09.184Z</time>
      </trkpt>
      <trkpt lat="47.593486" lon="8.133523">
        <ele>320.008915</ele>
        <time>2021-11-20T00:05:09.471Z</time>
      </trkpt>
      <trkpt lat="47.593091" lon="8.132750">
        <ele>319.008783</ele>
        <time>2021-11-20T00:05:16.691Z</time>
      </trkpt>
      <trkpt lat="47.592867" lon="8.132484">
        <ele>318.569955</ele>
        <time>2021-11-20T00:05:19.896Z</time>
      </trkpt>
      <trkpt lat="47.592836" lon="8.132464">
        <ele>318.518259</ele>
        <time>2021-11-20T00:05:20.264Z</time>
      </trkpt>
      <trkpt lat="47.592814" lon="8.132534">
        <ele>318.438618</ele>
        <time>2021-11-20T00:05:20.856Z</time>
      </trkpt>
      <trkpt lat="47.592719" lon="8.132686">
        <ele>318.224905</ele>
        <time>2021-11-20T00:05:22.445Z</time>
      </trkpt>
      <trkpt lat="47.592658" lon="8.132770">
        <ele>318.121220</ele>
        <time>2021-11-20T00:05:23.390Z</time>
      </trkpt>
      <trkpt lat="47.592571" lon="8.132886">
        <ele>318.041385</ele>
        <time>2021-11-20T00:05:24.809Z</time>
      </trkpt>
      <trkpt lat="47.592062" lon="8.133399">
        <ele>317.621432</ele>
        <time>2021-11-20T00:05:32.399Z</time>
      </trkpt>
      <trkpt lat="47.592009" lon="8.133338">
        <ele>317.575651</ele>
        <time>2021-11-20T00:05:33.218Z</time>
      </trkpt>
      <trkpt lat="47.591957" lon="8.133278">
        <ele>317.530691</ele>
        <time>2021-11-20T00:05:34.025Z</time>
      </trkpt>
      <trkpt lat="47.591905" lon="8.133207">
        <ele>317.482457</ele>
        <time>2021-11-20T00:05:34.996Z</time>
      </trkpt>
      <trkpt lat="47.591548" lon="8.132722">
        <ele>317.152071</ele>
        <time>2021-11-20T00:05:41.329Z</time>
      </trkpt>
      <trkpt lat="47.591517" lon="8.132683">
        <ele>317.124330</ele>
        <time>2021-11-20T00:05:41.863Z</time>
      </trkpt>
      <trkpt lat="47.591370" lon="8.132496">
        <ele>316.992168</ele>
        <time>2021-11-20T00:05:44.880Z</time>
      </trkpt>
      <trkpt lat="47.591175" lon="8.132110">
        <ele>317.027385</ele>
        <time>2021-11-20T00:05:49.868Z</time>
      </trkpt>
      <trkpt lat="47.591151" lon="8.131993">
        <ele>317.072518</ele>
        <time>2021-11-20T00:05:51.381Z</time>
      </trkpt>
      <trkpt lat="47.591136" lon="8.131905">
        <ele>317.106017</ele>
        <time>2021-11-20T00:05:52.223Z</time>
      </trkpt>
      <trkpt lat="47.591142" lon="8.131624">
        <ele>317.209777</ele>
        <time>2021-11-20T00:05:55.105Z</time>
      </trkpt>
      <trkpt lat="47.591143" lon="8.131579">
        <ele>317.226394</ele>
        <time>2021-11-20T00:05:55.592Z</time>
      </trkpt>
      <trkpt lat="47.591199" lon="8.131358">
        <ele>317.313524</ele>
        <time>2021-11-20T00:05:58.122Z</time>
      </trkpt>
      <trkpt lat="47.591247" lon="8.131227">
        <ele>317.368546</ele>
        <time>2021-11-20T00:05:59.619Z</time>
      </trkpt>
      <trkpt lat="47.591347" lon="8.130977">
        <ele>317.475820</ele>
        <time>2021-11-20T00:06:03.211Z</time>
      </trkpt>
      <trkpt lat="47.591364" lon="8.130933">
        <ele>317.494535</ele>
        <time>2021-11-20T00:06:03.729Z</time>
      </trkpt>
      <trkpt lat="47.591433" lon="8.130739">
        <ele>317.575480</ele>
        <time>2021-11-20T00:06:06.142Z</time>
      </trkpt>
      <trkpt lat="47.591479" lon="8.130581">
        <ele>317.638994</ele>
        <time>2021-11-20T00:06:08.539Z</time>
      </trkpt>
      <trkpt lat="47.591505" lon="8.130439">
        <ele>317.693298</ele>
        <time>2021-11-20T00:06:10.357Z</time>
      </trkpt>
      <trkpt lat="47.591505" lon="8.130232">
        <ele>317.769694</ele>
        <time>2021-11-20T00:06:12.663Z</time>
      </trkpt>
      <trkpt lat="47.591483" lon="8.130025">
        <ele>317.847032</ele>
        <time>2021-11-20T00:06:15.545Z</time>
      </trkpt>
      <trkpt lat="47.591460" lon="8.129923">
        <ele>317.886725</ele>
        <time>2021-11-20T00:06:17.339Z</time>
      </trkpt>
      <trkpt lat="47.591347" lon="8.129594">
        <ele>318.299932</ele>
        <time>2021-11-20T00:06:23.439Z</time>
      </trkpt>
      <trkpt lat="47.591213" lon="8.129277">
        <ele>318.742050</ele>
        <time>2021-11-20T00:06:29.762Z</time>
      </trkpt>
      <trkpt lat="47.590649" lon="8.127923">
        <ele>320.622741</ele>
        <time>2021-11-20T00:06:58.919Z</time>
      </trkpt>
      <trkpt lat="47.590625" lon="8.127864">
        <ele>320.704166</ele>
        <time>2021-11-20T00:07:00.338Z</time>
      </trkpt>
      <trkpt lat="47.590409" lon="8.127398">
        <ele>321.508793</ele>
        <time>2021-11-20T00:07:12.174Z</time>
      </trkpt>
      <trkpt lat="47.589672" lon="8.126374">
        <ele>324.024840</ele>
        <time>2021-11-20T00:07:44.567Z</time>
      </trkpt>
      <trkpt lat="47.589591" lon="8.126262">
        <ele>324.300745</ele>
        <time>2021-11-20T00:07:47.820Z</time>
      </trkpt>
      <trkpt lat="47.589278" lon="8.125788">
        <ele>325.415267</ele>
        <time>2021-11-20T00:08:00.972Z</time>
      </trkpt>
      <trkpt lat="47.589070" lon="8.125392">
        <ele>325.773663</ele>
        <time>2021-11-20T00:08:09.947Z</time>
      </trkpt>
      <trkpt lat="47.589078" lon="8.125315">
        <ele>325.817497</ele>
        <time>2021-11-20T00:08:11.561Z</time>
      </trkpt>
      <trkpt lat="47.589001" lon="8.125276">
        <ele>325.885377</ele>
        <time>2021-11-20T00:08:13.572Z</time>
      </trkpt>
      <trkpt lat="47.588922" lon="8.125160">
        <ele>325.978130</ele>
        <time>2021-11-20T00:08:16.175Z</time>
      </trkpt>
      <trkpt lat="47.588669" lon="8.124663">
        <ele>326.328474</ele>
        <time>2021-11-20T00:08:25.968Z</time>
      </trkpt>
      <trkpt lat="47.588469" lon="8.124106">
        <ele>326.683514</ele>
        <time>2021-11-20T00:08:35.302Z</time>
      </trkpt>
      <trkpt lat="47.588307" lon="8.123639">
        <ele>326.978988</ele>
        <time>2021-11-20T00:08:42.664Z</time>
      </trkpt>
      <trkpt lat="47.588080" lon="8.122981">
        <ele>327.012288</ele>
        <time>2021-11-20T00:08:52.918Z</time>
      </trkpt>
      <trkpt lat="47.587930" lon="8.122557">
        <ele>326.999207</ele>
        <time>2021-11-20T00:08:59.255Z</time>
      </trkpt>
      <trkpt lat="47.587823" lon="8.122266">
        <ele>326.990152</ele>
        <time>2021-11-20T00:09:03.635Z</time>
      </trkpt>
      <trkpt lat="47.587722" lon="8.121983">
        <ele>326.981404</ele>
        <time>2021-11-20T00:09:07.757Z</time>
      </trkpt>
      <trkpt lat="47.587613" lon="8.121661">
        <ele>326.971561</ele>
        <time>2021-11-20T00:09:12.584Z</time>
      </trkpt>
      <trkpt lat="47.587553" lon="8.121454">
        <ele>326.965405</ele>
        <time>2021-11-20T00:09:15.595Z</time>
      </trkpt>
      <trkpt lat="47.587457" lon="8.121156">
        <ele>326.960916</ele>
        <time>2021-11-20T00:09:20.085Z</time>
      </trkpt>
      <trkpt lat="47.587370" lon="8.120885">
        <ele>327.001567</ele>
        <time>2021-11-20T00:09:24.223Z</time>
      </trkpt>
      <trkpt lat="47.587280" lon="8.120590">
        <ele>327.045419</ele>
        <time>2021-11-20T00:09:28.764Z</time>
      </trkpt>
      <trkpt lat="47.587273" lon="8.120566">
        <ele>327.048961</ele>
        <time>2021-11-20T00:09:29.125Z</time>
      </trkpt>
      <trkpt lat="47.587132" lon="8.120084">
        <ele>327.120120</ele>
        <time>2021-11-20T00:09:36.627Z</time>
      </trkpt>
      <trkpt lat="47.587014" lon="8.119573">
        <ele>327.193275</ele>
        <time>2021-11-20T00:09:44.457Z</time>
      </trkpt>
      <trkpt lat="47.586808" lon="8.118617">
        <ele>327.316962</ele>
        <time>2021-11-20T00:09:58.827Z</time>
      </trkpt>
      <trkpt lat="47.586785" lon="8.118468">
        <ele>327.314346</ele>
        <time>2021-11-20T00:10:00.995Z</time>
      </trkpt>
      <trkpt lat="47.586773" lon="8.118379">
        <ele>327.312793</ele>
        <time>2021-11-20T00:10:02.292Z</time>
      </trkpt>
      <trkpt lat="47.586696" lon="8.117684">
        <ele>327.300741</ele>
        <time>2021-11-20T00:10:12.622Z</time>
      </trkpt>
      <trkpt lat="47.586657" lon="8.116185">
        <ele>327.275070</ele>
        <time>2021-11-20T00:10:32.782Z</time>
      </trkpt>
      <trkpt lat="47.586564" lon="8.115669">
        <ele>326.823695</ele>
        <time>2021-11-20T00:10:39.340Z</time>
      </trkpt>
      <trkpt lat="47.586495" lon="8.115468">
        <ele>326.567757</ele>
        <time>2021-11-20T00:10:42.141Z</time>
      </trkpt>
      <trkpt lat="47.586309" lon="8.115027">
        <ele>325.977519</ele>
        <time>2021-11-20T00:10:48.111Z</time>
      </trkpt>
      <trkpt lat="47.586124" lon="8.114616">
        <ele>325.416791</ele>
        <time>2021-11-20T00:10:53.514Z</time>
      </trkpt>
      <trkpt lat="47.586040" lon="8.114419">
        <ele>325.152307</ele>
        <time>2021-11-20T00:10:55.999Z</time>
      </trkpt>
      <trkpt lat="47.585978" lon="8.114276">
        <ele>324.959394</ele>
        <time>2021-11-20T00:10:57.784Z</time>
      </trkpt>
      <trkpt lat="47.585864" lon="8.114008">
        <ele>324.599834</ele>
        <time>2021-11-20T00:11:01.077Z</time>
      </trkpt>
      <trkpt lat="47.585808" lon="8.113882">
        <ele>324.428597</ele>
        <time>2021-11-20T00:11:02.583Z</time>
      </trkpt>
      <trkpt lat="47.585692" lon="8.113619">
        <ele>323.826355</ele>
        <time>2021-11-20T00:11:05.732Z</time>
      </trkpt>
      <trkpt lat="47.585557" lon="8.113319">
        <ele>322.841045</ele>
        <time>2021-11-20T00:11:09.188Z</time>
      </trkpt>
      <trkpt lat="47.585485" lon="8.113157">
        <ele>322.310991</ele>
        <time>2021-11-20T00:11:11.006Z</time>
      </trkpt>
      <trkpt lat="47.585352" lon="8.112867">
        <ele>321.352864</ele>
        <time>2021-11-20T00:11:14.284Z</time>
      </trkpt>
      <trkpt lat="47.585221" lon="8.112571">
        <ele>320.385604</ele>
        <time>2021-11-20T00:11:16.597Z</time>
      </trkpt>
      <trkpt lat="47.585157" lon="8.112429">
        <ele>319.918996</ele>
        <time>2021-11-20T00:11:17.734Z</time>
      </trkpt>
      <trkpt lat="47.585029" lon="8.112132">
        <ele>318.956045</ele>
        <time>2021-11-20T00:11:19.989Z</time>
      </trkpt>
      <trkpt lat="47.584878" lon="8.111799">
        <ele>317.859748</ele>
        <time>2021-11-20T00:11:22.598Z</time>
      </trkpt>
      <trkpt lat="47.584806" lon="8.111649">
        <ele>317.356743</ele>
        <time>2021-11-20T00:11:23.767Z</time>
      </trkpt>
      <trkpt lat="47.584716" lon="8.111496">
        <ele>316.870282</ele>
        <time>2021-11-20T00:11:25.107Z</time>
      </trkpt>
      <trkpt lat="47.584579" lon="8.111319">
        <ele>316.450460</ele>
        <time>2021-11-20T00:11:26.822Z</time>
      </trkpt>
      <trkpt lat="47.584099" lon="8.110752">
        <ele>315.032578</ele>
        <time>2021-11-20T00:11:32.719Z</time>
      </trkpt>
      <trkpt lat="47.584050" lon="8.110692">
        <ele>314.885755</ele>
        <time>2021-11-20T00:11:33.326Z</time>
      </trkpt>
      <trkpt lat="47.583872" lon="8.110453">
        <ele>314.330944</ele>
        <time>2021-11-20T00:11:35.734Z</time>
      </trkpt>
      <trkpt lat="47.583574" lon="8.109890">
        <ele>313.215739</ele>
        <time>2021-11-20T00:11:41.476Z</time>
      </trkpt>
      <trkpt lat="47.583498" lon="8.109663">
        <ele>312.820823</ele>
        <time>2021-11-20T00:11:45.615Z</time>
      </trkpt>
      <trkpt lat="47.583478" lon="8.109592">
        <ele>313.043662</ele>
        <time>2021-11-20T00:11:47.814Z</time>
      </trkpt>
      <trkpt lat="47.583452" lon="8.109511">
        <ele>313.362210</ele>
        <time>2021-11-20T00:11:49.449Z</time>
      </trkpt>
      <trkpt lat="47.583405" lon="8.109406">
        <ele>313.809709</ele>
        <time>2021-11-20T00:11:51.358Z</time>
      </trkpt>
      <trkpt lat="47.583388" lon="8.109374">
        <ele>313.954357</ele>
        <time>2021-11-20T00:11:51.998Z</time>
      </trkpt>
      <trkpt lat="47.583348" lon="8.109308">
        <ele>314.269441</ele>
        <time>2021-11-20T00:11:53.377Z</time>
      </trkpt>
      <trkpt lat="47.583309" lon="8.109254">
        <ele>314.550384</ele>
        <time>2021-11-20T00:11:54.838Z</time>
      </trkpt>
      <trkpt lat="47.583159" lon="8.109095">
        <ele>315.521172</ele>
        <time>2021-11-20T00:12:00.723Z</time>
      </trkpt>
      <trkpt lat="47.583170" lon="8.109033">
        <ele>315.748831</ele>
        <time>2021-11-20T00:12:02.163Z</time>
      </trkpt>
      <trkpt lat="47.583198" lon="8.108941">
        <ele>316.107251</ele>
        <time>2021-11-20T00:12:03.766Z</time>
      </trkpt>
      <trkpt lat="47.583381" lon="8.108515">
        <ele>317.900764</ele>
        <time>2021-11-20T00:12:17.398Z</time>
      </trkpt>
      <trkpt lat="47.583467" lon="8.108290">
        <ele>318.819128</ele>
        <time>2021-11-20T00:12:26.627Z</time>
      </trkpt>
      <trkpt lat="47.583556" lon="8.108122">
        <ele>319.577717</ele>
        <time>2021-11-20T00:12:31.672Z</time>
      </trkpt>
      <trkpt lat="47.583630" lon="8.107975">
        <ele>320.229078</ele>
        <time>2021-11-20T00:12:36.571Z</time>
      </trkpt>
      <trkpt lat="47.583681" lon="8.107874">
        <ele>320.677105</ele>
        <time>2021-11-20T00:12:41.654Z</time>
      </trkpt>
      <trkpt lat="47.583730" lon="8.107651">
        <ele>321.509956</ele>
        <time>2021-11-20T00:12:47.090Z</time>
      </trkpt>
      <trkpt lat="47.583716" lon="8.107419">
        <ele>322.332300</ele>
        <time>2021-11-20T00:12:54.942Z</time>
      </trkpt>
      <trkpt lat="47.583602" lon="8.107067">
        <ele>323.612273</ele>
        <time>2021-11-20T00:13:04.725Z</time>
      </trkpt>
      <trkpt lat="47.583538" lon="8.106963">
        <ele>324.073750</ele>
        <time>2021-11-20T00:13:10.581Z</time>
      </trkpt>
      <trkpt lat="47.583190" lon="8.106425">
        <ele>326.517197</ele>
        <time>2021-11-20T00:13:30.675Z</time>
      </trkpt>
      <trkpt lat="47.582759" lon="8.105824">
        <ele>329.392717</ele>
        <time>2021-11-20T00:13:47.779Z</time>
      </trkpt>
      <trkpt lat="47.582433" lon="8.105363">
        <ele>331.426195</ele>
        <time>2021-11-20T00:13:58.719Z</time>
      </trkpt>
      <trkpt lat="47.582400" lon="8.105317">
        <ele>331.585704</ele>
        <time>2021-11-20T00:14:01.045Z</time>
      </trkpt>
      <trkpt lat="47.582400" lon="8.105317">
        <ele>331.585704</ele>
        <time>2021-11-20T00:14:01.051Z</time>
      </trkpt>
      <trkpt lat="47.581932" lon="8.104673">
        <ele>333.834264</ele>
        <time>2021-11-20T00:14:15.083Z</time>
      </trkpt>
      <trkpt lat="47.581693" lon="8.104351">
        <ele>334.971516</ele>
        <time>2021-11-20T00:14:23.597Z</time>
      </trkpt>
      <trkpt lat="47.581644" lon="8.104206">
        <ele>335.356746</ele>
        <time>2021-11-20T00:14:28.493Z</time>
      </trkpt>
      <trkpt lat="47.581609" lon="8.103948">
        <ele>335.981857</ele>
        <time>2021-11-20T00:14:33.825Z</time>
      </trkpt>
      <trkpt lat="47.581621" lon="8.103861">
        <ele>336.192789</ele>
        <time>2021-11-20T00:14:36.255Z</time>
      </trkpt>
      <trkpt lat="47.581680" lon="8.103741">
        <ele>336.545514</ele>
        <time>2021-11-20T00:14:40.263Z</time>
      </trkpt>
      <trkpt lat="47.581700" lon="8.103708">
        <ele>336.650893</ele>
        <time>2021-11-20T00:14:42.345Z</time>
      </trkpt>
      <trkpt lat="47.581790" lon="8.103613">
        <ele>337.039950</ele>
        <time>2021-11-20T00:14:45.249Z</time>
      </trkpt>
      <trkpt lat="47.582067" lon="8.103520">
        <ele>338.628150</ele>
        <time>2021-11-20T00:14:56.399Z</time>
      </trkpt>
      <trkpt lat="47.582742" lon="8.103783">
        <ele>343.178989</ele>
        <time>2021-11-20T00:15:25.045Z</time>
      </trkpt>
      <trkpt lat="47.582925" lon="8.103781">
        <ele>344.372281</ele>
        <time>2021-11-20T00:15:32.915Z</time>
      </trkpt>
      <trkpt lat="47.583203" lon="8.103671">
        <ele>346.248446</ele>
        <time>2021-11-20T00:15:46.297Z</time>
      </trkpt>
      <trkpt lat="47.583374" lon="8.103500">
        <ele>347.593401</ele>
        <time>2021-11-20T00:15:54.792Z</time>
      </trkpt>
      <trkpt lat="47.583567" lon="8.103131">
        <ele>349.649391</ele>
        <time>2021-11-20T00:16:07.660Z</time>
      </trkpt>
      <trkpt lat="47.583646" lon="8.102779">
        <ele>351.287580</ele>
        <time>2021-11-20T00:16:17.887Z</time>
      </trkpt>
      <trkpt lat="47.583644" lon="8.102396">
        <ele>352.978926</ele>
        <time>2021-11-20T00:16:28.614Z</time>
      </trkpt>
      <trkpt lat="47.583595" lon="8.102123">
        <ele>354.226423</ele>
        <time>2021-11-20T00:16:36.654Z</time>
      </trkpt>
      <trkpt lat="47.583595" lon="8.102123">
        <ele>354.226423</ele>
        <time>2021-11-20T00:16:36.691Z</time>
      </trkpt>
      <trkpt lat="47.583595" lon="8.102123">
        <ele>354.226423</ele>
        <time>2021-11-20T00:16:36.694Z</time>
      </trkpt>
      <trkpt lat="47.583531" lon="8.101951">
        <ele>355.093865</ele>
        <time>2021-11-20T00:16:42.118Z</time>
      </trkpt>
      <trkpt lat="47.583260" lon="8.101238">
        <ele>358.707891</ele>
        <time>2021-11-20T00:17:03.638Z</time>
      </trkpt>
      <trkpt lat="47.583184" lon="8.101026">
        <ele>359.768080</ele>
        <time>2021-11-20T00:17:10.314Z</time>
      </trkpt>
      <trkpt lat="47.583009" lon="8.100415">
        <ele>362.853941</ele>
        <time>2021-11-20T00:17:28.526Z</time>
      </trkpt>
      <trkpt lat="47.582956" lon="8.099712">
        <ele>366.239173</ele>
        <time>2021-11-20T00:17:50.413Z</time>
      </trkpt>
      <trkpt lat="47.582991" lon="8.099169">
        <ele>368.849596</ele>
        <time>2021-11-20T00:18:06.686Z</time>
      </trkpt>
      <trkpt lat="47.583155" lon="8.098591">
        <ele>371.850434</ele>
        <time>2021-11-20T00:18:25.287Z</time>
      </trkpt>
      <trkpt lat="47.583254" lon="8.098366">
        <ele>373.136029</ele>
        <time>2021-11-20T00:18:32.942Z</time>
      </trkpt>
      <trkpt lat="47.583314" lon="8.098261">
        <ele>373.776820</ele>
        <time>2021-11-20T00:18:37.812Z</time>
      </trkpt>
      <trkpt lat="47.583497" lon="8.097983">
        <ele>375.452651</ele>
        <time>2021-11-20T00:18:48.253Z</time>
      </trkpt>
      <trkpt lat="47.585194" lon="8.096078">
        <ele>388.565184</ele>
        <time>2021-11-20T00:20:12.781Z</time>
      </trkpt>
      <trkpt lat="47.585712" lon="8.095427">
        <ele>392.356511</ele>
        <time>2021-11-20T00:20:36.932Z</time>
      </trkpt>
      <trkpt lat="47.585861" lon="8.095144">
        <ele>393.708469</ele>
        <time>2021-11-20T00:20:45.553Z</time>
      </trkpt>
      <trkpt lat="47.585991" lon="8.094838">
        <ele>395.070324</ele>
        <time>2021-11-20T00:20:54.565Z</time>
      </trkpt>
      <trkpt lat="47.586207" lon="8.094026">
        <ele>398.768941</ele>
        <time>2021-11-20T00:21:15.189Z</time>
      </trkpt>
      <trkpt lat="47.586271" lon="8.093380">
        <ele>401.544280</ele>
        <time>2021-11-20T00:21:33.101Z</time>
      </trkpt>
      <trkpt lat="47.586159" lon="8.091548">
        <ele>410.054081</ele>
        <time>2021-11-20T00:22:26.535Z</time>
      </trkpt>
      <trkpt lat="47.586169" lon="8.091329">
        <ele>411.211838</ele>
        <time>2021-11-20T00:22:33.423Z</time>
      </trkpt>
      <trkpt lat="47.586207" lon="8.091057">
        <ele>412.676951</ele>
        <time>2021-11-20T00:22:41.731Z</time>
      </trkpt>
      <trkpt lat="47.586374" lon="8.090476">
        <ele>416.008090</ele>
        <time>2021-11-20T00:23:01.366Z</time>
      </trkpt>
      <trkpt lat="47.586940" lon="8.089282">
        <ele>423.908408</ele>
        <time>2021-11-20T00:23:50.381Z</time>
      </trkpt>
      <trkpt lat="47.587101" lon="8.088498">
        <ele>428.509737</ele>
        <time>2021-11-20T00:24:16.178Z</time>
      </trkpt>
      <trkpt lat="47.587338" lon="8.086784">
        <ele>437.527305</ele>
        <time>2021-11-20T00:25:13.810Z</time>
      </trkpt>
      <trkpt lat="47.587490" lon="8.085581">
        <ele>442.420905</ele>
        <time>2021-11-20T00:25:49.582Z</time>
      </trkpt>
      <trkpt lat="47.587553" lon="8.085157">
        <ele>444.156822</ele>
        <time>2021-11-20T00:25:59.743Z</time>
      </trkpt>
      <trkpt lat="47.587632" lon="8.084818">
        <ele>445.590859</ele>
        <time>2021-11-20T00:26:06.560Z</time>
      </trkpt>
      <trkpt lat="47.587753" lon="8.084390">
        <ele>445.835859</ele>
        <time>2021-11-20T00:26:13.720Z</time>
      </trkpt>
      <trkpt lat="47.587882" lon="8.084051">
        <ele>445.387402</ele>
        <time>2021-11-20T00:26:18.050Z</time>
      </trkpt>
      <trkpt lat="47.587959" lon="8.083838">
        <ele>445.108965</ele>
        <time>2021-11-20T00:26:20.231Z</time>
      </trkpt>
      <trkpt lat="47.588010" lon="8.083700">
        <ele>444.927664</ele>
        <time>2021-11-20T00:26:21.418Z</time>
      </trkpt>
      <trkpt lat="47.588165" lon="8.083275">
        <ele>444.370997</ele>
        <time>2021-11-20T00:26:24.945Z</time>
      </trkpt>
      <trkpt lat="47.588252" lon="8.083013">
        <ele>444.034533</ele>
        <time>2021-11-20T00:26:26.953Z</time>
      </trkpt>
      <trkpt lat="47.588280" lon="8.082843">
        <ele>443.832913</ele>
        <time>2021-11-20T00:26:28.079Z</time>
      </trkpt>
      <trkpt lat="47.588296" lon="8.082646">
        <ele>443.604301</ele>
        <time>2021-11-20T00:26:29.369Z</time>
      </trkpt>
      <trkpt lat="47.588313" lon="8.082124">
        <ele>442.814573</ele>
        <time>2021-11-20T00:26:32.704Z</time>
      </trkpt>
      <trkpt lat="47.588361" lon="8.081689">
        <ele>441.521893</ele>
        <time>2021-11-20T00:26:35.461Z</time>
      </trkpt>
      <trkpt lat="47.588407" lon="8.081450">
        <ele>440.793000</ele>
        <time>2021-11-20T00:26:37.020Z</time>
      </trkpt>
      <trkpt lat="47.588550" lon="8.080930">
        <ele>439.146111</ele>
        <time>2021-11-20T00:26:40.582Z</time>
      </trkpt>
      <trkpt lat="47.588590" lon="8.080813">
        <ele>438.761423</ele>
        <time>2021-11-20T00:26:41.383Z</time>
      </trkpt>
      <trkpt lat="47.588682" lon="8.080451">
        <ele>437.626926</ele>
        <time>2021-11-20T00:26:43.925Z</time>
      </trkpt>
      <trkpt lat="47.588725" lon="8.080182">
        <ele>436.816183</ele>
        <time>2021-11-20T00:26:45.751Z</time>
      </trkpt>
      <trkpt lat="47.588723" lon="8.079889">
        <ele>435.956868</ele>
        <time>2021-11-20T00:26:47.755Z</time>
      </trkpt>
      <trkpt lat="47.588698" lon="8.079659">
        <ele>435.291716</ele>
        <time>2021-11-20T00:26:49.352Z</time>
      </trkpt>
      <trkpt lat="47.588607" lon="8.079377">
        <ele>434.946445</ele>
        <time>2021-11-20T00:26:51.573Z</time>
      </trkpt>
      <trkpt lat="47.588405" lon="8.078961">
        <ele>434.380299</ele>
        <time>2021-11-20T00:26:55.325Z</time>
      </trkpt>
      <trkpt lat="47.588322" lon="8.078847">
        <ele>434.195024</ele>
        <time>2021-11-20T00:26:56.541Z</time>
      </trkpt>
      <trkpt lat="47.588175" lon="8.078681">
        <ele>433.892432</ele>
        <time>2021-11-20T00:26:58.695Z</time>
      </trkpt>
      <trkpt lat="47.587261" lon="8.077843">
        <ele>432.174840</ele>
        <time>2021-11-20T00:27:11.944Z</time>
      </trkpt>
      <trkpt lat="47.586782" lon="8.077419">
        <ele>431.432954</ele>
        <time>2021-11-20T00:27:19.007Z</time>
      </trkpt>
      <trkpt lat="47.586044" lon="8.076710">
        <ele>430.263502</ele>
        <time>2021-11-20T00:27:29.688Z</time>
      </trkpt>
      <trkpt lat="47.585216" lon="8.075691">
        <ele>427.367652</ele>
        <time>2021-11-20T00:27:40.818Z</time>
      </trkpt>
      <trkpt lat="47.584889" lon="8.075206">
        <ele>425.957179</ele>
        <time>2021-11-20T00:27:45.449Z</time>
      </trkpt>
      <trkpt lat="47.584571" lon="8.074688">
        <ele>424.516522</ele>
        <time>2021-11-20T00:27:50.137Z</time>
      </trkpt>
      <trkpt lat="47.584025" lon="8.073868">
        <ele>422.615474</ele>
        <time>2021-11-20T00:27:57.925Z</time>
      </trkpt>
      <trkpt lat="47.583806" lon="8.073622">
        <ele>421.945956</ele>
        <time>2021-11-20T00:28:00.705Z</time>
      </trkpt>
      <trkpt lat="47.582481" lon="8.072674">
        <ele>419.298830</ele>
        <time>2021-11-20T00:28:18.428Z</time>
      </trkpt>
      <trkpt lat="47.582255" lon="8.072455">
        <ele>418.996205</ele>
        <time>2021-11-20T00:28:22.667Z</time>
      </trkpt>
      <trkpt lat="47.582001" lon="8.072163">
        <ele>418.635941</ele>
        <time>2021-11-20T00:28:27.618Z</time>
      </trkpt>
      <trkpt lat="47.581639" lon="8.071564">
        <ele>417.864537</ele>
        <time>2021-11-20T00:28:33.538Z</time>
      </trkpt>
      <trkpt lat="47.581509" lon="8.071314">
        <ele>416.901153</ele>
        <time>2021-11-20T00:28:35.811Z</time>
      </trkpt>
      <trkpt lat="47.581397" lon="8.071044">
        <ele>415.933780</ele>
        <time>2021-11-20T00:28:37.962Z</time>
      </trkpt>
      <trkpt lat="47.581302" lon="8.070775">
        <ele>415.007089</ele>
        <time>2021-11-20T00:28:40.010Z</time>
      </trkpt>
      <trkpt lat="47.581200" lon="8.070445">
        <ele>413.899239</ele>
        <time>2021-11-20T00:28:42.402Z</time>
      </trkpt>
      <trkpt lat="47.581072" lon="8.070001">
        <ele>412.425594</ele>
        <time>2021-11-20T00:28:45.454Z</time>
      </trkpt>
      <trkpt lat="47.580540" lon="8.068640">
        <ele>406.923192</ele>
        <time>2021-11-20T00:28:55.059Z</time>
      </trkpt>
      <trkpt lat="47.580436" lon="8.068266">
        <ele>405.315002</ele>
        <time>2021-11-20T00:28:57.478Z</time>
      </trkpt>
      <trkpt lat="47.580169" lon="8.066489">
        <ele>398.830809</ele>
        <time>2021-11-20T00:29:08.915Z</time>
      </trkpt>
      <trkpt lat="47.579947" lon="8.065949">
        <ele>397.812621</ele>
        <time>2021-11-20T00:29:13.323Z</time>
      </trkpt>
      <trkpt lat="47.579737" lon="8.065632">
        <ele>397.097255</ele>
        <time>2021-11-20T00:29:16.742Z</time>
      </trkpt>
      <trkpt lat="47.579627" lon="8.065529">
        <ele>396.786711</ele>
        <time>2021-11-20T00:29:18.065Z</time>
      </trkpt>
      <trkpt lat="47.579504" lon="8.065414">
        <ele>396.439614</ele>
        <time>2021-11-20T00:29:19.803Z</time>
      </trkpt>
      <trkpt lat="47.579181" lon="8.065229">
        <ele>395.613116</ele>
        <time>2021-11-20T00:29:23.843Z</time>
      </trkpt>
      <trkpt lat="47.579104" lon="8.065203">
        <ele>395.424620</ele>
        <time>2021-11-20T00:29:25.191Z</time>
      </trkpt>
      <trkpt lat="47.579003" lon="8.065169">
        <ele>395.177409</ele>
        <time>2021-11-20T00:29:26.374Z</time>
      </trkpt>
      <trkpt lat="47.578623" lon="8.065188">
        <ele>394.785090</ele>
        <time>2021-11-20T00:29:31.213Z</time>
      </trkpt>
      <trkpt lat="47.578363" lon="8.065294">
        <ele>394.566279</ele>
        <time>2021-11-20T00:29:35.126Z</time>
      </trkpt>
      <trkpt lat="47.578177" lon="8.065370">
        <ele>394.409721</ele>
        <time>2021-11-20T00:29:37.251Z</time>
      </trkpt>
      <trkpt lat="47.577839" lon="8.065448">
        <ele>394.132147</ele>
        <time>2021-11-20T00:29:41.854Z</time>
      </trkpt>
      <trkpt lat="47.577609" lon="8.065406">
        <ele>393.944103</ele>
        <time>2021-11-20T00:29:45.157Z</time>
      </trkpt>
      <trkpt lat="47.577380" lon="8.065302">
        <ele>393.749756</ele>
        <time>2021-11-20T00:29:48.139Z</time>
      </trkpt>
      <trkpt lat="47.577043" lon="8.064953">
        <ele>393.535951</ele>
        <time>2021-11-20T00:29:53.081Z</time>
      </trkpt>
      <trkpt lat="47.576978" lon="8.064848">
        <ele>393.511403</ele>
        <time>2021-11-20T00:29:54.055Z</time>
      </trkpt>
      <trkpt lat="47.576848" lon="8.064544">
        <ele>393.449404</ele>
        <time>2021-11-20T00:29:57.178Z</time>
      </trkpt>
      <trkpt lat="47.576750" lon="8.064033">
        <ele>393.357895</ele>
        <time>2021-11-20T00:30:01.857Z</time>
      </trkpt>
      <trkpt lat="47.576737" lon="8.063729">
        <ele>393.305425</ele>
        <time>2021-11-20T00:30:04.534Z</time>
      </trkpt>
      <trkpt lat="47.576746" lon="8.063401">
        <ele>393.248879</ele>
        <time>2021-11-20T00:30:07.817Z</time>
      </trkpt>
      <trkpt lat="47.576746" lon="8.063355">
        <ele>393.240956</ele>
        <time>2021-11-20T00:30:08.176Z</time>
      </trkpt>
      <trkpt lat="47.576741" lon="8.063055">
        <ele>393.189264</ele>
        <time>2021-11-20T00:30:11.730Z</time>
      </trkpt>
      <trkpt lat="47.576712" lon="8.062700">
        <ele>393.139396</ele>
        <time>2021-11-20T00:30:16.004Z</time>
      </trkpt>
      <trkpt lat="47.576551" lon="8.062025">
        <ele>393.376420</ele>
        <time>2021-11-20T00:30:26.164Z</time>
      </trkpt>
      <trkpt lat="47.576045" lon="8.061150">
        <ele>393.757968</ele>
        <time>2021-11-20T00:30:40.255Z</time>
      </trkpt>
      <trkpt lat="47.575791" lon="8.060748">
        <ele>393.940315</ele>
        <time>2021-11-20T00:30:45.970Z</time>
      </trkpt>
      <trkpt lat="47.575642" lon="8.060451">
        <ele>393.883063</ele>
        <time>2021-11-20T00:30:49.915Z</time>
      </trkpt>
      <trkpt lat="47.575626" lon="8.060407">
        <ele>393.838245</ele>
        <time>2021-11-20T00:30:50.222Z</time>
      </trkpt>
      <trkpt lat="47.575229" lon="8.059329">
        <ele>392.737019</ele>
        <time>2021-11-20T00:30:59.862Z</time>
      </trkpt>
      <trkpt lat="47.575062" lon="8.059032">
        <ele>392.390342</ele>
        <time>2021-11-20T00:31:02.722Z</time>
      </trkpt>
      <trkpt lat="47.574691" lon="8.058686">
        <ele>391.807764</ele>
        <time>2021-11-20T00:31:07.447Z</time>
      </trkpt>
      <trkpt lat="47.574360" lon="8.057968">
        <ele>392.164658</ele>
        <time>2021-11-20T00:31:14.549Z</time>
      </trkpt>
      <trkpt lat="47.574225" lon="8.057606">
        <ele>392.501373</ele>
        <time>2021-11-20T00:31:18.611Z</time>
      </trkpt>
      <trkpt lat="47.574181" lon="8.057386">
        <ele>392.688169</ele>
        <time>2021-11-20T00:31:22.111Z</time>
      </trkpt>
      <trkpt lat="47.574121" lon="8.056069">
        <ele>393.762723</ele>
        <time>2021-11-20T00:31:43.430Z</time>
      </trkpt>
      <trkpt lat="47.573993" lon="8.055472">
        <ele>395.175380</ele>
        <time>2021-11-20T00:31:56.636Z</time>
      </trkpt>
      <trkpt lat="47.573806" lon="8.055119">
        <ele>396.229973</ele>
        <time>2021-11-20T00:32:07.623Z</time>
      </trkpt>
      <trkpt lat="47.573098" lon="8.054422">
        <ele>399.190179</ele>
        <time>2021-11-20T00:32:33.468Z</time>
      </trkpt>
      <trkpt lat="47.572855" lon="8.053943">
        <ele>400.084800</ele>
        <time>2021-11-20T00:32:43.294Z</time>
      </trkpt>
      <trkpt lat="47.572769" lon="8.053639">
        <ele>400.122388</ele>
        <time>2021-11-20T00:32:47.483Z</time>
      </trkpt>
      <trkpt lat="47.572728" lon="8.053331">
        <ele>400.158185</ele>
        <time>2021-11-20T00:32:51.482Z</time>
      </trkpt>
      <trkpt lat="47.572645" lon="8.052612">
        <ele>400.241362</ele>
        <time>2021-11-20T00:32:58.287Z</time>
      </trkpt>
      <trkpt lat="47.572498" lon="8.051744">
        <ele>400.343408</ele>
        <time>2021-11-20T00:33:05.997Z</time>
      </trkpt>
      <trkpt lat="47.572428" lon="8.051523">
        <ele>400.349542</ele>
        <time>2021-11-20T00:33:07.810Z</time>
      </trkpt>
      <trkpt lat="47.572078" lon="8.050690">
        <ele>400.180485</ele>
        <time>2021-11-20T00:33:15.425Z</time>
      </trkpt>
      <trkpt lat="47.571850" lon="8.050064">
        <ele>400.057930</ele>
        <time>2021-11-20T00:33:21.768Z</time>
      </trkpt>
      <trkpt lat="47.571420" lon="8.048138">
        <ele>401.226833</ele>
        <time>2021-11-20T00:33:48.542Z</time>
      </trkpt>
      <trkpt lat="47.571393" lon="8.048046">
        <ele>401.344209</ele>
        <time>2021-11-20T00:33:50.332Z</time>
      </trkpt>
      <trkpt lat="47.571376" lon="8.047921">
        <ele>401.493392</ele>
        <time>2021-11-20T00:33:52.277Z</time>
      </trkpt>
      <trkpt lat="47.571343" lon="8.047807">
        <ele>401.638522</ele>
        <time>2021-11-20T00:33:53.921Z</time>
      </trkpt>
      <trkpt lat="47.571300" lon="8.047715">
        <ele>401.769461</ele>
        <time>2021-11-20T00:33:55.608Z</time>
      </trkpt>
      <trkpt lat="47.571299" lon="8.047673">
        <ele>401.818629</ele>
        <time>2021-11-20T00:33:56.241Z</time>
      </trkpt>
      <trkpt lat="47.571296" lon="8.047649">
        <ele>401.847185</ele>
        <time>2021-11-20T00:33:56.569Z</time>
      </trkpt>
      <trkpt lat="47.571290" lon="8.047622">
        <ele>401.880443</ele>
        <time>2021-11-20T00:33:57.101Z</time>
      </trkpt>
      <trkpt lat="47.571280" lon="8.047594">
        <ele>401.917508</ele>
        <time>2021-11-20T00:33:57.723Z</time>
      </trkpt>
      <trkpt lat="47.571226" lon="8.047517">
        <ele>402.047445</ele>
        <time>2021-11-20T00:33:59.452Z</time>
      </trkpt>
      <trkpt lat="47.571209" lon="8.047506">
        <ele>402.079611</ele>
        <time>2021-11-20T00:33:59.990Z</time>
      </trkpt>
      <trkpt lat="47.571191" lon="8.047498">
        <ele>402.112198</ele>
        <time>2021-11-20T00:34:00.454Z</time>
      </trkpt>
      <trkpt lat="47.571178" lon="8.047495">
        <ele>402.135012</ele>
        <time>2021-11-20T00:34:00.707Z</time>
      </trkpt>
      <trkpt lat="47.571161" lon="8.047494">
        <ele>402.164515</ele>
        <time>2021-11-20T00:34:01.095Z</time>
      </trkpt>
      <trkpt lat="47.570990" lon="8.047289">
        <ele>402.545894</ele>
        <time>2021-11-20T00:34:06.354Z</time>
      </trkpt>
      <trkpt lat="47.570703" lon="8.046690">
        <ele>403.020981</ele>
        <time>2021-11-20T00:34:18.355Z</time>
      </trkpt>
      <trkpt lat="47.570454" lon="8.045878">
        <ele>403.017359</ele>
        <time>2021-11-20T00:34:32.258Z</time>
      </trkpt>
      <trkpt lat="47.570410" lon="8.045595">
        <ele>403.016180</ele>
        <time>2021-11-20T00:34:34.473Z</time>
      </trkpt>
      <trkpt lat="47.570405" lon="8.045482">
        <ele>403.015720</ele>
        <time>2021-11-20T00:34:36.046Z</time>
      </trkpt>
      <trkpt lat="47.570393" lon="8.045065">
        <ele>403.014026</ele>
        <time>2021-11-20T00:34:39.182Z</time>
      </trkpt>
      <trkpt lat="47.570401" lon="8.044853">
        <ele>403.013163</ele>
        <time>2021-11-20T00:34:41.175Z</time>
      </trkpt>
      <trkpt lat="47.570407" lon="8.044709">
        <ele>403.012578</ele>
        <time>2021-11-20T00:34:42.476Z</time>
      </trkpt>
      <trkpt lat="47.570449" lon="8.044391">
        <ele>402.846401</ele>
        <time>2021-11-20T00:34:44.715Z</time>
      </trkpt>
      <trkpt lat="47.570458" lon="8.044327">
        <ele>402.650793</ele>
        <time>2021-11-20T00:34:45.184Z</time>
      </trkpt>
      <trkpt lat="47.570556" lon="8.043717">
        <ele>400.774598</ele>
        <time>2021-11-20T00:34:49.489Z</time>
      </trkpt>
      <trkpt lat="47.570553" lon="8.043603">
        <ele>400.433243</ele>
        <time>2021-11-20T00:34:50.257Z</time>
      </trkpt>
      <trkpt lat="47.570550" lon="8.043505">
        <ele>400.139719</ele>
        <time>2021-11-20T00:34:50.820Z</time>
      </trkpt>
      <trkpt lat="47.570472" lon="8.043006">
        <ele>398.607128</ele>
        <time>2021-11-20T00:34:54.145Z</time>
      </trkpt>
      <trkpt lat="47.570037" lon="8.042001">
        <ele>395.034439</ele>
        <time>2021-11-20T00:35:01.682Z</time>
      </trkpt>
      <trkpt lat="47.569947" lon="8.041607">
        <ele>393.691691</ele>
        <time>2021-11-20T00:35:04.226Z</time>
      </trkpt>
      <trkpt lat="47.569913" lon="8.041464">
        <ele>393.202262</ele>
        <time>2021-11-20T00:35:05.202Z</time>
      </trkpt>
      <trkpt lat="47.569814" lon="8.040942">
        <ele>391.451935</ele>
        <time>2021-11-20T00:35:08.692Z</time>
      </trkpt>
      <trkpt lat="47.569707" lon="8.040137">
        <ele>388.803435</ele>
        <time>2021-11-20T00:35:13.932Z</time>
      </trkpt>
      <trkpt lat="47.569695" lon="8.040052">
        <ele>388.523111</ele>
        <time>2021-11-20T00:35:14.475Z</time>
      </trkpt>
      <trkpt lat="47.569647" lon="8.039770">
        <ele>387.584287</ele>
        <time>2021-11-20T00:35:16.362Z</time>
      </trkpt>
      <trkpt lat="47.569586" lon="8.039479">
        <ele>386.600639</ele>
        <time>2021-11-20T00:35:18.347Z</time>
      </trkpt>
      <trkpt lat="47.569469" lon="8.039531">
        <ele>386.106314</ele>
        <time>2021-11-20T00:35:19.573Z</time>
      </trkpt>
      <trkpt lat="47.569259" lon="8.039574">
        <ele>385.313168</ele>
        <time>2021-11-20T00:35:21.710Z</time>
      </trkpt>
      <trkpt lat="47.569159" lon="8.039571">
        <ele>384.938956</ele>
        <time>2021-11-20T00:35:22.691Z</time>
      </trkpt>
      <trkpt lat="47.569103" lon="8.039554">
        <ele>384.725091</ele>
        <time>2021-11-20T00:35:23.267Z</time>
      </trkpt>
      <trkpt lat="47.569043" lon="8.039527">
        <ele>384.490491</ele>
        <time>2021-11-20T00:35:23.929Z</time>
      </trkpt>
      <trkpt lat="47.568992" lon="8.039490">
        <ele>384.278050</ele>
        <time>2021-11-20T00:35:24.515Z</time>
      </trkpt>
      <trkpt lat="47.568916" lon="8.039421">
        <ele>383.944601</ele>
        <time>2021-11-20T00:35:25.358Z</time>
      </trkpt>
      <trkpt lat="47.568715" lon="8.039132">
        <ele>382.896876</ele>
        <time>2021-11-20T00:35:28.167Z</time>
      </trkpt>
      <trkpt lat="47.568633" lon="8.038920">
        <ele>382.280021</ele>
        <time>2021-11-20T00:35:29.752Z</time>
      </trkpt>
      <trkpt lat="47.568562" lon="8.038275">
        <ele>380.630311</ele>
        <time>2021-11-20T00:35:34.117Z</time>
      </trkpt>
      <trkpt lat="47.568540" lon="8.037665">
        <ele>379.111366</ele>
        <time>2021-11-20T00:35:38.199Z</time>
      </trkpt>
      <trkpt lat="47.568537" lon="8.037570">
        <ele>378.880354</ele>
        <time>2021-11-20T00:35:38.833Z</time>
      </trkpt>
      <trkpt lat="47.568512" lon="8.037290">
        <ele>378.194289</ele>
        <time>2021-11-20T00:35:40.702Z</time>
      </trkpt>
      <trkpt lat="47.568395" lon="8.036764">
        <ele>376.848964</ele>
        <time>2021-11-20T00:35:44.512Z</time>
      </trkpt>
      <trkpt lat="47.568240" lon="8.036333">
        <ele>375.662606</ele>
        <time>2021-11-20T00:35:47.823Z</time>
      </trkpt>
      <trkpt lat="47.568018" lon="8.035824">
        <ele>374.190378</ele>
        <time>2021-11-20T00:35:51.854Z</time>
      </trkpt>
      <trkpt lat="47.567673" lon="8.035162">
        <ele>371.815711</ele>
        <time>2021-11-20T00:35:57.446Z</time>
      </trkpt>
      <trkpt lat="47.567313" lon="8.034591">
        <ele>369.307068</ele>
        <time>2021-11-20T00:36:02.522Z</time>
      </trkpt>
      <trkpt lat="47.567079" lon="8.034308">
        <ele>367.870155</ele>
        <time>2021-11-20T00:36:05.325Z</time>
      </trkpt>
      <trkpt lat="47.566763" lon="8.034017">
        <ele>366.100154</ele>
        <time>2021-11-20T00:36:08.825Z</time>
      </trkpt>
      <trkpt lat="47.566670" lon="8.033967">
        <ele>365.629479</ele>
        <time>2021-11-20T00:36:09.741Z</time>
      </trkpt>
      <trkpt lat="47.566321" lon="8.033776">
        <ele>363.809727</ele>
        <time>2021-11-20T00:36:13.220Z</time>
      </trkpt>
      <trkpt lat="47.566001" lon="8.033711">
        <ele>362.178431</ele>
        <time>2021-11-20T00:36:16.272Z</time>
      </trkpt>
      <trkpt lat="47.565871" lon="8.033704">
        <ele>361.521422</ele>
        <time>2021-11-20T00:36:17.416Z</time>
      </trkpt>
      <trkpt lat="47.565189" lon="8.033686">
        <ele>358.076377</ele>
        <time>2021-11-20T00:36:23.822Z</time>
      </trkpt>
      <trkpt lat="47.564933" lon="8.033469">
        <ele>356.586881</ele>
        <time>2021-11-20T00:36:26.665Z</time>
      </trkpt>
      <trkpt lat="47.564702" lon="8.033000">
        <ele>355.035548</ele>
        <time>2021-11-20T00:36:30.410Z</time>
      </trkpt>
      <trkpt lat="47.564678" lon="8.032921">
        <ele>354.869738</ele>
        <time>2021-11-20T00:36:30.927Z</time>
      </trkpt>
      <trkpt lat="47.564569" lon="8.032525">
        <ele>354.051230</ele>
        <time>2021-11-20T00:36:33.942Z</time>
      </trkpt>
      <trkpt lat="47.564511" lon="8.032311">
        <ele>353.609866</ele>
        <time>2021-11-20T00:36:35.526Z</time>
      </trkpt>
      <trkpt lat="47.564393" lon="8.032053">
        <ele>353.013357</ele>
        <time>2021-11-20T00:36:37.724Z</time>
      </trkpt>
      <trkpt lat="47.563725" lon="8.031208">
        <ele>350.522355</ele>
        <time>2021-11-20T00:36:47.126Z</time>
      </trkpt>
      <trkpt lat="47.563394" lon="8.030849">
        <ele>349.919808</ele>
        <time>2021-11-20T00:36:52.071Z</time>
      </trkpt>
      <trkpt lat="47.563345" lon="8.030793">
        <ele>349.831980</ele>
        <time>2021-11-20T00:36:52.822Z</time>
      </trkpt>
      <trkpt lat="47.563183" lon="8.030459">
        <ele>349.438022</ele>
        <time>2021-11-20T00:36:56.192Z</time>
      </trkpt>
      <trkpt lat="47.563158" lon="8.030396">
        <ele>349.368023</ele>
        <time>2021-11-20T00:36:56.816Z</time>
      </trkpt>
      <trkpt lat="47.562995" lon="8.029987">
        <ele>348.913078</ele>
        <time>2021-11-20T00:37:00.617Z</time>
      </trkpt>
      <trkpt lat="47.562908" lon="8.029661">
        <ele>348.577314</ele>
        <time>2021-11-20T00:37:03.335Z</time>
      </trkpt>
      <trkpt lat="47.562862" lon="8.029514">
        <ele>348.422120</ele>
        <time>2021-11-20T00:37:04.564Z</time>
      </trkpt>
      <trkpt lat="47.562762" lon="8.029240">
        <ele>348.123766</ele>
        <time>2021-11-20T00:37:06.987Z</time>
      </trkpt>
      <trkpt lat="47.562597" lon="8.028906">
        <ele>347.661037</ele>
        <time>2021-11-20T00:37:10.236Z</time>
      </trkpt>
      <trkpt lat="47.562474" lon="8.028698">
        <ele>347.308969</ele>
        <time>2021-11-20T00:37:12.392Z</time>
      </trkpt>
      <trkpt lat="47.562445" lon="8.028648">
        <ele>347.225039</ele>
        <time>2021-11-20T00:37:12.893Z</time>
      </trkpt>
      <trkpt lat="47.562307" lon="8.028432">
        <ele>346.846381</ele>
        <time>2021-11-20T00:37:15.239Z</time>
      </trkpt>
      <trkpt lat="47.561969" lon="8.028038">
        <ele>346.035118</ele>
        <time>2021-11-20T00:37:20.132Z</time>
      </trkpt>
      <trkpt lat="47.561018" lon="8.027383">
        <ele>343.708936</ele>
        <time>2021-11-20T00:37:31.362Z</time>
      </trkpt>
      <trkpt lat="47.560798" lon="8.027161">
        <ele>342.842035</ele>
        <time>2021-11-20T00:37:34.161Z</time>
      </trkpt>
      <trkpt lat="47.560481" lon="8.026632">
        <ele>341.287091</ele>
        <time>2021-11-20T00:37:39.107Z</time>
      </trkpt>
      <trkpt lat="47.560381" lon="8.026393">
        <ele>340.669013</ele>
        <time>2021-11-20T00:37:41.195Z</time>
      </trkpt>
      <trkpt lat="47.560303" lon="8.026133">
        <ele>340.043633</ele>
        <time>2021-11-20T00:37:43.101Z</time>
      </trkpt>
      <trkpt lat="47.560078" lon="8.025111">
        <ele>336.798120</ele>
        <time>2021-11-20T00:37:49.996Z</time>
      </trkpt>
      <trkpt lat="47.559958" lon="8.024826">
        <ele>335.405663</ele>
        <time>2021-11-20T00:37:52.078Z</time>
      </trkpt>
      <trkpt lat="47.559502" lon="8.024274">
        <ele>331.788874</ele>
        <time>2021-11-20T00:37:57.432Z</time>
      </trkpt>
      <trkpt lat="47.559393" lon="8.024159">
        <ele>330.966973</ele>
        <time>2021-11-20T00:37:58.617Z</time>
      </trkpt>
      <trkpt lat="47.558843" lon="8.023745">
        <ele>327.147179</ele>
        <time>2021-11-20T00:38:04.215Z</time>
      </trkpt>
      <trkpt lat="47.558325" lon="8.023268">
        <ele>323.147775</ele>
        <time>2021-11-20T00:38:09.677Z</time>
      </trkpt>
      <trkpt lat="47.557721" lon="8.022248">
        <ele>317.142364</ele>
        <time>2021-11-20T00:38:17.930Z</time>
      </trkpt>
      <trkpt lat="47.557374" lon="8.021813">
        <ele>314.616603</ele>
        <time>2021-11-20T00:38:22.215Z</time>
      </trkpt>
      <trkpt lat="47.557354" lon="8.021790">
        <ele>314.495747</ele>
        <time>2021-11-20T00:38:22.432Z</time>
      </trkpt>
      <trkpt lat="47.557232" lon="8.021693">
        <ele>313.834801</ele>
        <time>2021-11-20T00:38:23.803Z</time>
      </trkpt>
      <trkpt lat="47.557190" lon="8.021670">
        <ele>313.621047</ele>
        <time>2021-11-20T00:38:24.192Z</time>
      </trkpt>
      <trkpt lat="47.557042" lon="8.021611">
        <ele>312.889402</ele>
        <time>2021-11-20T00:38:25.707Z</time>
      </trkpt>
      <trkpt lat="47.556863" lon="8.021668">
        <ele>312.015381</ele>
        <time>2021-11-20T00:38:27.427Z</time>
      </trkpt>
      <trkpt lat="47.556133" lon="8.022482">
        <ele>307.654007</ele>
        <time>2021-11-20T00:38:36.157Z</time>
      </trkpt>
      <trkpt lat="47.555814" lon="8.022759">
        <ele>306.228890</ele>
        <time>2021-11-20T00:38:39.758Z</time>
      </trkpt>
      <trkpt lat="47.555384" lon="8.022959">
        <ele>304.615791</ele>
        <time>2021-11-20T00:38:44.316Z</time>
      </trkpt>
      <trkpt lat="47.555320" lon="8.022972">
        <ele>304.384579</ele>
        <time>2021-11-20T00:38:44.964Z</time>
      </trkpt>
      <trkpt lat="47.555073" lon="8.023022">
        <ele>303.492304</ele>
        <time>2021-11-20T00:38:47.517Z</time>
      </trkpt>
      <trkpt lat="47.554871" lon="8.023042">
        <ele>302.767692</ele>
        <time>2021-11-20T00:38:49.508Z</time>
      </trkpt>
      <trkpt lat="47.554701" lon="8.023055">
        <ele>302.158417</ele>
        <time>2021-11-20T00:38:51.207Z</time>
      </trkpt>
      <trkpt lat="47.554299" lon="8.023080">
        <ele>300.735749</ele>
        <time>2021-11-20T00:38:55.217Z</time>
      </trkpt>
      <trkpt lat="47.554021" lon="8.023095">
        <ele>299.930051</ele>
        <time>2021-11-20T00:38:58.037Z</time>
      </trkpt>
      <trkpt lat="47.553811" lon="8.023113">
        <ele>299.320817</ele>
        <time>2021-11-20T00:39:00.112Z</time>
      </trkpt>
      <trkpt lat="47.553732" lon="8.023128">
        <ele>299.090140</ele>
        <time>2021-11-20T00:39:00.923Z</time>
      </trkpt>
      <trkpt lat="47.553719" lon="8.022919">
        <ele>298.679878</ele>
        <time>2021-11-20T00:39:02.327Z</time>
      </trkpt>
      <trkpt lat="47.553699" lon="8.022667">
        <ele>298.183902</ele>
        <time>2021-11-20T00:39:04.025Z</time>
      </trkpt>
      <trkpt lat="47.553695" lon="8.022619">
        <ele>298.089364</ele>
        <time>2021-11-20T00:39:04.354Z</time>
      </trkpt>
      <trkpt lat="47.553685" lon="8.022501">
        <ele>297.856899</ele>
        <time>2021-11-20T00:39:05.151Z</time>
      </trkpt>
      <trkpt lat="47.553650" lon="8.022054">
        <ele>296.977290</ele>
        <time>2021-11-20T00:39:08.336Z</time>
      </trkpt>
      <trkpt lat="47.553619" lon="8.021667">
        <ele>296.215514</ele>
        <time>2021-11-20T00:39:11.164Z</time>
      </trkpt>
      <trkpt lat="47.553615" lon="8.021606">
        <ele>296.095716</ele>
        <time>2021-11-20T00:39:11.657Z</time>
      </trkpt>
      <trkpt lat="47.553614" lon="8.021587">
        <ele>296.058464</ele>
        <time>2021-11-20T00:39:11.792Z</time>
      </trkpt>
      <trkpt lat="47.553607" lon="8.021497">
        <ele>295.881377</ele>
        <time>2021-11-20T00:39:12.469Z</time>
      </trkpt>
      <trkpt lat="47.553565" lon="8.021501">
        <ele>295.759482</ele>
        <time>2021-11-20T00:39:12.911Z</time>
      </trkpt>
      <trkpt lat="47.553305" lon="8.021505">
        <ele>295.405908</ele>
        <time>2021-11-20T00:39:15.975Z</time>
      </trkpt>
      <trkpt lat="47.553291" lon="8.021502">
        <ele>295.392496</ele>
        <time>2021-11-20T00:39:16.132Z</time>
      </trkpt>
      <trkpt lat="47.553266" lon="8.021493">
        <ele>295.368102</ele>
        <time>2021-11-20T00:39:16.417Z</time>
      </trkpt>
      <trkpt lat="47.553232" lon="8.021484">
        <ele>295.335354</ele>
        <time>2021-11-20T00:39:16.818Z</time>
      </trkpt>
      <trkpt lat="47.553183" lon="8.021466">
        <ele>295.287488</ele>
        <time>2021-11-20T00:39:17.355Z</time>
      </trkpt>
      <trkpt lat="47.552959" lon="8.021335">
        <ele>295.059156</ele>
        <time>2021-11-20T00:39:20.195Z</time>
      </trkpt>
      <trkpt lat="47.552776" lon="8.021316">
        <ele>294.885218</ele>
        <time>2021-11-20T00:39:22.323Z</time>
      </trkpt>
      <trkpt lat="47.552813" lon="8.020595">
        <ele>294.422503</ele>
        <time>2021-11-20T00:39:28.592Z</time>
      </trkpt>
      <trkpt lat="47.552872" lon="8.020109">
        <ele>294.106511</ele>
        <time>2021-11-20T00:39:32.869Z</time>
      </trkpt>
      <trkpt lat="47.552879" lon="8.020034">
        <ele>294.058060</ele>
        <time>2021-11-20T00:39:33.870Z</time>
      </trkpt>
      <trkpt lat="47.552961" lon="8.019989">
        <ele>293.975150</ele>
        <time>2021-11-20T00:39:34.974Z</time>
      </trkpt>
      <trkpt lat="47.553031" lon="8.019915">
        <ele>293.894580</ele>
        <time>2021-11-20T00:39:36.098Z</time>
      </trkpt>
      <trkpt lat="47.553056" lon="8.019871">
        <ele>293.884367</ele>
        <time>2021-11-20T00:39:36.617Z</time>
      </trkpt>
      <trkpt lat="47.553064" lon="8.019820">
        <ele>293.875069</ele>
        <time>2021-11-20T00:39:37.176Z</time>
      </trkpt>
      <trkpt lat="47.553055" lon="8.019647">
        <ele>293.844257</ele>
        <time>2021-11-20T00:39:39.199Z</time>
      </trkpt>
      <trkpt lat="47.553030" lon="8.019182">
        <ele>293.761421</ele>
        <time>2021-11-20T00:39:43.843Z</time>
      </trkpt>
      <trkpt lat="47.553028" lon="8.018988">
        <ele>293.726966</ele>
        <time>2021-11-20T00:39:46.124Z</time>
      </trkpt>
      <trkpt lat="47.553012" lon="8.018748">
        <ele>293.684140</ele>
        <time>2021-11-20T00:39:48.621Z</time>
      </trkpt>
      <trkpt lat="47.553159" lon="8.017677">
        <ele>293.490060</ele>
        <time>2021-11-20T00:39:58.944Z</time>
      </trkpt>
      <trkpt lat="47.553229" lon="8.017328">
        <ele>293.425406</ele>
        <time>2021-11-20T00:40:01.894Z</time>
      </trkpt>
      <trkpt lat="47.553318" lon="8.017064">
        <ele>293.301725</ele>
        <time>2021-11-20T00:40:04.382Z</time>
      </trkpt>
      <trkpt lat="47.553715" lon="8.016236">
        <ele>292.857363</ele>
        <time>2021-11-20T00:40:13.221Z</time>
      </trkpt>
      <trkpt lat="47.553882" lon="8.015749">
        <ele>292.618376</ele>
        <time>2021-11-20T00:40:17.961Z</time>
      </trkpt>
      <trkpt lat="47.553910" lon="8.015626">
        <ele>292.561585</ele>
        <time>2021-11-20T00:40:18.981Z</time>
      </trkpt>
      <trkpt lat="47.554329" lon="8.013807">
        <ele>292.045616</ele>
        <time>2021-11-20T00:40:36.036Z</time>
      </trkpt>
      <trkpt lat="47.554393" lon="8.013577">
        <ele>292.002872</ele>
        <time>2021-11-20T00:40:38.168Z</time>
      </trkpt>
      <trkpt lat="47.554546" lon="8.013079">
        <ele>291.908860</ele>
        <time>2021-11-20T00:40:43.521Z</time>
      </trkpt>
      <trkpt lat="47.554665" lon="8.012540">
        <ele>291.811423</ele>
        <time>2021-11-20T00:40:49.508Z</time>
      </trkpt>
      <trkpt lat="47.554682" lon="8.012449">
        <ele>291.805888</ele>
        <time>2021-11-20T00:40:50.616Z</time>
      </trkpt>
      <trkpt lat="47.554818" lon="8.011865">
        <ele>292.130200</ele>
        <time>2021-11-20T00:40:57.427Z</time>
      </trkpt>
      <trkpt lat="47.555069" lon="8.010772">
        <ele>292.736279</ele>
        <time>2021-11-20T00:41:11.709Z</time>
      </trkpt>
      <trkpt lat="47.555124" lon="8.010557">
        <ele>292.856980</ele>
        <time>2021-11-20T00:41:14.776Z</time>
      </trkpt>
      <trkpt lat="47.555373" lon="8.009365">
        <ele>293.533844</ele>
        <time>2021-11-20T00:41:30.562Z</time>
      </trkpt>
      <trkpt lat="47.555492" lon="8.008854">
        <ele>293.837278</ele>
        <time>2021-11-20T00:41:37.385Z</time>
      </trkpt>
      <trkpt lat="47.555689" lon="8.008075">
        <ele>294.304239</ele>
        <time>2021-11-20T00:41:47.594Z</time>
      </trkpt>
      <trkpt lat="47.556414" lon="8.004608">
        <ele>295.975470</ele>
        <time>2021-11-20T00:42:30.163Z</time>
      </trkpt>
      <trkpt lat="47.556859" lon="8.003033">
        <ele>296.537502</ele>
        <time>2021-11-20T00:42:50.441Z</time>
      </trkpt>
      <trkpt lat="47.557421" lon="8.000151">
        <ele>296.587219</ele>
        <time>2021-11-20T00:43:20.754Z</time>
      </trkpt>
      <trkpt lat="47.557552" lon="7.999488">
        <ele>296.413969</ele>
        <time>2021-11-20T00:43:26.728Z</time>
      </trkpt>
      <trkpt lat="47.557569" lon="7.999330">
        <ele>296.344963</ele>
        <time>2021-11-20T00:43:28.054Z</time>
      </trkpt>
      <trkpt lat="47.557590" lon="7.999121">
        <ele>296.253827</ele>
        <time>2021-11-20T00:43:33.076Z</time>
      </trkpt>
      <trkpt lat="47.557595" lon="7.999065">
        <ele>296.229463</ele>
        <time>2021-11-20T00:43:33.571Z</time>
      </trkpt>
      <trkpt lat="47.557611" lon="7.998828">
        <ele>296.126734</ele>
        <time>2021-11-20T00:43:35.541Z</time>
      </trkpt>
      <trkpt lat="47.557666" lon="7.996934">
        <ele>295.361182</ele>
        <time>2021-11-20T00:43:51.864Z</time>
      </trkpt>
      <trkpt lat="47.557377" lon="7.991413">
        <ele>294.330427</ele>
        <time>2021-11-20T00:44:44.208Z</time>
      </trkpt>
      <trkpt lat="47.557298" lon="7.990679">
        <ele>294.137723</ele>
        <time>2021-11-20T00:44:50.942Z</time>
      </trkpt>
      <trkpt lat="47.557185" lon="7.988787">
        <ele>293.675169</ele>
        <time>2021-11-20T00:45:08.148Z</time>
      </trkpt>
      <trkpt lat="47.556668" lon="7.978159">
        <ele>291.482285</ele>
        <time>2021-11-20T00:46:48.021Z</time>
      </trkpt>
      <trkpt lat="47.556769" lon="7.976421">
        <ele>290.556786</ele>
        <time>2021-11-20T00:47:02.519Z</time>
      </trkpt>
      <trkpt lat="47.557045" lon="7.974526">
        <ele>289.755073</ele>
        <time>2021-11-20T00:47:18.723Z</time>
      </trkpt>
      <trkpt lat="47.557108" lon="7.974186">
        <ele>289.623807</ele>
        <time>2021-11-20T00:47:21.857Z</time>
      </trkpt>
      <trkpt lat="47.557235" lon="7.973507">
        <ele>289.361488</ele>
        <time>2021-11-20T00:47:28.803Z</time>
      </trkpt>
      <trkpt lat="47.557323" lon="7.972992">
        <ele>289.379514</ele>
        <time>2021-11-20T00:47:34.385Z</time>
      </trkpt>
      <trkpt lat="47.557419" lon="7.972636">
        <ele>289.468845</ele>
        <time>2021-11-20T00:47:38.454Z</time>
      </trkpt>
      <trkpt lat="47.557538" lon="7.972196">
        <ele>289.579299</ele>
        <time>2021-11-20T00:47:43.822Z</time>
      </trkpt>
      <trkpt lat="47.557756" lon="7.971140">
        <ele>289.836619</ele>
        <time>2021-11-20T00:47:56.703Z</time>
      </trkpt>
      <trkpt lat="47.558045" lon="7.969704">
        <ele>289.898914</ele>
        <time>2021-11-20T00:48:12.003Z</time>
      </trkpt>
      <trkpt lat="47.558225" lon="7.968807">
        <ele>289.883822</ele>
        <time>2021-11-20T00:48:21.160Z</time>
      </trkpt>
      <trkpt lat="47.558296" lon="7.968403">
        <ele>289.877090</ele>
        <time>2021-11-20T00:48:25.101Z</time>
      </trkpt>
      <trkpt lat="47.558313" lon="7.968259">
        <ele>289.874732</ele>
        <time>2021-11-20T00:48:26.334Z</time>
      </trkpt>
      <trkpt lat="47.558327" lon="7.968108">
        <ele>289.884890</ele>
        <time>2021-11-20T00:48:27.919Z</time>
      </trkpt>
      <trkpt lat="47.558430" lon="7.967788">
        <ele>289.911563</ele>
        <time>2021-11-20T00:48:31.143Z</time>
      </trkpt>
      <trkpt lat="47.558448" lon="7.967701">
        <ele>289.918409</ele>
        <time>2021-11-20T00:48:32.077Z</time>
      </trkpt>
      <trkpt lat="47.558606" lon="7.966985">
        <ele>289.975084</ele>
        <time>2021-11-20T00:48:39.911Z</time>
      </trkpt>
      <trkpt lat="47.558732" lon="7.966356">
        <ele>290.024448</ele>
        <time>2021-11-20T00:48:46.822Z</time>
      </trkpt>
      <trkpt lat="47.558949" lon="7.965326">
        <ele>290.045848</ele>
        <time>2021-11-20T00:48:58.717Z</time>
      </trkpt>
      <trkpt lat="47.559029" lon="7.964894">
        <ele>290.013718</ele>
        <time>2021-11-20T00:49:03.471Z</time>
      </trkpt>
      <trkpt lat="47.559232" lon="7.963800">
        <ele>289.932338</ele>
        <time>2021-11-20T00:49:14.499Z</time>
      </trkpt>
      <trkpt lat="47.559368" lon="7.962709">
        <ele>289.664317</ele>
        <time>2021-11-20T00:49:24.419Z</time>
      </trkpt>
      <trkpt lat="47.559408" lon="7.961845">
        <ele>289.225708</ele>
        <time>2021-11-20T00:49:31.472Z</time>
      </trkpt>
      <trkpt lat="47.559406" lon="7.960730">
        <ele>288.661005</ele>
        <time>2021-11-20T00:49:40.844Z</time>
      </trkpt>
      <trkpt lat="47.559346" lon="7.959868">
        <ele>288.579613</ele>
        <time>2021-11-20T00:49:48.837Z</time>
      </trkpt>
      <trkpt lat="47.559324" lon="7.959601">
        <ele>288.599553</ele>
        <time>2021-11-20T00:49:51.221Z</time>
      </trkpt>
      <trkpt lat="47.559224" lon="7.958738">
        <ele>288.664466</ele>
        <time>2021-11-20T00:50:00.418Z</time>
      </trkpt>
      <trkpt lat="47.558756" lon="7.956469">
        <ele>289.210237</ele>
        <time>2021-11-20T00:50:28.723Z</time>
      </trkpt>
      <trkpt lat="47.558659" lon="7.956055">
        <ele>289.353175</ele>
        <time>2021-11-20T00:50:33.732Z</time>
      </trkpt>
      <trkpt lat="47.558360" lon="7.955074">
        <ele>289.534945</ele>
        <time>2021-11-20T00:50:45.025Z</time>
      </trkpt>
      <trkpt lat="47.558201" lon="7.954539">
        <ele>289.413351</ele>
        <time>2021-11-20T00:50:50.561Z</time>
      </trkpt>
      <trkpt lat="47.558161" lon="7.954466">
        <ele>289.393792</ele>
        <time>2021-11-20T00:50:51.394Z</time>
      </trkpt>
      <trkpt lat="47.558107" lon="7.954410">
        <ele>289.373477</ele>
        <time>2021-11-20T00:50:52.337Z</time>
      </trkpt>
      <trkpt lat="47.558070" lon="7.954468">
        <ele>289.356875</ele>
        <time>2021-11-20T00:50:53.043Z</time>
      </trkpt>
      <trkpt lat="47.557935" lon="7.954571">
        <ele>289.310074</ele>
        <time>2021-11-20T00:50:55.188Z</time>
      </trkpt>
      <trkpt lat="47.557899" lon="7.954581">
        <ele>289.298784</ele>
        <time>2021-11-20T00:50:55.638Z</time>
      </trkpt>
      <trkpt lat="47.557874" lon="7.954579">
        <ele>289.291067</ele>
        <time>2021-11-20T00:50:55.937Z</time>
      </trkpt>
      <trkpt lat="47.557687" lon="7.954371">
        <ele>289.218998</ele>
        <time>2021-11-20T00:50:59.199Z</time>
      </trkpt>
      <trkpt lat="47.557517" lon="7.954117">
        <ele>289.144588</ele>
        <time>2021-11-20T00:51:02.350Z</time>
      </trkpt>
      <trkpt lat="47.557120" lon="7.953536">
        <ele>288.916238</ele>
        <time>2021-11-20T00:51:09.489Z</time>
      </trkpt>
      <trkpt lat="47.556400" lon="7.952468">
        <ele>288.362680</ele>
        <time>2021-11-20T00:51:22.487Z</time>
      </trkpt>
      <trkpt lat="47.556386" lon="7.952449">
        <ele>288.352365</ele>
        <time>2021-11-20T00:51:22.736Z</time>
      </trkpt>
      <trkpt lat="47.556339" lon="7.952382">
        <ele>288.316927</ele>
        <time>2021-11-20T00:51:23.564Z</time>
      </trkpt>
      <trkpt lat="47.555687" lon="7.951449">
        <ele>288.311530</ele>
        <time>2021-11-20T00:51:36.432Z</time>
      </trkpt>
      <trkpt lat="47.555474" lon="7.951144">
        <ele>288.470898</ele>
        <time>2021-11-20T00:51:41.174Z</time>
      </trkpt>
      <trkpt lat="47.554954" lon="7.950665">
        <ele>288.800330</ele>
        <time>2021-11-20T00:51:52.221Z</time>
      </trkpt>
      <trkpt lat="47.554759" lon="7.950515">
        <ele>288.918542</ele>
        <time>2021-11-20T00:51:56.327Z</time>
      </trkpt>
      <trkpt lat="47.554652" lon="7.950448">
        <ele>288.981040</ele>
        <time>2021-11-20T00:51:58.654Z</time>
      </trkpt>
      <trkpt lat="47.554392" lon="7.950331">
        <ele>289.210549</ele>
        <time>2021-11-20T00:52:03.823Z</time>
      </trkpt>
      <trkpt lat="47.554303" lon="7.950312">
        <ele>289.303546</ele>
        <time>2021-11-20T00:52:05.688Z</time>
      </trkpt>
      <trkpt lat="47.554240" lon="7.950300">
        <ele>289.369238</ele>
        <time>2021-11-20T00:52:06.929Z</time>
      </trkpt>
      <trkpt lat="47.554192" lon="7.950296">
        <ele>289.418960</ele>
        <time>2021-11-20T00:52:08.909Z</time>
      </trkpt>
      <trkpt lat="47.554009" lon="7.949869">
        <ele>289.772020</ele>
        <time>2021-11-20T00:52:23.408Z</time>
      </trkpt>
      <trkpt lat="47.553815" lon="7.949414">
        <ele>290.147678</ele>
        <time>2021-11-20T00:52:38.769Z</time>
      </trkpt>
      <trkpt lat="47.553672" lon="7.949089">
        <ele>290.418480</ele>
        <time>2021-11-20T00:52:49.733Z</time>
      </trkpt>
      <trkpt lat="47.553368" lon="7.948399">
        <ele>290.878625</ele>
        <time>2021-11-20T00:53:12.151Z</time>
      </trkpt>
      <trkpt lat="47.553197" lon="7.948543">
        <ele>290.839665</ele>
        <time>2021-11-20T00:53:25.790Z</time>
      </trkpt>
      <trkpt lat="47.552953" lon="7.948775">
        <ele>290.782237</ele>
        <time>2021-11-20T00:53:36.456Z</time>
      </trkpt>
      <trkpt lat="47.552618" lon="7.949130">
        <ele>290.700655</ele>
        <time>2021-11-20T00:53:50.779Z</time>
      </trkpt>
      <trkpt lat="47.552518" lon="7.949236">
        <ele>290.676300</ele>
        <time>2021-11-20T00:53:54.935Z</time>
      </trkpt>
      <trkpt lat="47.552382" lon="7.949119">
        <ele>290.645149</ele>
        <time>2021-11-20T00:54:00.401Z</time>
      </trkpt>
      <trkpt lat="47.552351" lon="7.949099">
        <ele>290.638452</ele>
        <time>2021-11-20T00:54:01.535Z</time>
      </trkpt>
      <trkpt lat="47.552202" lon="7.949003">
        <ele>290.606268</ele>
        <time>2021-11-20T00:54:07.187Z</time>
      </trkpt>
      <trkpt lat="47.552094" lon="7.948926">
        <ele>290.582527</ele>
        <time>2021-11-20T00:54:11.484Z</time>
      </trkpt>
      <trkpt lat="47.552049" lon="7.948982">
        <ele>290.570887</ele>
        <time>2021-11-20T00:54:13.563Z</time>
      </trkpt>
      <trkpt lat="47.552010" lon="7.949039">
        <ele>290.560035</ele>
        <time>2021-11-20T00:54:15.544Z</time>
      </trkpt>
      <trkpt lat="47.551948" lon="7.949139">
        <ele>290.541882</ele>
        <time>2021-11-20T00:54:18.719Z</time>
      </trkpt>
      <trkpt lat="47.551794" lon="7.949387">
        <ele>290.723505</ele>
        <time>2021-11-20T00:54:27.044Z</time>
      </trkpt>
      <trkpt lat="47.551673" lon="7.949634">
        <ele>290.892879</ele>
        <time>2021-11-20T00:54:34.674Z</time>
      </trkpt>
      <trkpt lat="47.551581" lon="7.949830">
        <ele>291.025368</ele>
        <time>2021-11-20T00:54:40.585Z</time>
      </trkpt>
      <trkpt lat="47.551525" lon="7.950027">
        <ele>291.143994</ele>
        <time>2021-11-20T00:54:46.048Z</time>
      </trkpt>
      <trkpt lat="47.551506" lon="7.950255">
        <ele>291.271484</ele>
        <time>2021-11-20T00:54:52.162Z</time>
      </trkpt>
      <trkpt lat="47.551381" lon="7.952341">
        <ele>293.113638</ele>
        <time>2021-11-20T00:55:53.843Z</time>
      </trkpt>
      <trkpt lat="47.551339" lon="7.952761">
        <ele>293.736338</ele>
        <time>2021-11-20T00:56:07.239Z</time>
      </trkpt>
      <trkpt lat="47.551334" lon="7.952777">
        <ele>293.762197</ele>
        <time>2021-11-20T00:56:07.852Z</time>
      </trkpt>
      <trkpt lat="47.551295" lon="7.952900">
        <ele>293.961505</ele>
        <time>2021-11-20T00:56:12.489Z</time>
      </trkpt>
      <trkpt lat="47.551254" lon="7.952986">
        <ele>294.115926</ele>
        <time>2021-11-20T00:56:14.729Z</time>
      </trkpt>
      <trkpt lat="47.550967" lon="7.953063">
        <ele>294.749714</ele>
        <time>2021-11-20T00:56:23.727Z</time>
      </trkpt>
      <trkpt lat="47.550656" lon="7.953072">
        <ele>295.425641</ele>
        <time>2021-11-20T00:56:32.905Z</time>
      </trkpt>
      <trkpt lat="47.550567" lon="7.953069">
        <ele>295.619087</ele>
        <time>2021-11-20T00:56:35.773Z</time>
      </trkpt>
      <trkpt lat="47.549687" lon="7.953071">
        <ele>296.935518</ele>
        <time>2021-11-20T00:56:59.642Z</time>
      </trkpt>
      <trkpt lat="47.549673" lon="7.953076">
        <ele>296.955181</ele>
        <time>2021-11-20T00:57:00.378Z</time>
      </trkpt>
      <trkpt lat="47.549640" lon="7.953086">
        <ele>297.001172</ele>
        <time>2021-11-20T00:57:01.245Z</time>
      </trkpt>
      <trkpt lat="47.549442" lon="7.953195">
        <ele>297.289582</ele>
        <time>2021-11-20T00:57:06.291Z</time>
      </trkpt>
      <trkpt lat="47.549296" lon="7.953268">
        <ele>297.499978</ele>
        <time>2021-11-20T00:57:10.258Z</time>
      </trkpt>
      <trkpt lat="47.548335" lon="7.953779">
        <ele>298.573185</ele>
        <time>2021-11-20T00:57:33.902Z</time>
      </trkpt>
      <trkpt lat="47.548251" lon="7.953895">
        <ele>298.631326</ele>
        <time>2021-11-20T00:57:36.867Z</time>
      </trkpt>
      <trkpt lat="47.548115" lon="7.953729">
        <ele>298.720545</ele>
        <time>2021-11-20T00:57:39.707Z</time>
      </trkpt>
      <trkpt lat="47.547994" lon="7.953584">
        <ele>298.799342</ele>
        <time>2021-11-20T00:57:42.231Z</time>
      </trkpt>
      <trkpt lat="47.547871" lon="7.953437">
        <ele>298.879356</ele>
        <time>2021-11-20T00:57:44.748Z</time>
      </trkpt>
      <trkpt lat="47.547797" lon="7.953355">
        <ele>298.926144</ele>
        <time>2021-11-20T00:57:46.198Z</time>
      </trkpt>
      <trkpt lat="47.547624" lon="7.953160">
        <ele>299.036206</ele>
        <time>2021-11-20T00:57:49.671Z</time>
      </trkpt>
      <trkpt lat="47.547550" lon="7.953078">
        <ele>299.082994</ele>
        <time>2021-11-20T00:57:51.203Z</time>
      </trkpt>
      <trkpt lat="47.547458" lon="7.952975">
        <ele>299.141380</ele>
        <time>2021-11-20T00:57:53.230Z</time>
      </trkpt>
      <trkpt lat="47.547400" lon="7.952910">
        <ele>299.178202</ele>
        <time>2021-11-20T00:57:54.526Z</time>
      </trkpt>
      <trkpt lat="47.547090" lon="7.952543">
        <ele>299.346729</ele>
        <time>2021-11-20T00:58:01.008Z</time>
      </trkpt>
      <trkpt lat="47.546935" lon="7.952372">
        <ele>299.407015</ele>
        <time>2021-11-20T00:58:03.900Z</time>
      </trkpt>
      <trkpt lat="47.546776" lon="7.952185">
        <ele>299.470346</ele>
        <time>2021-11-20T00:58:07.224Z</time>
      </trkpt>
      <trkpt lat="47.546695" lon="7.952091">
        <ele>299.502443</ele>
        <time>2021-11-20T00:58:09.031Z</time>
      </trkpt>
      <trkpt lat="47.546634" lon="7.952024">
        <ele>299.526132</ele>
        <time>2021-11-20T00:58:10.474Z</time>
      </trkpt>
      <trkpt lat="47.546421" lon="7.951793">
        <ele>299.608479</ele>
        <time>2021-11-20T00:58:14.885Z</time>
      </trkpt>
      <trkpt lat="47.546231" lon="7.951558">
        <ele>299.685692</ele>
        <time>2021-11-20T00:58:19.439Z</time>
      </trkpt>
      <trkpt lat="47.546212" lon="7.951535">
        <ele>299.693346</ele>
        <time>2021-11-20T00:58:19.684Z</time>
      </trkpt>
      <trkpt lat="47.546135" lon="7.951406">
        <ele>299.729607</ele>
        <time>2021-11-20T00:58:21.493Z</time>
      </trkpt>
      <trkpt lat="47.545886" lon="7.951110">
        <ele>299.829198</ele>
        <time>2021-11-20T00:58:26.313Z</time>
      </trkpt>
      <trkpt lat="47.545824" lon="7.951061">
        <ele>299.851120</ele>
        <time>2021-11-20T00:58:27.455Z</time>
      </trkpt>
      <trkpt lat="47.545759" lon="7.950982">
        <ele>299.820447</ele>
        <time>2021-11-20T00:58:28.861Z</time>
      </trkpt>
      <trkpt lat="47.545727" lon="7.950947">
        <ele>299.800028</ele>
        <time>2021-11-20T00:58:29.662Z</time>
      </trkpt>
      <trkpt lat="47.545625" lon="7.950829">
        <ele>299.733593</ele>
        <time>2021-11-20T00:58:31.217Z</time>
      </trkpt>
      <trkpt lat="47.545567" lon="7.950765">
        <ele>299.696467</ele>
        <time>2021-11-20T00:58:32.250Z</time>
      </trkpt>
      <trkpt lat="47.545494" lon="7.950684">
        <ele>299.649647</ele>
        <time>2021-11-20T00:58:33.618Z</time>
      </trkpt>
      <trkpt lat="47.545434" lon="7.950668">
        <ele>299.618352</ele>
        <time>2021-11-20T00:58:34.703Z</time>
      </trkpt>
      <trkpt lat="47.545166" lon="7.950366">
        <ele>299.445498</ele>
        <time>2021-11-20T00:58:39.044Z</time>
      </trkpt>
      <trkpt lat="47.544901" lon="7.950044">
        <ele>299.269555</ele>
        <time>2021-11-20T00:58:43.177Z</time>
      </trkpt>
      <trkpt lat="47.544521" lon="7.949558">
        <ele>299.011846</ele>
        <time>2021-11-20T00:58:49.366Z</time>
      </trkpt>
      <trkpt lat="47.544239" lon="7.949202">
        <ele>299.131341</ele>
        <time>2021-11-20T00:58:54.273Z</time>
      </trkpt>
      <trkpt lat="47.543864" lon="7.948694">
        <ele>299.599190</ele>
        <time>2021-11-20T00:59:02.235Z</time>
      </trkpt>
      <trkpt lat="47.543760" lon="7.948548">
        <ele>299.731106</ele>
        <time>2021-11-20T00:59:04.478Z</time>
      </trkpt>
      <trkpt lat="47.543579" lon="7.948287">
        <ele>299.963664</ele>
        <time>2021-11-20T00:59:10.190Z</time>
      </trkpt>
      <trkpt lat="47.543579" lon="7.948287">
        <ele>299.963664</ele>
        <time>2021-11-20T00:59:10.251Z</time>
      </trkpt>
      <trkpt lat="47.543579" lon="7.948287">
        <ele>299.963664</ele>
        <time>2021-11-20T00:59:10.311Z</time>
      </trkpt>
      <trkpt lat="47.543532" lon="7.948214">
        <ele>300.026361</ele>
        <time>2021-11-20T00:59:11.437Z</time>
      </trkpt>
      <trkpt lat="47.543435" lon="7.948000">
        <ele>300.186564</ele>
        <time>2021-11-20T00:59:14.500Z</time>
      </trkpt>
      <trkpt lat="47.543407" lon="7.947938">
        <ele>300.232926</ele>
        <time>2021-11-20T00:59:16.358Z</time>
      </trkpt>
      <trkpt lat="47.543280" lon="7.947656">
        <ele>300.443613</ele>
        <time>2021-11-20T00:59:20.845Z</time>
      </trkpt>
      <trkpt lat="47.543142" lon="7.947250">
        <ele>300.990535</ele>
        <time>2021-11-20T00:59:28.309Z</time>
      </trkpt>
      <trkpt lat="47.543086" lon="7.947052">
        <ele>301.380317</ele>
        <time>2021-11-20T00:59:31.739Z</time>
      </trkpt>
      <trkpt lat="47.543056" lon="7.946935">
        <ele>301.607560</ele>
        <time>2021-11-20T00:59:34.579Z</time>
      </trkpt>
      <trkpt lat="47.543045" lon="7.946881">
        <ele>301.709974</ele>
        <time>2021-11-20T00:59:35.736Z</time>
      </trkpt>
      <trkpt lat="47.542982" lon="7.946547">
        <ele>302.339639</ele>
        <time>2021-11-20T00:59:41.137Z</time>
      </trkpt>
      <trkpt lat="47.542974" lon="7.946495">
        <ele>302.436475</ele>
        <time>2021-11-20T00:59:42.778Z</time>
      </trkpt>
      <trkpt lat="47.542960" lon="7.946400">
        <ele>302.613027</ele>
        <time>2021-11-20T00:59:44.844Z</time>
      </trkpt>
      <trkpt lat="47.542916" lon="7.945730">
        <ele>303.835274</ele>
        <time>2021-11-20T00:59:57.509Z</time>
      </trkpt>
      <trkpt lat="47.542913" lon="7.945267">
        <ele>304.675972</ele>
        <time>2021-11-20T01:00:06.004Z</time>
      </trkpt>
      <trkpt lat="47.543007" lon="7.943867">
        <ele>305.986558</ele>
        <time>2021-11-20T01:00:27.171Z</time>
      </trkpt>
      <trkpt lat="47.543161" lon="7.942213">
        <ele>306.927844</ele>
        <time>2021-11-20T01:00:45.577Z</time>
      </trkpt>
      <trkpt lat="47.543435" lon="7.940670">
        <ele>305.644151</ele>
        <time>2021-11-20T01:00:58.525Z</time>
      </trkpt>
      <trkpt lat="47.543826" lon="7.939433">
        <ele>304.421548</ele>
        <time>2021-11-20T01:01:08.926Z</time>
      </trkpt>
      <trkpt lat="47.544472" lon="7.937932">
        <ele>302.251700</ele>
        <time>2021-11-20T01:01:22.250Z</time>
      </trkpt>
      <trkpt lat="47.544705" lon="7.937395">
        <ele>301.481845</ele>
        <time>2021-11-20T01:01:27.090Z</time>
      </trkpt>
      <trkpt lat="47.544903" lon="7.936917">
        <ele>300.891823</ele>
        <time>2021-11-20T01:01:31.351Z</time>
      </trkpt>
      <trkpt lat="47.545074" lon="7.936484">
        <ele>300.364046</ele>
        <time>2021-11-20T01:01:35.181Z</time>
      </trkpt>
      <trkpt lat="47.545457" lon="7.935110">
        <ele>298.800122</ele>
        <time>2021-11-20T01:01:46.550Z</time>
      </trkpt>
      <trkpt lat="47.545674" lon="7.933625">
        <ele>298.616556</ele>
        <time>2021-11-20T01:01:59.630Z</time>
      </trkpt>
      <trkpt lat="47.545702" lon="7.933290">
        <ele>298.590060</ele>
        <time>2021-11-20T01:02:03.210Z</time>
      </trkpt>
      <trkpt lat="47.545724" lon="7.932758">
        <ele>298.548223</ele>
        <time>2021-11-20T01:02:09.477Z</time>
      </trkpt>
      <trkpt lat="47.545721" lon="7.931992">
        <ele>299.065813</ele>
        <time>2021-11-20T01:02:19.516Z</time>
      </trkpt>
      <trkpt lat="47.545696" lon="7.931497">
        <ele>299.701167</ele>
        <time>2021-11-20T01:02:26.722Z</time>
      </trkpt>
      <trkpt lat="47.545661" lon="7.930955">
        <ele>300.398077</ele>
        <time>2021-11-20T01:02:35.417Z</time>
      </trkpt>
      <trkpt lat="47.545563" lon="7.929641">
        <ele>301.931982</ele>
        <time>2021-11-20T01:02:57.757Z</time>
      </trkpt>
      <trkpt lat="47.545475" lon="7.928419">
        <ele>301.930432</ele>
        <time>2021-11-20T01:03:14.059Z</time>
      </trkpt>
      <trkpt lat="47.545421" lon="7.927686">
        <ele>301.929501</ele>
        <time>2021-11-20T01:03:20.163Z</time>
      </trkpt>
      <trkpt lat="47.545406" lon="7.927306">
        <ele>301.929021</ele>
        <time>2021-11-20T01:03:23.067Z</time>
      </trkpt>
      <trkpt lat="47.545407" lon="7.927001">
        <ele>301.668783</ele>
        <time>2021-11-20T01:03:25.353Z</time>
      </trkpt>
      <trkpt lat="47.545409" lon="7.926773">
        <ele>301.133657</ele>
        <time>2021-11-20T01:03:26.982Z</time>
      </trkpt>
      <trkpt lat="47.545417" lon="7.925848">
        <ele>298.962645</ele>
        <time>2021-11-20T01:03:33.317Z</time>
      </trkpt>
      <trkpt lat="47.545446" lon="7.925350">
        <ele>297.789574</ele>
        <time>2021-11-20T01:03:36.609Z</time>
      </trkpt>
      <trkpt lat="47.545466" lon="7.924880">
        <ele>296.684367</ele>
        <time>2021-11-20T01:03:39.663Z</time>
      </trkpt>
      <trkpt lat="47.545481" lon="7.924396">
        <ele>295.577758</ele>
        <time>2021-11-20T01:03:42.746Z</time>
      </trkpt>
      <trkpt lat="47.545521" lon="7.923709">
        <ele>294.344639</ele>
        <time>2021-11-20T01:03:47.271Z</time>
      </trkpt>
      <trkpt lat="47.545536" lon="7.923407">
        <ele>293.803115</ele>
        <time>2021-11-20T01:03:49.661Z</time>
      </trkpt>
      <trkpt lat="47.545553" lon="7.923142">
        <ele>293.327083</ele>
        <time>2021-11-20T01:03:51.382Z</time>
      </trkpt>
      <trkpt lat="47.545587" lon="7.922895">
        <ele>292.876284</ele>
        <time>2021-11-20T01:03:53.783Z</time>
      </trkpt>
      <trkpt lat="47.545641" lon="7.922610">
        <ele>292.346924</ele>
        <time>2021-11-20T01:03:55.782Z</time>
      </trkpt>
      <trkpt lat="47.545690" lon="7.922369">
        <ele>291.896820</ele>
        <time>2021-11-20T01:03:58.473Z</time>
      </trkpt>
      <trkpt lat="47.545699" lon="7.922325">
        <ele>291.814602</ele>
        <time>2021-11-20T01:03:58.734Z</time>
      </trkpt>
      <trkpt lat="47.545714" lon="7.922249">
        <ele>291.673002</ele>
        <time>2021-11-20T01:03:59.324Z</time>
      </trkpt>
      <trkpt lat="47.545778" lon="7.921947">
        <ele>291.106949</ele>
        <time>2021-11-20T01:04:02.480Z</time>
      </trkpt>
      <trkpt lat="47.545810" lon="7.921755">
        <ele>290.873983</ele>
        <time>2021-11-20T01:04:03.837Z</time>
      </trkpt>
      <trkpt lat="47.545881" lon="7.921096">
        <ele>290.598939</ele>
        <time>2021-11-20T01:04:09.186Z</time>
      </trkpt>
      <trkpt lat="47.545913" lon="7.920765">
        <ele>290.461127</ele>
        <time>2021-11-20T01:04:12.052Z</time>
      </trkpt>
      <trkpt lat="47.545973" lon="7.920313">
        <ele>290.271268</ele>
        <time>2021-11-20T01:04:17.200Z</time>
      </trkpt>
      <trkpt lat="47.546128" lon="7.919617">
        <ele>289.969205</ele>
        <time>2021-11-20T01:04:23.663Z</time>
      </trkpt>
      <trkpt lat="47.546262" lon="7.919081">
        <ele>289.747351</ele>
        <time>2021-11-20T01:04:29.662Z</time>
      </trkpt>
      <trkpt lat="47.546821" lon="7.916867">
        <ele>288.943912</ele>
        <time>2021-11-20T01:04:50.415Z</time>
      </trkpt>
      <trkpt lat="47.547032" lon="7.916218">
        <ele>288.825976</ele>
        <time>2021-11-20T01:04:56.905Z</time>
      </trkpt>
      <trkpt lat="47.547091" lon="7.916039">
        <ele>288.799753</ele>
        <time>2021-11-20T01:04:58.723Z</time>
      </trkpt>
      <trkpt lat="47.547113" lon="7.915971">
        <ele>288.789827</ele>
        <time>2021-11-20T01:04:59.321Z</time>
      </trkpt>
      <trkpt lat="47.547423" lon="7.915080">
        <ele>288.657873</ele>
        <time>2021-11-20T01:05:08.966Z</time>
      </trkpt>
      <trkpt lat="47.547994" lon="7.913433">
        <ele>289.083799</ele>
        <time>2021-11-20T01:05:28.685Z</time>
      </trkpt>
      <trkpt lat="47.548027" lon="7.913334">
        <ele>289.138159</ele>
        <time>2021-11-20T01:05:30.044Z</time>
      </trkpt>
      <trkpt lat="47.548412" lon="7.912168">
        <ele>289.777216</ele>
        <time>2021-11-20T01:05:46.447Z</time>
      </trkpt>
      <trkpt lat="47.549012" lon="7.910340">
        <ele>291.304355</ele>
        <time>2021-11-20T01:06:13.403Z</time>
      </trkpt>
      <trkpt lat="47.549102" lon="7.910058">
        <ele>291.546705</ele>
        <time>2021-11-20T01:06:17.577Z</time>
      </trkpt>
      <trkpt lat="47.549195" lon="7.909756">
        <ele>291.804602</ele>
        <time>2021-11-20T01:06:21.818Z</time>
      </trkpt>
      <trkpt lat="47.549235" lon="7.909621">
        <ele>291.919148</ele>
        <time>2021-11-20T01:06:23.828Z</time>
      </trkpt>
      <trkpt lat="47.549339" lon="7.909277">
        <ele>292.370193</ele>
        <time>2021-11-20T01:06:28.610Z</time>
      </trkpt>
      <trkpt lat="47.549520" lon="7.908678">
        <ele>293.174161</ele>
        <time>2021-11-20T01:06:37.171Z</time>
      </trkpt>
      <trkpt lat="47.549539" lon="7.908625">
        <ele>293.247677</ele>
        <time>2021-11-20T01:06:37.919Z</time>
      </trkpt>
      <trkpt lat="47.550497" lon="7.905558">
        <ele>298.626792</ele>
        <time>2021-11-20T01:07:32.744Z</time>
      </trkpt>
      <trkpt lat="47.550283" lon="7.905413">
        <ele>299.296056</ele>
        <time>2021-11-20T01:07:40.911Z</time>
      </trkpt>
      <trkpt lat="47.550067" lon="7.905245">
        <ele>299.989887</ele>
        <time>2021-11-20T01:07:49.597Z</time>
      </trkpt>
      <trkpt lat="47.549867" lon="7.905155">
        <ele>300.677590</ele>
        <time>2021-11-20T01:07:57.225Z</time>
      </trkpt>
      <trkpt lat="47.549868" lon="7.905010">
        <ele>301.053272</ele>
        <time>2021-11-20T01:08:00.630Z</time>
      </trkpt>
      <trkpt lat="47.550025" lon="7.904774">
        <ele>301.911769</ele>
        <time>2021-11-20T01:08:08.782Z</time>
      </trkpt>
      <trkpt lat="47.550302" lon="7.904164">
        <ele>303.816523</ele>
        <time>2021-11-20T01:08:27.081Z</time>
      </trkpt>
      <trkpt lat="47.550498" lon="7.903445">
        <ele>305.825470</ele>
        <time>2021-11-20T01:08:46.653Z</time>
      </trkpt>
      <trkpt lat="47.550688" lon="7.902451">
        <ele>308.512782</ele>
        <time>2021-11-20T01:09:09.201Z</time>
      </trkpt>
      <trkpt lat="47.550757" lon="7.901591">
        <ele>310.775485</ele>
        <time>2021-11-20T01:09:28.997Z</time>
      </trkpt>
      <trkpt lat="47.550769" lon="7.901362">
        <ele>311.375583</ele>
        <time>2021-11-20T01:09:34.905Z</time>
      </trkpt>
      <trkpt lat="47.550801" lon="7.900244">
        <ele>314.302496</ele>
        <time>2021-11-20T01:09:59.303Z</time>
      </trkpt>
      <trkpt lat="47.550819" lon="7.898109">
        <ele>320.043265</ele>
        <time>2021-11-20T01:10:46.343Z</time>
      </trkpt>
      <trkpt lat="47.550648" lon="7.896481">
        <ele>322.713756</ele>
        <time>2021-11-20T01:11:13.998Z</time>
      </trkpt>
      <trkpt lat="47.550639" lon="7.896345">
        <ele>322.874235</ele>
        <time>2021-11-20T01:11:16.373Z</time>
      </trkpt>
      <trkpt lat="47.550660" lon="7.896255">
        <ele>322.986066</ele>
        <time>2021-11-20T01:11:17.174Z</time>
      </trkpt>
      <trkpt lat="47.550838" lon="7.895509">
        <ele>323.915275</ele>
        <time>2021-11-20T01:11:27.342Z</time>
      </trkpt>
      <trkpt lat="47.550878" lon="7.895158">
        <ele>324.333311</ele>
        <time>2021-11-20T01:11:31.404Z</time>
      </trkpt>
      <trkpt lat="47.550908" lon="7.894308">
        <ele>325.446073</ele>
        <time>2021-11-20T01:11:41.876Z</time>
      </trkpt>
      <trkpt lat="47.550892" lon="7.893176">
        <ele>326.951988</ele>
        <time>2021-11-20T01:11:56.594Z</time>
      </trkpt>
      <trkpt lat="47.550904" lon="7.891725">
        <ele>330.408496</ele>
        <time>2021-11-20T01:12:26.356Z</time>
      </trkpt>
      <trkpt lat="47.550915" lon="7.890600">
        <ele>334.565171</ele>
        <time>2021-11-20T01:12:55.196Z</time>
      </trkpt>
      <trkpt lat="47.550833" lon="7.889069">
        <ele>340.534096</ele>
        <time>2021-11-20T01:13:37.829Z</time>
      </trkpt>
      <trkpt lat="47.550831" lon="7.888611">
        <ele>342.436734</ele>
        <time>2021-11-20T01:13:50.400Z</time>
      </trkpt>
      <trkpt lat="47.550789" lon="7.887816">
        <ele>345.749381</ele>
        <time>2021-11-20T01:14:11.011Z</time>
      </trkpt>
      <trkpt lat="47.550758" lon="7.887295">
        <ele>347.922086</ele>
        <time>2021-11-20T01:14:24.833Z</time>
      </trkpt>
      <trkpt lat="47.550677" lon="7.886476">
        <ele>350.990262</ele>
        <time>2021-11-20T01:14:46.322Z</time>
      </trkpt>
      <trkpt lat="47.550548" lon="7.885799">
        <ele>353.465561</ele>
        <time>2021-11-20T01:15:03.525Z</time>
      </trkpt>
      <trkpt lat="47.550391" lon="7.885109">
        <ele>356.027753</ele>
        <time>2021-11-20T01:15:21.162Z</time>
      </trkpt>
      <trkpt lat="47.550332" lon="7.884727">
        <ele>357.406662</ele>
        <time>2021-11-20T01:15:29.853Z</time>
      </trkpt>
      <trkpt lat="47.550234" lon="7.883221">
        <ele>361.459840</ele>
        <time>2021-11-20T01:16:02.684Z</time>
      </trkpt>
      <trkpt lat="47.549927" lon="7.881490">
        <ele>366.028983</ele>
        <time>2021-11-20T01:16:34.948Z</time>
      </trkpt>
      <trkpt lat="47.549726" lon="7.880786">
        <ele>368.114065</ele>
        <time>2021-11-20T01:16:50.924Z</time>
      </trkpt>
      <trkpt lat="47.549327" lon="7.879547">
        <ele>371.858745</ele>
        <time>2021-11-20T01:17:20.708Z</time>
      </trkpt>
      <trkpt lat="47.549318" lon="7.879398">
        <ele>372.266182</ele>
        <time>2021-11-20T01:17:23.897Z</time>
      </trkpt>
      <trkpt lat="47.549140" lon="7.879391">
        <ele>372.862576</ele>
        <time>2021-11-20T01:17:30.767Z</time>
      </trkpt>
      <trkpt lat="47.548718" lon="7.879258">
        <ele>374.307626</ele>
        <time>2021-11-20T01:17:44.553Z</time>
      </trkpt>
      <trkpt lat="47.548422" lon="7.878959">
        <ele>375.507538</ele>
        <time>2021-11-20T01:17:55.460Z</time>
      </trkpt>
      <trkpt lat="47.548234" lon="7.878638">
        <ele>376.468326</ele>
        <time>2021-11-20T01:18:03.833Z</time>
      </trkpt>
      <trkpt lat="47.547992" lon="7.877974">
        <ele>378.174290</ele>
        <time>2021-11-20T01:18:17.052Z</time>
      </trkpt>
      <trkpt lat="47.547645" lon="7.877001">
        <ele>377.381796</ele>
        <time>2021-11-20T01:18:28.223Z</time>
      </trkpt>
      <trkpt lat="47.547574" lon="7.876801">
        <ele>377.186967</ele>
        <time>2021-11-20T01:18:29.919Z</time>
      </trkpt>
      <trkpt lat="47.547126" lon="7.875801">
        <ele>376.152166</ele>
        <time>2021-11-20T01:18:38.679Z</time>
      </trkpt>
      <trkpt lat="47.546952" lon="7.875449">
        <ele>375.132567</ele>
        <time>2021-11-20T01:18:41.589Z</time>
      </trkpt>
      <trkpt lat="47.546309" lon="7.874154">
        <ele>369.578305</ele>
        <time>2021-11-20T01:18:51.845Z</time>
      </trkpt>
      <trkpt lat="47.546135" lon="7.873859">
        <ele>368.224794</ele>
        <time>2021-11-20T01:18:54.228Z</time>
      </trkpt>
      <trkpt lat="47.546077" lon="7.873763">
        <ele>367.779662</ele>
        <time>2021-11-20T01:18:55.037Z</time>
      </trkpt>
      <trkpt lat="47.545934" lon="7.873549">
        <ele>366.783622</ele>
        <time>2021-11-20T01:18:56.859Z</time>
      </trkpt>
      <trkpt lat="47.545746" lon="7.873302">
        <ele>366.783622</ele>
        <time>2021-11-20T01:18:59.174Z</time>
      </trkpt>
      <trkpt lat="47.545515" lon="7.873015">
        <ele>366.783622</ele>
        <time>2021-11-20T01:19:01.894Z</time>
      </trkpt>
      <trkpt lat="47.545478" lon="7.872968">
        <ele>366.783622</ele>
        <time>2021-11-20T01:19:02.338Z</time>
      </trkpt>
      <trkpt lat="47.545375" lon="7.872836">
        <ele>366.783622</ele>
        <time>2021-11-20T01:19:03.536Z</time>
      </trkpt>
      <trkpt lat="47.545131" lon="7.872664">
        <ele>366.783622</ele>
        <time>2021-11-20T01:19:06.012Z</time>
      </trkpt>
      <trkpt lat="47.544883" lon="7.872555">
        <ele>366.783622</ele>
        <time>2021-11-20T01:19:08.363Z</time>
      </trkpt>
      <trkpt lat="47.544390" lon="7.872423">
        <ele>366.783622</ele>
        <time>2021-11-20T01:19:12.986Z</time>
      </trkpt>
      <trkpt lat="47.543755" lon="7.872311">
        <ele>366.783622</ele>
        <time>2021-11-20T01:19:19.181Z</time>
      </trkpt>
    </trkseg>
  </trk>
</gpx>